[[{"header":{"parameterUnit":"m.s-1","parameterCategory":1,"la1":31.0,"la2":29.5877,"lo1":-88.7671,"lo2":-86.6584,"dy":0.0162,"dx":0.0185,"nx":115,"ny":88,"refTime":"2026-03-02T12:00:00:Z","depth":0,"parameterNumber":2,"parameterNumberName":"U-component_of_WINDS"},"data":[0.0,0.0,0.0,0.0,0.0,0.0,0.0,0.0,0.0,0.0,0.0,0.0,0.0,0.0,0.0,0.0,0.0,0.0,0.0,0.0,0.0,0.0,0.0,0.0,0.0,0.0,0.0,0.0,0.0,0.0,0.0,0.0,0.0,0.0,0.0,0.0,0.0,0.0,0.0,0.0,0.0,0.0,0.0,0.0,0.0,0.0,0.0,0.0,0.0,0.0,0.0,0.0,0.0,0.0,0.0,0.0,0.0,0.0,0.0,0.0,0.0,0.0,0.0,0.0,0.0,0.0,0.0,0.0,0.0,0.0,0.0,0.0,0.0,0.0,0.0,0.0,0.0,0.0,0.0,0.0,0.0,0.0,0.0,0.0,0.0,0.0,0.0,0.0,0.0,0.0,0.0,0.0,0.0,0.0,0.0,0.0,0.0,0.0,0.0,0.0,0.0,0.0,0.0,0.0,0.0,0.0,0.0,0.0,0.0,0.0,0.0,0.0,0.0,0.0,0.0,0.0,0.0,0.0,0.0,0.0,0.0,0.0,0.0,0.0,0.0,0.0,0.0,0.0,0.0,0.0,0.0,0.0,0.0,0.0,0.0,0.0,0.0,0.0,0.0,0.0,0.0,0.0,0.0,0.0,0.0,0.0,0.0,0.0,0.0,0.0,0.0,0.0,0.0,0.0,0.0,0.0,0.0,0.0,0.0,0.0,0.0,0.0,0.0,0.0,0.0,0.0,0.0,0.0,0.0,0.0,0.0,0.0,0.0,0.0,0.0,0.0,0.0,0.0,0.0,0.0,0.0,0.0,0.0,0.0,0.0,0.0,0.0,0.0,0.0,0.0,0.0,0.0,0.0,0.0,0.0,0.0,0.0,0.0,0.0,0.0,0.0,0.0,0.0,0.0,0.0,0.0,0.0,0.0,0.0,0.0,0.0,0.0,0.0,0.0,0.0,0.0,0.0,0.0,0.0,0.0,0.0,0.0,0.0,0.0,0.0,0.0,0.0,0.0,0.0,0.0,0.0,0.0,0.0,0.0,0.0,0.0,0.0,0.0,0.0,0.0,0.0,0.0,0.0,0.0,0.0,0.0,0.0,0.0,0.0,0.0,0.0,0.0,0.0,0.0,0.0,0.0,0.0,0.0,0.0,0.0,0.0,0.0,0.0,0.0,0.0,0.0,0.0,0.0,0.0,0.0,0.0,0.0,0.0,0.0,0.0,0.0,0.0,0.0,0.0,0.0,0.0,0.0,0.0,0.0,0.0,0.0,0.0,0.0,0.0,0.0,0.0,0.0,0.0,0.0,0.0,0.0,0.0,0.0,0.0,0.0,0.0,0.0,0.0,0.0,0.0,0.0,0.0,0.0,0.0,0.0,0.0,0.0,0.0,0.0,0.0,0.0,0.0,0.0,0.0,0.0,0.0,0.0,0.0,0.0,0.0,0.0,0.0,0.0,0.0,0.0,0.0,0.0,0.0,0.0,0.0,0.0,0.0,0.0,0.0,0.0,0.0,0.0,0.0,0.0,0.0,0.0,0.0,0.0,0.0,0.0,0.0,0.0,0.0,0.0,0.0,0.0,0.0,0.0,0.0,0.0,0.0,0.0,0.0,0.0,0.0,0.0,0.0,0.0,0.0,0.0,0.0,0.0,0.0,0.0,0.0,0.0,0.0,0.0,0.0,0.0,0.0,0.0,0.0,0.0,0.0,0.0,0.0,0.0,0.0,0.0,0.0,0.0,0.0,0.0,0.0,0.0,0.0,0.0,0.0,0.0,0.0,0.0,0.0,0.0,0.0,0.0,0.0,0.0,0.0,0.0,0.0,0.0,0.0,0.0,0.0,0.0,0.0,0.0,0.0,0.0,0.0,0.0,0.0,0.0,0.0,0.0,0.0,0.0,0.0,0.0,0.0,0.0,0.0,0.0,0.0,0.0,0.0,0.0,0.0,0.0,0.0,0.0,0.0,0.0,0.0,0.0,0.0,0.0,0.0,0.0,0.0,0.0,0.0,0.0,0.0,0.0,0.0,0.0,0.0,0.0,0.0,0.0,0.0,0.0,0.0,0.0,0.0,0.0,0.0,0.0,0.0,0.0,0.0,0.0,0.0,0.0,0.0,0.0,0.0,0.0,0.0,0.0,0.0,0.0,0.0,0.0,0.0,0.0,0.0,0.0,0.0,0.0,0.0,0.0,0.0,0.0,0.0,0.0,0.0,0.0,0.0,0.0,0.0,0.0,0.0,0.0,0.0,0.0,0.0,0.0,0.0,0.0,0.0,0.0,0.0,0.0,0.0,0.0,0.0,0.0,0.0,0.0,0.0,0.0,0.0,0.0,0.0,0.0,0.0,0.0,0.0,0.0,0.0,0.0,0.0,0.0,0.0,0.0,0.0,0.0,0.0,0.0,0.0,0.0,0.0,0.0,0.0,0.0,0.0,0.0,0.0,0.0,0.0,0.0,0.0,0.0,0.0,0.0,0.0,0.0,0.0,0.0,0.0,0.0,0.0,0.0,0.0,0.0,0.0,0.0,0.0,0.0,0.0,0.0,0.0,0.0,0.0,0.0,0.0,0.0,0.0,0.0,0.0,0.0,0.0,0.0,0.0,0.0,0.0,0.0,0.0,0.0,0.0,0.0,0.0,0.0,0.0,0.0,0.0,0.0,0.0,0.0,0.0,0.0,0.0,0.0,0.0,0.0,0.0,0.0,0.0,0.0,0.0,0.0,0.0,0.0,0.0,0.0,0.0,0.0,0.0,0.0,0.0,0.0,0.0,0.0,0.0,0.0,0.0,0.0,0.0,0.0,0.0,0.0,0.0,0.0,0.0,0.0,0.0,0.0,0.0,0.0,0.0,0.0,0.0,0.0,0.0,0.0,0.0,0.0,0.0,0.0,0.0,0.0,0.0,0.0,0.0,0.0,0.0,0.0,0.0,0.0,0.0,0.0,0.0,0.0,0.0,0.0,0.0,0.0,0.0,0.0,0.0,0.0,0.0,0.0,0.0,0.0,0.0,0.0,0.0,0.0,0.0,0.0,0.0,0.0,0.0,0.0,0.0,0.0,0.0,0.0,0.0,0.0,0.0,0.0,0.0,0.0,0.0,0.0,0.0,0.0,0.0,0.0,0.0,0.0,0.0,0.0,0.0,0.0,0.0,0.0,0.0,0.0,0.0,0.0,0.0,0.0,0.0,0.0,0.0,0.0,0.0,0.0,0.0,0.0,0.0,0.0,0.0,0.0,0.0,0.0,0.0,0.0,0.0,0.0,0.0,0.0,0.0,0.0,0.0,0.0,0.0,0.0,0.0,0.0,0.0,0.0,0.0,0.0,0.0,0.0,0.0,0.0,0.0,0.0,0.0,0.0,0.0,0.0,0.0,0.0,0.0,0.0,0.0,0.0,0.0,0.0,0.0,0.0,0.0,0.0,0.0,0.0,0.0,0.0,0.0,0.0,0.0,0.0,0.0,0.0,0.0,0.0,0.0,0.0,0.0,0.0,0.0,0.0,0.0,0.0,0.0,0.0,0.0,0.0,0.0,0.0,0.0,0.0,0.0,0.0,0.0,0.0,0.0,0.0,0.0,0.0,0.0,0.0,0.0,0.0,0.0,0.0,0.0,0.0,0.0,0.0,0.0,0.0,0.0,0.0,0.0,0.0,0.0,0.0,0.0,0.0,0.0,0.0,0.0,0.0,0.0,0.0,0.0,0.0,0.0,0.0,0.0,0.0,0.0,0.0,0.0,0.0,0.0,0.0,0.0,0.0,0.0,0.0,0.0,0.0,0.0,0.0,0.0,0.0,0.0,0.0,0.0,0.0,0.0,0.0,0.0,0.0,0.0,0.0,0.0,0.0,0.0,0.0,0.0,0.0,0.0,0.0,0.0,0.0,0.0,0.0,0.0,0.0,0.0,0.0,0.0,0.0,0.0,0.0,0.0,0.0,0.0,0.0,0.0,0.0,0.0,0.0,0.0,0.0,0.0,0.0,0.0,0.0,0.0,0.0,0.0,0.0,0.0,0.0,0.0,0.0,0.0,0.0,0.0,0.0,0.0,0.0,0.0,0.0,0.0,0.0,0.0,0.0,0.0,0.0,0.0,0.0,0.0,0.0,0.0,0.0,0.0,0.0,0.0,0.0,0.0,0.0,0.0,0.0,0.0,0.0,0.0,0.0,0.0,0.0,0.0,0.0,0.0,0.0,0.0,0.0,0.0,0.0,0.0,0.0,0.0,0.0,0.0,0.0,0.0,0.0,0.0,0.0,0.0,0.0,0.0,0.0,0.0,0.0,-0.8149,0.0,0.0,0.0,0.0,0.0,0.0,0.0,0.0,0.0,0.0,0.0,0.0,0.0,0.0,0.0,0.0,0.0,0.0,0.0,0.0,0.0,0.0,0.0,0.0,0.0,0.0,0.0,0.0,0.0,0.0,0.0,0.0,0.0,0.0,0.0,0.0,0.0,0.0,0.0,0.0,0.0,0.0,0.0,0.0,0.0,0.0,0.0,0.0,0.0,0.0,0.0,0.0,0.0,0.0,0.0,0.0,0.0,0.0,0.0,0.0,0.0,0.0,0.0,0.0,0.0,0.0,0.0,0.0,0.0,0.0,0.0,0.0,0.0,0.0,0.0,0.0,0.0,0.0,0.0,0.0,0.0,0.0,0.0,0.0,0.0,0.0,0.0,0.0,0.0,0.0,0.0,0.0,0.0,0.0,0.0,0.0,0.0,0.0,0.0,0.0,0.0,0.0,0.0,0.0,0.0,0.0,0.0,0.0,0.0,0.0,-0.9762,-0.9064,-0.9064,-0.8736,-0.8101,0.0,0.0,0.0,0.0,0.0,0.0,0.0,0.0,0.0,0.0,0.0,0.0,0.0,0.0,0.0,0.0,0.0,0.0,0.0,0.0,0.0,0.0,0.0,0.0,0.0,0.0,0.0,0.0,0.0,0.0,0.0,0.0,0.0,0.0,0.0,0.0,0.0,0.0,0.0,0.0,0.0,0.0,0.0,0.0,0.0,0.0,0.0,0.0,0.0,0.0,0.0,0.0,0.0,0.0,0.0,0.0,0.0,0.0,0.0,0.0,0.0,0.0,0.0,0.0,0.0,0.0,0.0,0.0,0.0,0.0,0.0,0.0,0.0,0.0,0.0,0.0,0.0,0.0,0.0,0.0,0.0,0.0,0.0,0.0,0.0,0.0,0.0,0.0,0.0,0.0,0.0,0.0,0.0,0.0,0.0,0.0,0.0,0.0,0.0,0.0,0.0,0.0,0.0,0.0,0.0,0.0,0.0,0.0,0.0,0.0,0.0,0.0,-0.9229,-0.9054,-0.872,0.0,0.0,0.0,0.0,0.0,0.0,0.0,0.0,0.0,0.0,0.0,0.0,0.0,0.0,0.0,0.0,0.0,0.0,0.0,0.0,0.0,0.0,0.0,0.0,0.0,0.0,0.0,0.0,0.0,0.0,0.0,0.0,0.0,0.0,0.0,0.0,0.0,0.0,0.0,0.0,0.0,0.0,0.0,0.0,0.0,0.0,0.0,0.0,0.0,0.0,0.0,0.0,0.0,0.0,0.0,0.0,0.0,0.0,0.0,0.0,0.0,0.0,0.0,0.0,0.0,0.0,0.0,0.0,0.0,0.0,0.0,0.0,0.0,0.0,0.0,0.0,0.0,0.0,0.0,0.0,0.0,0.0,0.0,0.0,0.0,0.0,0.0,0.0,0.0,0.0,0.0,0.0,0.0,0.0,0.0,0.0,0.0,0.0,0.0,0.0,0.0,0.0,0.0,0.0,0.0,0.0,0.0,0.0,0.0,0.0,-0.8789,-0.9866,-0.9903,0.0,-1.0619,0.0,0.0,0.0,0.0,0.0,0.0,0.0,0.0,0.0,0.0,0.0,0.0,0.0,0.0,0.0,0.0,0.0,0.0,0.0,0.0,0.0,0.0,0.0,0.0,0.0,0.0,0.0,0.0,0.0,0.0,0.0,0.0,0.0,0.0,0.0,0.0,0.0,0.0,0.0,0.0,0.0,0.0,0.0,0.0,0.0,0.0,0.0,0.0,0.0,0.0,0.0,0.0,0.0,0.0,0.0,0.0,0.0,0.0,0.0,0.0,0.0,0.0,0.0,0.0,0.0,0.0,0.0,0.0,0.0,0.0,0.0,0.0,0.0,0.0,0.0,0.0,0.0,0.0,0.0,0.0,0.0,0.0,0.0,0.0,0.0,0.0,0.0,0.0,0.0,0.0,0.0,0.0,0.0,0.0,0.0,0.0,0.0,0.0,0.0,0.0,0.0,0.0,0.0,0.0,0.0,0.0,0.0,0.0,0.0,0.0,0.0,-0.9929,-0.9941,-1.0242,0.0,0.0,0.0,0.0,0.0,0.0,0.0,0.0,0.0,0.0,0.0,0.0,0.0,0.0,0.0,0.0,0.0,0.0,0.0,0.0,0.0,0.0,0.0,0.0,0.0,0.0,0.0,0.0,0.0,0.0,0.0,0.0,0.0,0.0,0.0,0.0,0.0,0.0,0.0,0.0,0.0,0.0,0.0,0.0,0.0,0.0,0.0,0.0,0.0,0.0,0.0,0.0,0.0,0.0,0.0,0.0,0.0,0.0,0.0,0.0,0.0,0.0,0.0,0.0,0.0,0.0,0.0,0.0,0.0,0.0,0.0,0.0,0.0,0.0,0.0,0.0,0.0,0.0,0.0,0.0,0.0,0.0,0.0,0.0,0.0,0.0,0.0,0.0,0.0,0.0,0.0,0.0,0.0,0.0,0.0,0.0,0.0,0.0,0.0,0.0,0.0,0.0,0.0,0.0,0.0,0.0,0.0,0.0,0.0,0.0,-0.9615,0.0,-1.0417,-1.0442,-1.0481,-1.0611,0.0,0.0,0.0,0.0,0.0,0.0,0.0,0.0,0.0,0.0,0.0,0.0,0.0,0.0,0.0,0.0,0.0,0.0,0.0,0.0,0.0,0.0,0.0,0.0,0.0,0.0,0.0,0.0,0.0,0.0,0.0,0.0,0.0,0.0,0.0,0.0,0.0,0.0,0.0,0.0,0.0,0.0,0.0,0.0,0.0,0.0,0.0,0.0,0.0,0.0,0.0,0.0,0.0,0.0,0.0,0.0,0.0,0.0,0.0,0.0,0.0,0.0,0.0,0.0,0.0,0.0,0.0,0.0,0.0,0.0,0.0,0.0,0.0,0.0,0.0,0.0,0.0,0.0,0.0,0.0,0.0,0.0,0.0,0.0,0.0,0.0,0.0,0.0,0.0,0.0,0.0,0.0,0.0,0.0,0.0,0.0,0.0,0.0,0.0,0.0,0.0,0.0,0.0,0.0,0.0,0.0,0.0,0.0,0.0,-1.0563,-1.0578,-1.1753,-1.1766,-1.1161,0.0,0.0,0.0,0.0,0.0,0.0,0.0,0.0,0.0,0.0,0.0,0.0,0.0,0.0,0.0,0.0,0.0,0.0,0.0,0.0,0.0,0.0,0.0,0.0,0.0,0.0,0.0,0.0,0.0,0.0,0.0,0.0,0.0,0.0,0.0,0.0,0.0,0.0,0.0,0.0,0.0,0.0,0.0,0.0,0.0,0.0,0.0,0.0,0.0,0.0,0.0,0.0,0.0,0.0,0.0,0.0,0.0,0.0,0.0,0.0,0.0,0.0,0.0,0.0,0.0,0.0,0.0,0.0,0.0,0.0,0.0,0.0,0.0,0.0,0.0,0.0,0.0,0.0,0.0,0.0,0.0,0.0,0.0,0.0,0.0,0.0,0.0,0.0,0.0,0.0,0.0,0.0,0.0,0.0,0.0,0.0,0.0,0.0,0.0,0.0,0.0,0.0,0.0,0.0,0.0,0.0,0.0,0.0,0.0,-0.9362,-0.9709,-1.0746,-1.2351,-1.1247,-1.0563,0.0,0.0,0.0,0.0,0.0,0.0,0.0,0.0,0.0,0.0,0.0,0.0,0.0,0.0,0.0,0.0,0.0,0.0,0.0,0.0,0.0,0.0,0.0,0.0,0.0,0.0,0.0,0.0,0.0,0.0,0.0,0.0,0.0,0.0,0.0,0.0,0.0,0.0,0.0,0.0,0.0,0.0,0.0,0.0,0.0,0.0,0.0,0.0,0.0,0.0,0.0,0.0,0.0,0.0,0.0,0.0,0.0,0.0,0.0,0.0,0.0,0.0,0.0,0.0,0.0,0.0,0.0,0.0,0.0,0.0,0.0,0.0,0.0,0.0,0.0,0.0,0.0,0.0,0.0,0.0,0.0,0.0,0.0,0.0,0.0,0.0,0.0,0.0,0.0,0.0,0.0,0.0,0.0,0.0,0.0,0.0,0.0,0.0,0.0,0.0,0.0,0.0,0.0,0.0,0.0,0.0,0.0,0.0,0.0,-0.8895,0.0,-1.1277,0.0,-1.0877,-1.0099,0.0,0.0,0.0,0.0,0.0,0.0,0.0,0.0,0.0,0.0,0.0,0.0,0.0,0.0,0.0,0.0,0.0,0.0,0.0,0.0,0.0,0.0,0.0,0.0,0.0,0.0,0.0,0.0,0.0,0.0,0.0,0.0,0.0,0.0,0.0,0.0,0.0,0.0,0.0,0.0,0.0,0.0,0.0,0.0,0.0,0.0,0.0,0.0,0.0,0.0,0.0,0.0,0.0,0.0,0.0,0.0,0.0,0.0,0.0,0.0,0.0,0.0,0.0,0.0,0.0,0.0,0.0,0.0,0.0,0.0,0.0,0.0,0.0,0.0,0.0,0.0,0.0,0.0,0.0,0.0,0.0,0.0,0.0,0.0,0.0,0.0,0.0,0.0,0.0,0.0,0.0,0.0,0.0,0.0,0.0,0.0,0.0,0.0,0.0,0.0,0.0,0.0,0.0,0.0,0.0,0.0,0.0,0.0,-0.9524,-1.0708,-1.1962,-1.2026,-1.0877,-1.0748,-0.9863,0.0,0.0,0.0,0.0,0.0,0.0,0.0,0.0,0.0,0.0,0.0,0.0,0.0,0.0,0.0,0.0,0.0,0.0,0.0,0.0,0.0,0.0,0.0,0.0,0.0,0.0,0.0,0.0,0.0,0.0,0.0,0.0,0.0,0.0,0.0,0.0,0.0,0.0,0.0,0.0,0.0,0.0,0.0,0.0,0.0,0.0,0.0,0.0,0.0,0.0,0.0,0.0,0.0,0.0,0.0,0.0,0.0,0.0,0.0,0.0,0.0,0.0,0.0,0.0,0.0,0.0,0.0,0.0,0.0,0.0,0.0,0.0,0.0,0.0,0.0,0.0,0.0,0.0,0.0,0.0,0.0,0.0,0.0,0.0,0.0,0.0,0.0,0.0,0.0,0.0,0.0,0.0,0.0,0.0,0.0,0.0,0.0,0.0,0.0,0.0,0.0,0.0,0.0,0.0,0.0,0.0,0.0,0.0,0.0,-0.9276,-1.0298,-1.0894,-1.0894,-0.9807,-0.9331,0.0,0.0,0.0,0.0,0.0,0.0,0.0,0.0,0.0,0.0,0.0,0.0,0.0,0.0,0.0,0.0,0.0,0.0,0.0,0.0,0.0,0.0,0.0,0.0,0.0,0.0,0.0,0.0,0.0,0.0,0.0,0.0,0.0,0.0,0.0,0.0,0.0,0.0,0.0,0.0,0.0,0.0,0.0,0.0,0.0,0.0,0.0,0.0,0.0,0.0,0.0,0.0,0.0,0.0,0.0,0.0,0.0,0.0,0.0,0.0,0.0,0.0,0.0,0.0,0.0,0.0,0.0,0.0,0.0,0.0,0.0,0.0,0.0,0.0,0.0,0.0,0.0,0.0,0.0,0.0,0.0,0.0,0.0,0.0,0.0,0.0,0.0,0.0,0.0,0.0,0.0,0.0,0.0,0.0,0.0,0.0,0.0,0.0,0.0,0.0,0.0,0.0,0.0,0.0,0.0,0.0,0.0,0.0,0.0,-0.9056,-1.0339,-1.0938,-1.0657,-0.9741,-0.9374,-0.9585,0.0,0.0,0.0,0.0,0.0,0.0,0.0,0.0,0.0,0.0,0.0,0.0,0.0,0.0,0.0,0.0,0.0,0.0,0.0,0.0,0.0,0.0,0.0,0.0,0.0,0.0,0.0,0.0,0.0,0.0,0.0,0.0,0.0,0.0,0.0,0.0,0.0,0.0,0.0,0.0,0.0,0.0,0.0,0.0,0.0,0.0,0.0,0.0,0.0,0.0,0.0,0.0,0.0,0.0,0.0,0.0,0.0,0.0,0.0,0.0,0.0,0.0,0.0,0.0,0.0,0.0,0.0,0.0,0.0,0.0,0.0,0.0,0.0,0.0,0.0,0.0,0.0,0.0,0.0,0.0,0.0,0.0,0.0,0.0,0.0,0.0,0.0,0.0,0.0,0.0,0.0,0.0,0.0,0.0,0.0,0.0,0.0,0.0,0.0,0.0,0.0,0.0,0.0,0.0,0.0,0.0,0.0,0.0,-0.9765,-1.1739,-1.1937,-1.0248,-1.0342,-0.9864,0.0,0.0,0.0,0.0,0.0,0.0,0.0,0.0,0.0,0.0,0.0,0.0,0.0,0.0,0.0,0.0,0.0,0.0,0.0,0.0,0.0,0.0,0.0,0.0,0.0,0.0,0.0,0.0,0.0,0.0,0.0,0.0,0.0,0.0,0.0,0.0,0.0,0.0,0.0,0.0,0.0,0.0,0.0,0.0,0.0,0.0,0.0,0.0,0.0,0.0,0.0,0.0,0.0,0.0,0.0,0.0,0.0,0.0,0.0,0.0,0.0,0.0,0.0,0.0,0.0,0.0,0.0,0.0,0.0,0.0,0.0,0.0,0.0,0.0,0.0,0.0,0.0,0.0,0.0,0.0,0.0,0.0,0.0,0.0,0.0,0.0,0.0,0.0,0.0,0.0,0.0,0.0,0.0,0.0,0.0,0.0,0.0,0.0,0.0,0.0,0.0,0.0,0.0,0.0,0.0,0.0,0.0,0.0,0.0,-1.0466,-1.124,-1.1415,-1.0923,-1.0261,-0.9815,0.0,0.0,0.0,0.0,0.0,0.0,0.0,0.0,0.0,0.0,0.0,0.0,0.0,0.0,0.0,0.0,0.0,0.0,0.0,0.0,0.0,0.0,0.0,0.0,0.0,0.0,0.0,0.0,0.0,0.0,0.0,0.0,0.0,0.0,0.0,0.0,0.0,0.0,0.0,0.0,0.0,0.0,0.0,0.0,0.0,0.0,0.0,0.0,0.0,0.0,0.0,0.0,0.0,0.0,0.0,0.0,0.0,0.0,0.0,0.0,0.0,0.0,0.0,0.0,0.0,0.0,0.0,0.0,0.0,0.0,0.0,0.0,0.0,0.0,0.0,0.0,0.0,0.0,0.0,0.0,0.0,0.0,0.0,0.0,0.0,0.0,0.0,0.0,0.0,0.0,0.0,0.0,0.0,0.0,0.0,0.0,0.0,0.0,0.0,0.0,0.0,0.0,0.0,0.0,0.0,0.0,0.0,0.0,-1.0207,-1.0881,-1.086,-1.0795,-1.0795,-1.0817,-1.0523,0.0,0.0,0.0,0.0,0.0,0.0,0.0,0.0,0.0,0.0,0.0,0.0,0.0,0.0,0.0,0.0,0.0,0.0,0.0,0.0,0.0,0.0,0.0,0.0,0.0,0.0,0.0,0.0,0.0,0.0,0.0,0.0,0.0,0.0,0.0,0.0,0.0,0.0,0.0,0.0,0.0,0.0,0.0,0.0,0.0,0.0,0.0,0.0,0.0,0.0,0.0,0.0,0.0,0.0,0.0,0.0,0.0,0.0,0.0,0.0,0.0,0.0,0.0,0.0,0.0,0.0,0.0,0.0,0.0,0.0,0.0,0.0,0.0,0.0,0.0,0.0,0.0,0.0,0.0,0.0,0.0,0.0,0.0,0.0,0.0,0.0,0.0,0.0,0.0,0.0,0.0,0.0,0.0,0.0,0.0,0.0,0.0,0.0,0.0,0.0,0.0,0.0,0.0,0.0,0.0,0.0,0.0,0.0,-1.0166,-1.107,-1.0651,-1.0339,-1.0237,-1.1561,-1.1468,0.0,0.0,0.0,0.0,0.0,0.0,0.0,0.0,0.0,0.0,0.0,0.0,0.0,0.0,0.0,0.0,0.0,0.0,0.0,0.0,0.0,0.0,0.0,0.0,0.0,0.0,0.0,0.0,0.0,0.0,0.0,0.0,0.0,0.0,0.0,0.0,0.0,0.0,0.0,0.0,0.0,0.0,0.0,0.0,0.0,0.0,0.0,0.0,0.0,0.0,0.0,0.0,0.0,0.0,0.0,0.0,0.0,0.0,0.0,0.0,0.0,0.0,0.0,0.0,0.0,0.0,0.0,0.0,0.0,0.0,0.0,0.0,0.0,0.0,0.0,0.0,0.0,0.0,0.0,0.0,0.0,0.0,0.0,0.0,0.0,0.0,0.0,0.0,0.0,0.0,0.0,0.0,0.0,0.0,0.0,0.0,0.0,0.0,0.0,0.0,0.0,0.0,0.0,0.0,0.0,0.0,0.0,0.0,-0.9932,-1.0392,-1.0795,-1.0743,-1.0212,-1.1017,-1.0885,0.0,0.0,0.0,0.0,0.0,0.0,0.0,0.0,0.0,0.0,0.0,0.0,0.0,0.0,0.0,0.0,0.0,0.0,0.0,0.0,0.0,0.0,0.0,0.0,0.0,0.0,0.0,0.0,0.0,0.0,0.0,0.0,0.0,0.0,0.0,0.0,0.0,0.0,0.0,0.0,0.0,0.0,0.0,0.0,0.0,0.0,0.0,0.0,-0.5687,0.0,0.0,0.0,0.0,0.0,0.0,0.0,0.0,0.0,0.0,0.0,0.0,0.0,0.0,0.0,0.0,0.0,0.0,0.0,0.0,0.0,0.0,0.0,0.0,0.0,0.0,0.0,0.0,0.0,0.0,0.0,0.0,0.0,0.0,0.0,0.0,0.0,0.0,0.0,0.0,0.0,0.0,0.0,0.0,0.0,0.0,0.0,0.0,0.0,0.0,0.0,0.0,0.0,0.0,0.0,0.0,0.0,0.0,0.0,-1.0479,-1.0651,-1.0743,-1.0561,-1.0212,-1.0807,-1.0756,0.0,0.0,0.0,0.0,0.0,0.0,0.0,0.0,0.0,0.0,0.0,0.0,0.0,0.0,0.0,0.0,0.0,0.0,0.0,0.0,0.0,0.0,0.0,0.0,0.0,0.0,0.0,0.0,0.0,0.0,0.0,0.0,0.0,0.0,0.0,0.0,0.0,0.0,0.0,0.0,0.0,0.0,0.0,0.0,0.0,0.0,0.0,0.0,0.0,0.0,0.0,0.0,0.0,0.0,0.0,0.0,0.0,0.0,0.0,0.0,0.0,0.0,0.0,0.0,0.0,0.0,0.0,0.0,0.0,0.0,0.0,0.0,0.0,0.0,0.0,0.0,0.0,0.0,0.0,0.0,0.0,0.0,0.0,0.0,0.0,0.0,0.0,0.0,0.0,0.0,0.0,0.0,0.0,0.0,0.0,0.0,0.0,0.0,0.0,0.0,0.0,0.0,0.0,0.0,0.0,0.0,0.0,-1.0636,-1.1043,-1.099,-1.0625,-1.0315,-1.011,-1.0792,-1.0897,-1.03,0.0,0.0,0.0,0.0,0.0,0.0,0.0,0.0,0.0,0.0,0.0,0.0,0.0,0.0,0.0,0.0,0.0,0.0,0.0,0.0,0.0,0.0,0.0,0.0,0.0,0.0,0.0,0.0,0.0,0.0,0.0,0.0,0.0,0.0,0.0,0.0,0.0,0.0,-0.6852,-0.7711,0.0,0.0,0.0,0.0,0.0,0.0,0.0,0.0,-0.6178,0.0,0.0,0.0,0.0,0.0,0.0,0.0,0.0,0.0,0.0,0.0,0.0,0.0,0.0,0.0,0.0,0.0,0.0,0.0,0.0,0.0,0.0,0.0,0.0,0.0,0.0,0.0,0.0,0.0,0.0,0.0,0.0,0.0,0.0,0.0,0.0,0.0,0.0,0.0,0.0,0.0,0.0,0.0,0.0,0.0,0.0,0.0,0.0,0.0,0.0,0.0,0.0,0.0,0.0,0.0,0.0,-1.0338,-1.0377,-1.0302,-1.0199,-1.0649,-1.061,-1.0085,-1.1052,-1.1171,-1.0263,0.0,0.0,0.0,0.0,0.0,0.0,0.0,0.0,0.0,0.0,0.0,0.0,0.0,0.0,0.0,0.0,0.0,0.0,0.0,0.0,0.0,0.0,0.0,0.0,0.0,0.0,0.0,0.0,0.0,0.0,0.0,0.0,0.0,0.0,0.0,0.0,0.0,0.0,0.0,-0.9318,-1.0258,0.0,0.0,0.0,0.0,0.0,0.0,0.0,0.0,-0.5785,0.0,0.0,0.0,0.0,0.0,0.0,0.0,0.0,0.0,0.0,0.0,0.0,0.0,0.0,0.0,0.0,0.0,0.0,0.0,0.0,0.0,0.0,0.0,0.0,0.0,0.0,0.0,0.0,0.0,0.0,0.0,0.0,0.0,0.0,0.0,0.0,0.0,0.0,0.0,0.0,0.0,0.0,0.0,0.0,0.0,0.0,0.0,0.0,0.0,0.0,0.0,0.0,0.0,0.0,0.0,-0.9928,-1.0379,-1.0431,-1.0072,-1.0366,-1.0353,-1.0021,-1.0528,-1.0607,0.0,0.0,0.0,0.0,0.0,0.0,0.0,0.0,0.0,0.0,0.0,0.0,0.0,0.0,0.0,0.0,0.0,0.0,0.0,0.0,0.0,0.0,0.0,0.0,0.0,0.0,0.0,0.0,0.0,0.0,0.0,0.0,0.0,0.0,0.0,0.0,0.0,0.0,0.0,0.0,-0.915,-0.9762,-0.9537,0.0,0.0,0.0,0.0,0.0,0.0,-0.7231,-0.6582,0.0,0.0,0.0,0.0,0.0,0.0,0.0,0.0,0.0,0.0,0.0,0.0,0.0,0.0,0.0,0.0,0.0,0.0,0.0,0.0,0.0,0.0,0.0,0.0,0.0,0.0,0.0,0.0,0.0,0.0,0.0,0.0,0.0,0.0,0.0,0.0,0.0,0.0,0.0,0.0,0.0,0.0,0.0,0.0,0.0,0.0,0.0,0.0,0.0,0.0,0.0,0.0,0.0,0.0,0.0,-0.9455,-1.0315,-1.0571,-1.0085,-1.0059,-1.0034,-0.9983,-1.0198,-1.0223,0.0,0.0,0.0,0.0,0.0,0.0,0.0,0.0,0.0,0.0,0.0,0.0,0.0,0.0,0.0,0.0,0.0,0.0,0.0,0.0,0.0,0.0,0.0,0.0,0.0,0.0,0.0,0.0,0.0,0.0,0.0,0.0,0.0,0.0,0.0,0.0,0.0,0.0,0.0,0.0,0.0,-0.9374,-0.963,-0.9242,0.0,0.0,0.0,0.0,-0.8931,-0.8458,0.0,0.0,0.0,0.0,0.0,0.0,0.0,0.0,0.0,0.0,0.0,0.0,0.0,0.0,0.0,0.0,0.0,0.0,0.0,0.0,0.0,0.0,0.0,0.0,0.0,0.0,0.0,0.0,0.0,0.0,0.0,0.0,0.0,0.0,0.0,0.0,0.0,0.0,0.0,0.0,0.0,0.0,0.0,0.0,0.0,0.0,0.0,0.0,0.0,0.0,0.0,0.0,0.0,0.0,0.0,0.0,-0.9493,-0.9916,-1.0059,-0.9931,-0.9906,-0.9919,-0.9931,-1.09,-1.0965,0.0,0.0,0.0,0.0,0.0,0.0,0.0,0.0,0.0,0.0,0.0,0.0,0.0,0.0,0.0,0.0,0.0,0.0,0.0,0.0,0.0,0.0,0.0,0.0,0.0,0.0,0.0,0.0,0.0,0.0,0.0,0.0,0.0,0.0,0.0,0.0,0.0,0.0,0.0,0.0,0.0,-1.1264,-1.0325,-1.0156,-1.0104,0.0,0.0,-0.9577,-1.0039,-0.9645,0.0,0.0,0.0,0.0,0.0,0.0,0.0,0.0,0.0,0.0,0.0,0.0,0.0,0.0,0.0,0.0,0.0,0.0,0.0,0.0,0.0,0.0,0.0,0.0,0.0,0.0,0.0,0.0,0.0,0.0,0.0,0.0,0.0,0.0,0.0,0.0,0.0,0.0,0.0,0.0,0.0,0.0,0.0,0.0,0.0,0.0,0.0,0.0,0.0,0.0,0.0,0.0,0.0,0.0,0.0,-0.8886,-0.9736,-0.9881,-0.9919,-0.9893,-0.9893,-0.9893,-0.9893,-1.0671,-1.0735,0.0,0.0,0.0,0.0,0.0,0.0,0.0,0.0,0.0,0.0,0.0,0.0,0.0,0.0,0.0,0.0,0.0,0.0,0.0,0.0,0.0,0.0,0.0,0.0,0.0,0.0,0.0,0.0,0.0,0.0,0.0,0.0,0.0,0.0,0.0,0.0,0.0,0.0,0.0,0.0,0.0,0.0,-1.1605,-1.0925,0.0,0.0,0.0,-1.0651,-1.1186,0.0,0.0,0.0,0.0,0.0,0.0,0.0,0.0,0.0,0.0,0.0,0.0,0.0,0.0,0.0,0.0,0.0,0.0,0.0,0.0,0.0,0.0,0.0,0.0,0.0,0.0,0.0,0.0,0.0,0.0,0.0,0.0,0.0,0.0,0.0,0.0,0.0,0.0,0.0,0.0,0.0,0.0,0.0,0.0,0.0,0.0,0.0,0.0,0.0,0.0,0.0,0.0,0.0,0.0,0.0,0.0,0.0,-0.997,-0.9931,-0.9893,-0.9893,-0.9893,-0.9893,-0.9893,-1.0419,0.0,0.0,0.0,0.0,0.0,0.0,0.0,0.0,0.0,0.0,0.0,0.0,0.0,0.0,0.0,0.0,0.0,0.0,0.0,0.0,0.0,0.0,0.0,0.0,0.0,0.0,0.0,-0.5986,0.0,0.0,0.0,0.0,0.0,0.0,0.0,0.0,0.0,0.0,0.0,0.0,0.0,0.0,-0.9868,-1.2156,-1.1391,-1.1025,0.0,0.0,-1.1524,-1.1792,-1.1009,-1.0212,0.0,0.0,0.0,0.0,0.0,0.0,0.0,0.0,0.0,0.0,0.0,0.0,0.0,0.0,0.0,0.0,0.0,0.0,0.0,0.0,0.0,0.0,0.0,0.0,0.0,0.0,0.0,0.0,0.0,0.0,0.0,0.0,0.0,0.0,0.0,0.0,0.0,0.0,0.0,0.0,0.0,0.0,0.0,0.0,0.0,0.0,0.0,0.0,0.0,0.0,0.0,0.0,0.0,0.0,0.0,-0.9945,-0.9919,-0.9893,-0.9893,-0.9893,-0.9893,-0.9905,-1.0418,-1.0444,0.0,0.0,0.0,0.0,0.0,0.0,0.0,0.0,0.0,0.0,0.0,0.0,0.0,0.0,0.0,0.0,0.0,0.0,0.0,0.0,0.0,0.0,0.0,0.0,0.0,0.0,0.0,0.0,0.0,0.0,0.0,0.0,0.0,0.0,0.0,0.0,0.0,0.0,0.0,0.0,0.0,-1.0469,-1.1201,-1.1374,-1.1341,0.0,0.0,-1.1893,-1.1425,-1.0928,-1.0415,-0.9943,0.0,0.0,0.0,0.0,0.0,0.0,0.0,0.0,0.0,0.0,0.0,0.0,0.0,0.0,0.0,0.0,0.0,0.0,0.0,0.0,0.0,0.0,0.0,0.0,0.0,0.0,0.0,0.0,0.0,0.0,0.0,0.0,0.0,0.0,0.0,0.0,0.0,0.0,0.0,0.0,0.0,0.0,0.0,0.0,0.0,0.0,0.0,0.0,0.0,0.0,0.0,0.0,0.0,-0.8846,-0.9906,-0.9919,-0.9893,-0.9893,-0.9893,-0.9893,-0.9893,-1.0106,-1.0106,0.0,0.0,0.0,0.0,0.0,0.0,0.0,0.0,0.0,0.0,0.0,0.0,0.0,0.0,0.0,0.0,0.0,0.0,0.0,0.0,0.0,0.0,0.0,0.0,0.0,0.0,0.0,0.0,-0.5132,-0.4837,-0.457,0.0,0.0,0.0,0.0,0.0,0.0,0.0,0.0,0.0,0.0,-1.0716,-1.1988,-1.1698,0.0,0.0,-1.1805,-1.1731,-1.2222,-1.1398,-1.0713,-1.0701,-1.0225,0.0,0.0,0.0,0.0,0.0,0.0,0.0,0.0,0.0,0.0,0.0,0.0,0.0,0.0,0.0,0.0,0.0,0.0,0.0,0.0,0.0,0.0,0.0,0.0,0.0,0.0,0.0,0.0,0.0,0.0,0.0,0.0,0.0,0.0,0.0,0.0,0.0,0.0,0.0,0.0,0.0,0.0,0.0,0.0,0.0,0.0,0.0,0.0,0.0,0.0,0.0,0.0,-0.8824,-0.988,-0.9893,-0.9893,-0.9893,-0.9893,-0.9893,-0.9893,-0.9893,-0.9893,0.0,0.0,0.0,0.0,0.0,0.0,0.0,0.0,0.0,0.0,0.0,0.0,0.0,0.0,0.0,0.0,0.0,0.0,0.0,0.0,0.0,0.0,0.0,0.0,0.0,0.0,0.0,0.0,-0.5837,-0.5437,-0.4331,0.0,0.0,0.0,0.0,0.0,0.0,0.0,0.0,0.0,0.0,-1.0741,-1.2292,-1.1954,-1.1774,-1.2442,-1.2239,-1.2137,-1.262,-1.1799,-1.1142,-1.1223,0.0,0.0,0.0,0.0,0.0,0.0,0.0,0.0,0.0,0.0,0.0,0.0,0.0,0.0,0.0,0.0,0.0,0.0,0.0,0.0,0.0,0.0,0.0,0.0,0.0,0.0,0.0,0.0,0.0,0.0,-0.9869,0.0,0.0,0.0,0.0,0.0,0.0,0.0,0.0,0.0,0.0,0.0,0.0,0.0,0.0,0.0,0.0,0.0,0.0,0.0,0.0,0.0,0.0,-0.8826,-0.9867,-0.9918,-0.9905,-0.9918,-0.9893,-0.9905,-0.9893,-0.988,-0.988,-0.9855,0.0,0.0,0.0,0.0,0.0,0.0,0.0,0.0,0.0,0.0,0.0,0.0,0.0,0.0,0.0,0.0,0.0,0.0,0.0,0.0,0.0,0.0,0.0,0.0,0.0,0.0,-0.7141,-0.642,-0.5394,0.0,0.0,0.0,0.0,0.0,0.0,0.0,0.0,0.0,0.0,-1.0495,-1.0559,-1.18,-1.2124,-1.2131,-1.1814,-1.2843,-1.3364,-1.239,-1.2021,-1.1757,0.0,0.0,0.0,0.0,0.0,0.0,0.0,0.0,0.0,0.0,0.0,0.0,0.0,0.0,0.0,0.0,0.0,0.0,0.0,0.0,0.0,0.0,0.0,0.0,0.0,0.0,0.0,-1.1713,-1.1037,0.0,0.0,0.0,0.0,0.0,0.0,0.0,0.0,0.0,0.0,0.0,-1.1353,-1.1864,0.0,0.0,0.0,0.0,0.0,0.0,0.0,0.0,0.0,0.0,0.0,0.0,-0.9014,-1.0343,-1.0418,-1.0432,-1.0432,-1.0431,-1.0256,-0.9905,-0.9566,-0.9214,-0.8851,0.0,0.0,0.0,0.0,0.0,0.0,0.0,0.0,0.0,0.0,0.0,0.0,0.0,0.0,0.0,0.0,0.0,0.0,0.0,0.0,0.0,0.0,0.0,0.0,0.0,-0.6277,0.0,0.0,0.0,0.0,0.0,0.0,0.0,0.0,0.0,0.0,0.0,-1.1237,-1.238,-1.2355,-1.2507,-1.3331,-1.2875,-1.2364,0.0,0.0,0.0,0.0,0.0,0.0,0.0,0.0,0.0,0.0,0.0,0.0,0.0,0.0,-1.2136,-0.9996,-0.9135,-0.8673,-0.8461,0.0,0.0,0.0,0.0,0.0,0.0,0.0,0.0,0.0,0.0,0.0,0.0,0.0,0.0,-1.2914,0.0,-1.2241,0.0,0.0,0.0,0.0,0.0,0.0,0.0,0.0,-1.2395,-1.2747,-1.2759,-1.3094,-1.2981,0.0,-1.2454,-1.1861,0.0,0.0,0.0,0.0,0.0,0.0,0.0,0.0,-0.9366,-1.0921,-1.0808,-1.0794,-1.0996,-1.1008,-1.0759,-1.0207,-0.9667,-0.9126,-0.8587,-0.8375,-0.8277,0.0,0.0,0.0,0.0,0.0,0.0,0.0,0.0,0.0,0.0,0.0,0.0,0.0,0.0,0.0,0.0,0.0,0.0,0.0,0.0,0.0,0.0,0.0,-0.7225,0.0,0.0,0.0,0.0,0.0,0.0,0.0,0.0,0.0,-0.9449,-1.0564,-1.1706,-1.2843,-1.2701,-1.2897,-1.4056,0.0,0.0,0.0,0.0,0.0,0.0,0.0,-1.2871,-1.2742,-1.2309,-1.175,-1.1153,-1.1674,-1.2052,-1.1541,0.0,0.0,-1.0632,-0.9855,-0.945,-0.945,-0.9357,-0.9346,-0.95,-0.9644,-0.9792,0.0,0.0,0.0,0.0,0.0,0.0,0.0,0.0,-1.3386,-1.3684,0.0,-1.3521,0.0,0.0,0.0,0.0,0.0,-1.3322,0.0,0.0,-1.4368,-1.4884,-1.4859,-1.4846,-1.4626,-1.4186,-1.5097,-1.4488,-1.2416,-1.0321,0.0,0.0,0.0,0.0,0.0,0.0,-0.9982,-1.1553,-1.1071,-1.106,-1.1588,-1.1628,-1.1324,-1.0706,-1.0181,-0.9667,-0.9176,-0.9554,-0.9391,-0.8411,-0.8273,0.0,0.0,0.0,0.0,0.0,0.0,0.0,0.0,0.0,0.0,0.0,0.0,0.0,0.0,0.0,0.0,0.0,0.0,0.0,0.0,-0.8388,0.0,0.0,0.0,0.0,0.0,0.0,0.0,0.0,0.0,0.0,-1.0106,-1.057,-1.1217,-1.2371,0.0,0.0,0.0,0.0,-1.2906,-1.4854,-1.5201,-1.5196,-1.5075,-1.4838,-1.4197,-1.283,0.0,0.0,-1.1254,-1.1903,-1.2273,-1.1559,-1.1535,-1.1848,-1.2661,-1.2047,-1.1592,-1.1599,-1.1342,-1.1319,-1.1142,-1.1241,-1.1525,-1.7049,0.0,0.0,0.0,0.0,-1.6019,-1.6195,-1.6208,-1.6195,-1.5839,-1.5211,-1.4638,0.0,0.0,0.0,0.0,0.0,0.0,-1.4406,-1.4965,-1.4934,-1.4884,-1.4884,-1.4884,-1.4808,-1.4689,-1.4972,-1.4614,-1.3619,-1.2977,-1.158,-0.9504,0.0,0.0,0.0,0.0,-1.1299,-1.2102,-1.1999,-1.2015,-1.2165,-1.2162,-1.1698,-1.0719,-1.0557,-1.0206,-0.9692,-0.9453,-0.9378,-0.9428,-0.8302,0.0,0.0,0.0,0.0,0.0,0.0,0.0,0.0,0.0,0.0,0.0,0.0,0.0,0.0,0.0,0.0,0.0,0.0,0.0,-0.7291,-0.7691,-0.8024,0.0,0.0,0.0,0.0,0.0,0.0,0.0,0.0,0.0,-1.1673,-1.2582,-1.3452,0.0,0.0,-1.4711,-1.5713,-1.4846,-1.4216,-1.4583,0.0,0.0,0.0,-1.3297,-1.3036,-1.2849,-1.2228,-1.1783,-1.1927,-1.1638,-1.1411,-1.1521,-1.1298,-1.1186,-1.1406,-1.1052,-1.0708,-1.0633,-1.0336,-1.0306,-1.0814,-1.0835,-1.08,-1.9083,-1.8103,-1.744,-1.7165,-1.719,-1.7564,-1.7714,-1.7702,-1.7714,-1.7438,-1.6964,-1.6434,-1.5819,-1.5159,-1.472,0.0,0.0,0.0,-1.5751,-1.638,-1.6053,-1.5889,-1.5864,-1.5651,-1.5404,-1.5236,-1.5417,-1.5148,-1.4425,-1.4865,-1.3866,-1.1653,0.0,0.0,-1.1259,-1.1688,-1.2174,-1.2676,-1.2513,-1.25,-1.2701,-1.25,-1.2074,-1.141,-1.0931,-1.0543,-1.0231,-0.9905,-0.9792,-0.988,-0.9141,-0.859,0.0,0.0,0.0,0.0,0.0,0.0,0.0,0.0,0.0,0.0,0.0,-0.4444,0.0,0.0,0.0,0.0,-0.6189,-0.7545,-0.8604,-0.8916,0.0,0.0,0.0,0.0,0.0,0.0,0.0,-1.1776,-1.213,-1.2398,-1.2741,-1.3772,-1.445,-1.4306,-1.4597,-1.5157,-1.6061,0.0,-1.4771,-1.4926,-1.4769,-1.4417,-1.3847,-1.3412,-1.3098,-1.2869,-1.233,-1.1965,-1.2214,-1.1809,-1.1561,-1.1757,-1.1654,-1.1457,-1.1457,-1.1219,-1.0961,-1.0776,-1.0547,-1.0601,-1.1323,-1.124,-1.1107,-2.0729,-2.0641,-1.9095,-1.8368,-1.8267,-1.8317,-1.8293,-1.8267,-1.8243,-1.8531,-1.8958,-1.8431,-1.8204,-1.8105,-1.7102,0.0,-1.5994,-1.7021,-1.7473,-1.7524,-1.7463,-1.7473,-1.7413,-1.6861,-1.6321,-1.5864,-1.6296,-1.5994,-1.511,-1.6019,-1.5768,-1.4406,-1.3792,-1.3448,-1.3265,-1.2814,-1.2814,-1.3265,-1.2789,-1.2751,-1.3173,-1.2714,-1.2425,-1.2328,-1.1322,-1.077,-1.0706,-1.0708,-1.0482,-1.0018,-1.0394,-0.9955,-0.8513,0.0,0.0,0.0,0.0,0.0,0.0,0.0,0.0,0.0,0.0,0.0,0.0,0.0,0.0,0.0,-0.8008,0.0,-1.0543,-1.1186,0.0,0.0,0.0,-1.0632,-1.027,-1.1087,-1.1876,-1.245,0.0,0.0,-1.3416,0.0,-1.4598,-1.3488,-1.3545,-1.4191,-1.5557,-1.5034,-1.4771,-1.5614,-1.5398,-1.5096,-1.4937,-1.4549,-1.3866,-1.2987,-1.2563,-1.2361,-1.2359,-1.2297,-1.2297,-1.2328,-1.2328,-1.2276,-1.2287,-1.2193,-1.2183,-1.1757,-1.1643,-1.1767,-1.2131,-1.2204,-1.2172,-2.0943,-2.1282,-2.0865,-1.9987,-1.8845,-1.9258,-1.9171,-1.882,-1.8807,-1.8882,-1.897,-1.8431,-1.8204,-1.8168,-1.7928,-1.7942,-1.8205,-1.8078,-1.8229,-1.8581,-1.8204,-1.8016,-1.7978,-1.7438,-1.7112,-1.6983,-1.6672,-1.6384,-1.6124,-1.6362,-1.6547,-1.6606,-1.648,-1.5542,-1.3954,-1.4167,-1.4155,-1.3896,-1.3758,-1.3539,-1.321,-1.306,-1.2626,-1.1816,-1.1525,-1.1159,-1.0733,-1.0708,-1.0643,-1.0507,-1.0244,-0.9918,-0.9541,-0.8614,0.0,0.0,0.0,0.0,0.0,0.0,0.0,0.0,0.0,-0.7241,-0.6101,0.0,-0.8175,0.0,-0.9767,-1.0269,-1.0119,-1.0596,0.0,0.0,-1.1814,-1.1842,-1.2952,-1.2583,-1.2592,-1.3594,-1.3831,-1.4069,-1.4461,-1.4754,-1.4817,-1.4551,-1.4931,-1.5502,-1.6177,-1.5471,-1.5081,-1.5622,-1.5367,-1.5053,-1.5038,-1.4705,-1.4061,-1.3102,-1.2868,-1.2808,-1.2776,-1.2482,-1.239,-1.2658,-1.2493,-1.2328,-1.2328,-1.2297,-1.24,-1.2523,-1.2359,-1.2172,-1.2287,-1.2318,-1.2307,-2.1245,-2.1468,-2.1257,-2.0451,-1.9409,-2.0225,-2.0388,-2.0112,-1.9861,-1.9761,-1.9723,-1.9158,-1.8781,-1.8544,-1.8544,-1.8719,-1.897,-1.8669,-1.8857,-1.9334,-1.8807,-1.8556,-1.8519,-1.8003,-1.7752,-1.7727,-1.7174,-1.6898,-1.6886,-1.6613,-1.6672,-1.6986,-1.676,-1.6166,-1.5236,-1.5726,-1.5726,-1.5173,-1.467,-1.4042,-1.3235,-1.321,-1.304,-1.2738,-1.2441,-1.2291,-1.2203,-1.1961,-1.1695,-1.1445,-1.1171,-1.0783,-1.0295,-0.9692,-0.9153,0.0,0.0,0.0,0.0,0.0,0.0,0.0,0.0,0.0,0.0,0.0,-0.9466,0.0,-1.0935,-1.1286,-1.1744,-1.2043,-1.2492,-1.3123,-1.2906,-1.2973,-1.3639,-1.337,-1.3488,-1.4349,-1.445,-1.4563,-1.4846,-1.511,-1.5261,-1.5261,-1.5559,-1.5879,-1.6081,-1.5839,-1.57,-1.5772,-1.5536,-1.5201,-1.4869,-1.436,-1.3871,-1.3409,-1.3268,-1.3263,-1.3232,-1.3031,-1.2958,-1.3155,-1.3008,-1.2877,-1.2887,-1.2865,-1.2958,-1.3103,-1.3041,-1.2908,-1.2898,-1.2855,-1.2887,-2.1644,-2.1656,-2.1207,-2.069,-2.03,-2.1292,-2.1543,-2.123,-2.0792,-2.0629,-2.0666,-2.0125,-1.9698,-1.9321,-1.9246,-1.9208,-1.9208,-1.9133,-1.9346,-1.9761,-1.9309,-1.9108,-1.9083,-1.8568,-1.8293,-1.8292,-1.7752,-1.7498,-1.7463,-1.6911,-1.6672,-1.671,-1.6195,-1.6183,-1.6722,-1.726,-1.7174,-1.6488,-1.5525,-1.4507,-1.3448,-1.3473,-1.3709,-1.4065,-1.3584,-1.3559,-1.4065,-1.3584,-1.3102,-1.2655,-1.2601,-1.2062,-1.0908,-1.0869,-1.0394,0.0,-0.9277,0.0,0.0,0.0,0.0,0.0,0.0,0.0,0.0,-0.9717,-1.0759,-1.1525,-1.1854,-1.2558,-1.3876,-1.4128,-1.4004,-1.3574,-1.3928,-1.4004,-1.3604,-1.3928,-1.4374,-1.4865,-1.4884,-1.4896,-1.5022,-1.5424,-1.5726,-1.5785,-1.5865,-1.5926,-1.5865,-1.6123,-1.6191,-1.592,-1.5888,-1.5642,-1.4971,-1.4317,-1.398,-1.3873,-1.375,-1.3692,-1.3579,-1.3589,-1.36,-1.36,-1.3569,-1.3569,-1.361,-1.3589,-1.3589,-1.3579,-1.3548,-1.3538,-1.3548,-1.3538,-1.361,-2.2393,-2.2811,-2.2681,-2.2581,-2.2493,-2.2706,-2.1766,-2.0112,-2.0038,-2.0225,-2.0679,-2.0578,-2.0717,-2.0966,-2.0591,-2.0377,-2.0352,-1.9861,-1.9685,-1.9798,-1.9698,-1.966,-1.9623,-1.912,-1.8845,-1.8807,-1.8293,-1.8041,-1.8041,-1.7488,-1.7451,-1.7865,-1.736,-1.7338,-1.7865,0.0,0.0,0.0,-1.5881,-1.5248,-1.4632,-1.499,-1.4871,-1.4141,-1.3984,0.0,-1.4091,-1.3984,-1.3896,-1.3783,-1.377,0.0,0.0,0.0,0.0,0.0,0.0,0.0,0.0,0.0,0.0,0.0,-1.1811,-1.1234,-1.0381,-1.2118,-1.2822,-1.1779,-1.3242,-1.4029,-1.3441,-1.4217,-1.4884,-1.5178,-1.4934,-1.4859,-1.5153,-1.4947,-1.4783,-1.4871,-1.4896,-1.5072,-1.548,-1.563,-1.5869,-1.6237,-1.6361,-1.6364,-1.635,-1.6142,-1.6064,-1.6293,-1.6315,-1.6293,-1.6129,-1.5611,-1.5017,-1.4892,-1.4489,-1.4093,-1.3681,-1.361,-1.361,-1.361,-1.361,-1.361,-1.361,-1.361,-1.361,-1.361,-1.361,-1.361,-1.361,-1.361,-1.361,-2.2443,0.0,-2.2694,-2.2543,0.0,-2.2594,-2.1904,-2.0652,-2.0916,-2.1054,-2.1094,-2.1094,-2.1257,-2.1496,-2.1219,-2.1094,-2.1069,-2.0515,-2.0264,-2.0239,-1.9936,-1.9798,-1.9798,-1.9522,-1.9384,-1.9371,-1.8869,-1.8594,-1.8581,-1.8053,-1.7813,-1.779,-1.7513,-1.7375,-1.7375,-1.7353,-1.7087,-1.65,-1.6245,-1.5693,-1.4934,-1.4916,-1.4916,-1.4878,0.0,0.0,0.0,0.0,0.0,0.0,0.0,0.0,0.0,0.0,0.0,-1.203,-1.2231,-1.2241,-1.1961,-1.1698,-1.1798,-1.2363,-1.2663,-1.2676,-1.2379,-1.3174,-1.3551,-1.3287,-1.4286,-1.467,-1.4136,-1.4551,-1.5029,-1.5261,-1.506,-1.511,-1.5555,-1.5462,-1.5412,-1.563,-1.5701,-1.5806,-1.6057,-1.6107,-1.6195,-1.645,-1.6513,-1.6513,-1.65,-1.6315,-1.6259,-1.6445,-1.6259,-1.6076,-1.5812,-1.5423,-1.4949,-1.4455,-1.4163,-1.3928,-1.3658,-1.361,-1.361,-1.361,-1.361,-1.361,-1.361,-1.361,-1.361,-1.361,-1.361,-1.361,-1.361,-1.361,-1.361,-2.246,-2.2431,-2.2418,-2.2184,-2.1807,-2.2259,-2.2209,-2.1807,0.0,0.0,0.0,-2.1631,-2.171,-2.1769,-2.1681,-2.1581,-2.1483,-2.0955,-2.0691,-2.0666,-2.0101,-1.9861,-1.9949,-1.9849,-1.9798,-1.9773,-1.9334,-1.9133,-1.9121,-1.8594,-1.8129,-1.7725,-1.7599,-1.7237,-1.6688,-1.666,-1.6622,-1.6513,-1.6622,-1.6183,-1.5211,-1.4853,-1.5047,-1.5831,-1.4916,-1.4796,-1.5643,-1.4765,-1.4223,-1.4223,-1.376,-1.3398,-1.3235,-1.3778,-1.4015,-1.3821,-1.3984,-1.3896,-1.3391,-1.3027,-1.2655,-1.2206,-1.309,-1.3822,-1.4211,-1.3785,-1.388,-1.4821,-1.4972,-1.5047,-1.5054,-1.5135,-1.5185,-1.5173,-1.5185,-1.5387,-1.5781,-1.5844,-1.6007,-1.6412,-1.645,-1.65,-1.6475,-1.6475,-1.655,-1.6626,-1.6701,-1.6701,-1.6738,-1.6629,-1.6479,-1.6479,-1.6238,-1.5844,-1.5434,-1.5074,-1.4478,-1.4281,-1.4025,-1.3871,-1.3881,-1.3847,-1.3871,-1.3965,-1.3834,-1.3787,-1.3752,-1.3681,-1.361,-1.361,-1.361,-1.361,-1.361,-1.361,-1.361,-2.2982,-2.2995,-2.2995,-2.2945,-2.2882,-2.2957,-2.2932,-2.2794,-2.1995,-2.1832,-2.2196,-2.2196,-2.2431,-2.2844,-2.241,-2.1933,-2.1468,-2.0955,-2.0691,0.0,-2.0101,-2.0062,-2.0528,-2.0063,-1.9798,-1.9798,-1.9736,-1.9698,-1.9635,-1.9133,-1.8845,-1.8719,-1.8317,-1.7802,-1.73,-1.7285,-1.7011,-1.6525,-1.7011,-1.6936,-1.63,-1.6706,-1.6757,-1.6375,-1.5781,-1.555,-1.5668,-1.5097,-1.4783,-1.479,-1.4695,-1.4212,-1.3298,-1.379,-1.3657,-1.278,-1.3551,-1.4065,-1.3997,-1.4318,-1.4525,-1.4481,-1.5009,-1.5191,-1.4821,-1.4727,-1.4733,-1.4909,-1.5336,-1.5567,-1.5618,-1.5969,-1.622,-1.6245,-1.6249,-1.6321,-1.6371,-1.6371,-1.6375,-1.6488,-1.6513,-1.6513,-1.6513,-1.6525,-1.6726,-1.7112,-1.7225,-1.7413,-1.7614,-1.7124,-1.6563,-1.6513,-1.6457,-1.638,-1.6181,-1.5901,-1.5547,-1.5522,-1.5074,-1.4766,-1.4834,-1.4777,-1.4766,-1.4857,-1.4535,-1.4326,-1.428,-1.3905,-1.3729,-1.3681,-1.3668,-1.3658,-1.3634,-1.361,-1.361,-2.3095,-2.3095,-2.3095,-2.3095,-2.3095,-2.3095,-2.3095,-2.3058,-2.2569,-2.2493,-2.2719,-2.2732,-2.2869,-2.307,-2.2844,-2.2594,-2.2359,-2.1807,-2.1568,-2.1521,-2.0691,-2.0564,-2.1018,-2.0239,-1.9974,-2.0251,-1.9949,-1.9798,-1.9773,-1.9522,-1.9309,-1.8983,-1.848,-1.8066,-1.784,-1.7827,-1.7551,-1.7011,-1.6948,-1.6785,-1.6522,-1.6471,-1.6484,-1.6475,-1.5693,-1.5404,-1.568,-1.5185,-1.4884,-1.4884,-1.4884,-1.4657,-1.4174,-1.4657,-1.4745,-1.4249,-1.4683,-1.4959,-1.4979,-1.4928,-1.5022,-1.5311,-1.5542,-1.5869,-1.6229,-1.5668,-1.5442,-1.5743,-1.6007,-1.6124,-1.6145,-1.635,-1.6513,-1.6513,-1.6513,-1.6513,-1.6513,-1.6513,-1.6513,-1.6513,-1.6513,-1.6513,-1.6513,-1.6785,-1.7049,-1.7363,-1.7601,-1.794,-1.8191,-1.7802,-1.7426,-1.7415,-1.7438,-1.714,-1.6677,-1.6402,-1.6141,-1.5925,-1.5417,-1.5269,-1.5406,-1.5349,-1.5154,-1.5119,-1.4914,-1.4811,-1.4789,-1.4593,-1.4339,-1.4059,-1.4022,-1.3941,-1.3705,-1.361,-1.361,-2.3095,-2.3108,-2.3258,-2.3296,-2.3296,-2.3158,-2.3095,-2.3095,-2.3095,-2.3095,-2.3095,-2.3095,-2.3095,-2.3095,-2.3095,-2.3032,-2.2869,-2.2481,-2.2322,-2.2221,-2.132,-2.1182,-2.1531,-2.0639,-2.0351,-2.0616,-2.0226,-1.9936,-1.9811,-1.9798,-1.961,-1.9171,-1.8769,-1.8505,-1.8368,-1.838,-1.8116,-1.7586,-1.7124,-1.6773,-1.6488,-1.6095,-1.6095,-1.6387,-1.558,-1.5273,-1.5663,-1.5185,-1.4884,-1.4884,-1.4884,-1.4884,-1.4909,-1.5299,-1.5505,-1.5517,-1.563,-1.5756,-1.5844,-1.5492,-1.5512,-1.604,-1.607,-1.6497,-1.736,-1.6773,-1.6434,-1.6823,-1.6911,-1.6889,-1.6914,-1.6901,-1.6876,-1.6876,-1.6898,-1.6961,-1.6889,-1.6876,-1.6864,-1.6876,-1.6889,-1.6923,-1.6986,-1.7287,-1.7649,-1.784,-1.8229,-1.8543,-1.8568,-1.8544,-1.8568,-1.8505,-1.838,-1.7922,-1.7115,-1.6984,-1.6879,-1.6456,-1.6173,-1.6184,-1.6338,-1.6103,-1.588,-1.5949,-1.5776,-1.566,-1.5521,-1.5453,-1.5199,-1.475,-1.4658,-1.4562,-1.3973,-1.3973,-1.3857,-2.312,-2.3183,-2.3715,-2.3916,-2.3866,-2.3358,-2.3145,-2.3145,-2.3108,-2.3095,-2.317,-2.3108,-2.3133,-2.3095,-2.3095,-2.2844,-2.2431,-2.2318,-2.2334,-2.2272,-2.1707,-2.1707,-2.2146,-2.1594,-2.1119,-2.0779,-2.0654,-2.0352,-1.9874,-1.9811,-1.9773,-1.9736,-1.9673,-1.9397,-1.8983,-1.8933,-1.8657,-1.8141,-1.8078,-1.7564,-1.6575,-1.6471,-1.6459,-1.6509,-1.5944,-1.5663,-1.5718,-1.5185,-1.4896,-1.4884,-1.4921,-1.4909,-1.4921,-1.4979,-1.4984,-1.5054,-1.5462,-1.5894,-1.6396,-1.6375,-1.6609,-1.7172,-1.72,-1.7463,-1.8053,-1.8016,-1.7978,-1.8041,-1.8053,-1.7953,-1.8041,-1.799,-1.7904,-1.7867,-1.7904,-1.8041,-1.7965,-1.8041,-1.8053,-1.8053,-1.7892,-1.8041,-1.794,-1.8041,-1.8317,-1.8719,-1.9158,-1.9459,-1.9472,-1.9484,-1.9497,-1.9409,-1.8894,-1.8316,-1.814,-1.8116,-1.7986,-1.802,-1.7959,-1.7792,-1.7733,-1.7781,-1.7851,-1.7296,-1.7373,-1.6955,-1.6645,-1.648,-1.6193,-1.5544,-1.5416,-1.5424,-1.4687,-1.4638,-1.4599,-2.4098,-2.4123,-2.4349,-2.4494,-2.4443,-2.4186,-2.4098,-2.4098,-2.413,-2.4098,-2.4111,-2.4098,-2.3735,-2.3108,-2.3095,-2.297,-2.2782,-2.2769,-2.2769,-2.2719,-2.2205,-2.223,-2.2631,-2.1882,-2.1506,-2.1606,-2.1345,-2.0893,-2.0365,-1.9974,-1.9798,-1.9798,-1.9798,-1.9685,-1.9497,-1.9484,-1.9196,-1.8682,-1.8669,-1.8281,-1.7591,-1.7513,-1.734,-1.7049,-1.681,-1.6509,-1.6208,-1.5957,-1.5844,-1.5844,-1.5844,-1.5831,-1.5844,-1.5856,-1.5844,-1.5881,-1.6405,-1.6936,-1.7476,-1.7491,-1.7614,-1.7865,-1.7865,-1.8091,-1.8607,-1.8669,-1.8782,-1.9032,-1.8581,-1.8204,-1.8216,-1.8204,-1.8204,-1.8204,-1.8204,-1.8216,-1.8204,-1.8216,-1.8204,-1.8204,-1.8204,-1.8216,-1.823,-1.8469,-1.887,-1.9346,-1.9698,-1.9786,-1.9798,-1.9798,-1.9798,-1.9761,-1.9397,-1.9045,-1.8842,-1.8718,-1.8718,-1.8703,-1.8488,-1.8373,-1.863,-1.8439,-1.8286,-1.8265,-1.81,-1.7882,-1.7609,-1.7529,-1.7327,-1.6669,-1.5929,-1.5755,-1.5332,-1.5189,-1.4862,-2.48,-2.48,-2.48,-2.4908,-2.4988,-2.485,-2.48,-2.48,-2.48,-2.48,-2.48,-2.48,-2.4349,-2.3647,-2.3572,-2.3559,-2.3547,-2.3409,-2.3333,-2.3271,-2.2799,-2.2732,-2.2995,-2.2347,-2.2071,-2.2209,-2.1895,-2.1355,-2.0742,-2.0439,-2.0112,-1.9874,-1.9962,-1.9962,-1.9811,-1.9798,-1.9623,-1.9246,-1.9208,-1.9008,-1.8681,-1.8631,-1.8304,-1.7712,-1.7624,-1.7413,-1.6989,-1.6974,-1.6951,-1.6964,-1.6986,-1.6951,-1.6986,-1.6964,-1.6964,-1.6989,-1.7363,-1.7765,-1.8179,-1.8204,-1.8279,-1.8381,-1.8406,-1.8656,-1.9083,-1.9221,-1.9384,-1.9622,-1.9095,-1.8681,-1.8643,-1.8643,-1.8643,-1.8643,-1.8643,-1.8643,-1.8668,-1.8619,-1.8681,-1.8643,-1.8744,-1.8643,-1.8706,-1.897,-1.9371,-1.9672,-1.9786,-1.9798,-1.9798,-1.9798,-1.9798,-1.9798,-1.9786,-1.9661,-1.9396,-1.9321,-1.9296,-1.9283,-1.9078,-1.8992,-1.9196,-1.8929,-1.8801,-1.8945,-1.8719,-1.8531,-1.8396,-1.8384,-1.8434,-1.7922,-1.7295,-1.6548,-1.6109,-1.5818,-1.5499,-2.48,-2.4825,-2.48,-2.5126,-2.5523,-2.5071,-2.4825,-2.4946,-2.485,-2.4825,-2.4908,-2.4895,-2.4775,-2.4745,-2.4713,-2.47,-2.4644,-2.418,-2.3954,-2.3904,-2.3364,-2.3083,-2.3095,-2.3045,-2.2769,-2.241,-2.2322,-2.1757,-2.0842,-2.1169,-2.0865,-1.9911,-2.0363,-2.0377,-1.9886,-1.9836,-1.9798,-1.9723,-1.9723,-1.9723,-1.9698,-1.9685,-1.9183,-1.8317,-1.8179,-1.8129,-1.8066,-1.8103,-1.808,-1.8103,-1.8053,-1.8078,-1.8067,-1.8078,-1.8053,-1.8103,-1.8141,-1.8179,-1.8254,-1.8292,-1.8456,-1.887,-1.897,-1.9171,-1.9623,-1.9685,-1.9723,-1.9798,-1.9685,-1.961,-1.961,-1.9535,-1.9585,-1.961,-1.966,-1.9648,-1.9673,-1.956,-1.971,-1.966,-1.9585,-1.9547,-1.9648,-1.9748,-1.9723,-1.9786,-1.9798,-1.9798,-1.9798,-1.9798,-1.9798,-1.9798,-1.9824,-1.9863,-2.0042,-1.9864,-1.9902,-1.9902,-1.9737,-1.9775,-1.9762,-1.9736,-1.9698,-1.9661,-1.951,-1.9359,-1.9158,-1.9133,-1.9221,-1.8983,-1.8709,-1.8074,-1.7164,-1.7154,-1.68,-2.5862,-2.5875,-2.5908,-2.6021,-2.6147,-2.5937,-2.5896,-2.5862,-2.5875,-2.5908,-2.5908,-2.5862,-2.5908,-2.5908,-2.5896,-2.5473,-2.4813,-2.4575,-2.4499,-2.4456,-2.3923,-2.369,-2.3609,-2.3296,-2.3032,-2.2844,-2.2807,-2.246,-2.1769,-2.1581,-2.1144,-2.0603,-2.0943,-2.0727,-2.0024,-2.0201,-2.0214,-1.9836,-1.9798,-1.9798,-1.9798,-1.9798,-1.9597,-1.9246,-1.8882,-1.8544,-1.8216,-1.8204,-1.8204,-1.8204,-1.8204,-1.8204,-1.8204,-1.8204,-1.8343,-1.8657,-1.8707,-1.8882,-1.9171,-1.9221,-1.9309,-1.9484,-1.9522,-1.9572,-1.9761,-1.9798,-1.9798,-1.9798,-1.9798,-1.9798,-1.9798,-1.9798,-1.9798,-1.9798,-1.9798,-1.9798,-1.9798,-1.9798,-1.9798,-1.9798,-1.9798,-1.9798,-1.9798,-1.9798,-1.9798,-1.9798,-1.9798,-1.9798,-1.9798,-1.9798,-1.9798,-1.9798,-1.9798,-1.9862,-2.0029,-2.0029,-2.0003,-2.008,-2.008,-2.0105,-2.0093,-2.0016,-1.9953,-1.9851,-1.9875,-1.9786,-1.9485,-1.9472,-1.9623,-1.9572,-1.932,-1.8903,-1.8277,-1.799,-1.7634,-2.6487,-2.6487,-2.6487,-2.6487,-2.6487,-2.6487,-2.6487,-2.6487,-2.6487,-2.6487,-2.6487,-2.6487,-2.6487,-2.6487,-2.6487,-2.6135,-2.5372,-2.5159,-2.5071,-2.5021,-2.4519,-2.4167,-2.3954,-2.3559,-2.3271,-2.3133,-2.3095,-2.2819,-2.233,-2.2121,-2.1644,-2.1018,-2.1481,-2.1204,-2.0365,-2.0515,-2.0402,-1.9936,-1.9974,-2.0038,-1.9861,-1.9987,-1.9974,-1.9786,-1.9459,-1.9096,-1.8719,-1.8719,-1.8719,-1.8719,-1.8694,-1.8719,-1.8731,-1.8731,-1.8882,-1.9208,-1.9259,-1.9396,-1.9736,-1.9798,-1.9798,-1.9798,-1.9798,-1.9798,-1.9798,-1.9798,-1.9798,-1.9798,-1.9798,-1.9798,-1.9798,-1.9798,-1.9798,-1.9798,-1.9798,-1.9798,-1.9798,-1.9798,-1.9798,-1.9798,-1.9798,-1.9798,-1.9798,-1.9798,-1.9798,-1.9798,-1.9798,-1.9798,-1.9798,-1.9837,-1.9862,-1.9888,-1.9914,-1.9978,-2.0105,-2.0156,-2.0067,-2.0118,-2.0144,-2.022,-2.0246,-2.0195,-2.0144,-2.0067,-1.9978,-1.9914,-1.9888,-1.9824,-1.9798,-1.9773,-1.9607,-1.9251,-1.8859,-1.8626,-1.8223,-2.6487,-2.6487,-2.6487,-2.6487,-2.6487,-2.6487,-2.6487,-2.6487,-2.6487,-2.6487,-2.6487,-2.6487,-2.6487,-2.6487,-2.6487,-2.6449,-2.6273,-2.5845,-2.5611,-2.5548,-2.5071,-2.4569,-2.4155,-2.4054,-2.3715,-2.3221,-2.3145,-2.2844,-2.2435,-2.2706,-2.246,-2.1757,-2.2046,-2.1769,-2.0704,-2.0779,-2.0503,-2.01,-2.0377,-2.0365,-1.9936,-2.0289,-2.0289,-1.9861,-1.9761,-1.9723,-1.971,-1.971,-1.9673,-1.9685,-1.9698,-1.9773,-1.9673,-1.9673,-1.9748,-1.9723,-1.9761,-1.9786,-1.9786,-1.9798,-1.9798,-1.9798,-1.9798,-1.9798,-1.9798,-1.9798,-1.9798,-1.9798,-1.9798,-1.9798,-1.9798,-1.9798,-1.9798,-1.9798,-1.9798,-1.9798,-1.9798,-1.9798,-1.9798,-1.9798,-1.9798,-1.9798,-1.9798,-1.9798,-1.9798,-1.9798,-1.9798,-1.9798,-1.9798,-1.9875,-1.9952,-2.0003,-2.0029,-2.0067,-2.0207,-2.0309,-2.0195,-2.0118,-2.0144,-2.0195,-2.022,-2.0169,-2.0144,-2.0067,-2.0054,-1.9991,-1.9888,-1.9862,-1.9837,-1.9785,-1.9682,-1.9566,-1.9331,-1.9042,-1.8804,-2.6487,-2.6487,-2.6487,-2.6487,-2.6487,-2.6487,-2.6487,-2.6487,-2.6487,-2.6487,-2.6487,-2.6487,-2.6487,-2.6487,-2.6487,-2.6487,-2.6474,-2.6298,-2.6223,-2.6122,-2.5611,-2.5259,-2.5034,-2.472,-2.4236,-2.3803,-2.3728,-2.3396,-2.2957,-2.302,-2.2706,-2.2284,-2.2581,-2.2284,-2.1317,-2.1568,-2.1368,-2.0553,-2.0603,-2.0415,-1.9861,-1.9987,-1.9987,-1.9823,-1.9798,-1.9798,-1.9798,-1.9798,-1.9798,-1.9798,-1.9798,-1.9798,-1.9811,-1.9798,-1.9798,-1.9798,-1.9798,-1.9798,-1.9811,-1.9798,-1.9798,-1.9798,-1.9798,-1.9798,-1.9798,-1.9798,-1.9798,-1.9798,-1.9798,-1.9798,-1.9798,-1.9798,-1.9861,-1.9811,-1.9798,-1.9798,-1.9798,-1.9798,-1.9798,-1.9798,-1.9798,-1.9798,-1.9798,-1.9798,-1.9811,-1.9849,-1.9836,-1.9836,-1.9849,-1.9988,-1.9862,-1.9888,-1.9978,-2.0233,-2.0361,-2.0515,-2.0515,-2.0374,-2.0322,-2.0284,-2.0246,-2.0169,-2.0144,-2.0118,-2.008,-2.0029,-1.9952,-1.9875,-1.9862,-1.9837,-1.9747,-1.9669,-1.9592,-1.941,-1.9188,-2.6487,-2.6487,-2.6487,-2.6487,-2.6487,-2.6487,-2.6487,-2.6487,-2.6487,-2.6487,-2.6487,-2.6487,-2.6487,-2.6487,-2.6487,-2.6487,-2.6487,-2.6487,-2.6487,-2.6449,-2.616,-2.5812,-2.5561,-2.5059,-2.4499,-2.4092,-2.3991,-2.3703,-2.312,-2.3083,-2.2932,-2.2719,-2.2945,-2.2656,-2.1895,-2.2096,-2.1845,-2.1131,-2.1194,-2.1031,-2.0589,-2.0627,-2.0627,-2.0476,-2.0426,-2.0326,-2.0189,-2.0125,-2.0012,-1.9849,-1.9798,-1.9886,-2.0075,-2.0137,-2.02,-2.0351,-2.0238,-2.0163,-2.01,-1.9936,-1.9798,-1.9798,-1.9798,-1.9798,-1.9798,-1.9798,-1.9798,-1.9798,-2.0038,-2.0125,-2.015,-2.0351,-2.0413,-2.0439,-2.0037,-1.9836,-1.9798,-1.9798,-1.9798,-1.9798,-1.9798,-1.9798,-1.9798,-1.9798,-1.9911,-2.0037,-2.0125,-2.0275,-2.0365,-2.0517,-2.048,-2.0533,-2.0804,-2.0871,-2.0604,-2.0694,-2.0849,-2.0695,-2.054,-2.045,-2.0385,-2.0246,-2.0169,-2.0118,-2.0093,-2.0029,-1.9952,-1.9901,-1.9862,-1.9837,-1.9798,-1.9747,-1.9695,-1.9721,-1.9566,-2.6487,-2.6487,-2.6487,-2.6487,-2.6487,-2.6487,-2.6487,-2.6487,-2.6487,-2.6487,-2.6487,-2.6487,-2.6487,-2.6487,-2.6487,-2.6487,-2.6487,-2.6487,-2.6487,-2.6487,-2.6399,-2.6185,-2.5711,-2.531,-2.4833,-2.4305,-2.4205,-2.3866,-2.3409,-2.3283,-2.3145,-2.317,-2.3095,-2.2869,-2.2431,-2.2359,-2.2133,-2.1681,-2.1983,-2.192,-2.1471,-2.1845,-2.1895,-2.1405,-2.1355,-2.1169,-2.0805,-2.0729,-2.044,-1.9899,-1.9798,-2.0012,-2.049,-2.0641,-2.0742,-2.1041,-2.0867,-2.0591,-2.0478,-2.0062,-1.9861,-1.9936,-1.9949,-1.9886,-2.0037,-2.0125,-2.0112,-2.0125,-2.0478,-2.0729,-2.0817,-2.1081,-2.1317,-2.1333,-2.0514,-1.9987,-1.9811,-1.9836,-1.9975,-1.9936,-1.9874,-1.9924,-2.0062,-2.0049,-2.0289,-2.0566,-2.0756,-2.0957,-2.1211,-2.1357,-2.1644,-2.1701,-2.1562,-2.1503,-2.1248,-2.1418,-2.1535,-2.1393,-2.116,-2.0927,-2.0643,-2.0412,-2.022,-2.0169,-2.0207,-2.0105,-1.999,-1.9939,-1.9862,-1.9824,-1.9798,-1.9798,-1.9811,-1.9811,-1.9974,-2.6487,-2.6487,-2.6487,-2.6487,-2.6487,-2.6487,-2.6487,-2.6487,-2.6487,-2.6487,-2.6487,-2.6487,-2.6487,-2.6487,-2.6487,-2.6487,-2.6487,-2.6487,-2.6487,-2.6487,-2.6487,-2.6424,-2.6285,-2.6122,-2.5732,-2.5184,-2.5059,-2.4883,-2.4349,-2.391,-2.3747,-2.3753,-2.3333,-2.307,-2.2895,-2.2869,-2.2594,-2.2171,-2.2209,-2.2083,-2.1656,-2.1669,-2.1644,-2.1518,-2.1531,-2.1471,-2.1307,-2.1295,-2.0817,-1.9886,-1.9798,-1.9849,-2.0137,-2.0201,-2.0365,-2.0464,-2.0275,-2.0087,-2.0075,-1.9949,-2.0024,-2.0415,-2.0465,-2.0614,-2.1029,-2.1029,-2.1041,-2.1066,-2.1245,-2.1307,-2.1292,-2.143,-2.1518,-2.1405,-2.0891,-2.0352,-2.0037,-2.0201,-2.0465,-2.0503,-2.0765,-2.0903,-2.0928,-2.0953,-2.1041,-2.1232,-2.1363,-2.1494,-2.1772,-2.1906,-2.2094,-2.2001,-2.1942,-2.1985,-2.2015,-2.2175,-2.2202,-2.2124,-2.1874,-2.1599,-2.1159,-2.0695,-2.0399,-2.0182,-2.0424,-2.0436,-2.0194,-2.0028,-1.9913,-2.0049,-1.9999,-2.0075,-1.9911,-1.9874,-2.0188,-2.6487,-2.6487,-2.6487,-2.6487,-2.6487,-2.6487,-2.6487,-2.6487,-2.6487,-2.6487,-2.6487,-2.6487,-2.6487,-2.6487,-2.6487,-2.6487,-2.6487,-2.6487,-2.6487,-2.6487,-2.6487,-2.6474,-2.6474,-2.6487,-2.6185,-2.5636,-2.5598,-2.5252,-2.48,-2.4481,-2.4336,-2.4243,-2.3778,-2.3471,-2.3446,-2.3195,-2.297,-2.2681,-2.2631,-2.2456,-2.2209,-2.2171,-2.2184,-2.2184,-2.2171,-2.2108,-2.187,-2.1619,-2.1182,-2.0652,-2.0526,-2.0602,-2.084,-2.0853,-2.0953,-2.1114,-2.1004,-2.0878,-2.0803,-2.0665,-2.0665,-2.0968,-2.1043,-2.1182,-2.138,-2.1481,-2.1481,-2.1455,-2.1681,-2.1807,-2.187,-2.202,-2.2046,-2.187,-2.1543,-2.1144,-2.0564,-2.0815,-2.1018,-2.1119,-2.1295,-2.1493,-2.1493,-2.1506,-2.1631,-2.1785,-2.1889,-2.2068,-2.2299,-2.2391,-2.2492,-2.2516,-2.2519,-2.2585,-2.2698,-2.2836,-2.2773,-2.2709,-2.2605,-2.2299,-2.1791,-2.1222,-2.1054,-2.0912,-2.0859,-2.0794,-2.0652,-2.0586,-2.0707,-2.0742,-2.0553,-2.0464,-2.0439,-2.0275,-2.0564,-2.6487,-2.6487,-2.6487,-2.6487,-2.6487,-2.6487,-2.6487,-2.6487,-2.6487,-2.6487,-2.6487,-2.6487,-2.6487,-2.6487,-2.6487,-2.6487,-2.6487,-2.6487,-2.6487,-2.6487,-2.6487,-2.6487,-2.6487,-2.6487,-2.6248,-2.5858,-2.5699,-2.5498,-2.5209,-2.5008,-2.4895,-2.477,-2.4343,-2.4104,-2.3979,-2.3534,-2.3271,-2.3321,-2.3246,-2.3183,-2.3108,-2.3083,-2.302,-2.2882,-2.2895,-2.2732,-2.2355,-2.202,-2.1681,-2.1656,-2.1556,-2.1594,-2.2046,-2.2146,-2.2297,-2.2418,-2.2096,-2.1933,-2.2058,-2.1518,-2.1496,-2.1571,-2.1581,-2.1631,-2.1757,-2.1857,-2.1845,-2.187,-2.2133,-2.2347,-2.2418,-2.2782,-2.2757,-2.2443,-2.2359,-2.2133,-2.1794,-2.1619,-2.1581,-2.1606,-2.1619,-2.1669,-2.1656,-2.1694,-2.1857,-2.2334,-2.2468,-2.264,-2.282,-2.2934,-2.3102,-2.3266,-2.3253,-2.3249,-2.3357,-2.3505,-2.335,-2.322,-2.3241,-2.3015,-2.2541,-2.2111,-2.1982,-2.1839,-2.1569,-2.1503,-2.1537,-2.1542,-2.1519,-2.1363,-2.1138,-2.1259,-2.1395,-2.1091,-2.1154,-2.6487,-2.6487,-2.6487,-2.6487,-2.6487,-2.6487,-2.6487,-2.6487,-2.6487,-2.6487,-2.6487,-2.6487,-2.6499,-2.6512,-2.6512,-2.6487,-2.6524,-2.6512,-2.6487,-2.6487,-2.6487,-2.6487,-2.6487,-2.6487,-2.6411,-2.6273,-2.6298,-2.6223,-2.6034,-2.5611,-2.5435,-2.536,-2.4946,-2.4612,-2.4569,-2.4117,-2.4042,-2.4249,-2.4029,-2.3753,-2.3703,-2.369,-2.3527,-2.3208,-2.312,-2.3058,-2.297,-2.2819,-2.2757,-2.2556,-2.2046,-2.1707,-2.182,-2.1807,-2.192,-2.2008,-2.1907,-2.1744,-2.1681,-2.1707,-2.1707,-2.2096,-2.2159,-2.2293,-2.2719,-2.2681,-2.2694,-2.2757,-2.2869,-2.2869,-2.2882,-2.2995,-2.3007,-2.2895,-2.2869,-2.2844,-2.2706,-2.2372,-2.2159,-2.2209,-2.2443,-2.2732,-2.2706,-2.2631,-2.2761,-2.2937,-2.3034,-2.3187,-2.3297,-2.3348,-2.3467,-2.3586,-2.3619,-2.3542,-2.3647,-2.3739,-2.3674,-2.3596,-2.3599,-2.3631,-2.3153,-2.2855,-2.2635,-2.2404,-2.2159,-2.2166,-2.2283,-2.2129,-2.2015,-2.1858,-2.1749,-2.186,-2.1892,-2.1738,-2.1716,-2.6487,-2.6487,-2.6487,-2.6487,-2.6487,-2.6487,-2.6487,-2.6487,-2.6487,-2.6487,-2.6487,-2.6487,-2.6637,-2.6839,-2.6637,-2.6612,-2.6763,-2.6587,-2.6487,-2.6487,-2.6487,-2.6487,-2.6487,-2.6487,-2.6487,-2.6487,-2.6474,-2.6487,-2.6386,-2.621,-2.6047,-2.5984,-2.546,-2.5209,-2.5109,-2.4644,-2.4381,-2.4305,-2.4167,-2.3891,-2.3609,-2.359,-2.3703,-2.3434,-2.3283,-2.3195,-2.3502,-2.3221,-2.312,-2.2957,-2.2543,-2.2259,-2.2259,-2.2259,-2.2259,-2.2259,-2.2259,-2.2259,-2.2272,-2.2272,-2.241,-2.2619,-2.2656,-2.2819,-2.3032,-2.3095,-2.3095,-2.3095,-2.3083,-2.3095,-2.3095,-2.3095,-2.3095,-2.3095,-2.3095,-2.3095,-2.3058,-2.2832,-2.2669,-2.2706,-2.2882,-2.3007,-2.3095,-2.3095,-2.3095,-2.3037,-2.317,-2.331,-2.325,-2.3318,-2.3497,-2.3628,-2.373,-2.3776,-2.3894,-2.394,-2.3897,-2.3846,-2.382,-2.3878,-2.3735,-2.3449,-2.3245,-2.3048,-2.286,-2.2899,-2.2978,-2.2773,-2.267,-2.2751,-2.2716,-2.2569,-2.2486,-2.2559,-2.2543,-2.6487,-2.6487,-2.6487,-2.6487,-2.6487,-2.6487,-2.6487,-2.6499,-2.6587,-2.6688,-2.6663,-2.6675,-2.7115,-2.7231,-2.7027,-2.704,-2.7077,-2.6901,-2.6688,-2.6512,-2.6487,-2.6487,-2.6487,-2.6487,-2.6487,-2.6487,-2.6487,-2.6487,-2.6487,-2.6487,-2.6373,-2.6386,-2.6034,-2.5762,-2.5624,-2.5209,-2.4895,-2.472,-2.4531,-2.4142,-2.3672,-2.3559,-2.3697,-2.354,-2.3358,-2.3283,-2.354,-2.3333,-2.3095,-2.3095,-2.3095,-2.3095,-2.3095,-2.3095,-2.3095,-2.3058,-2.2957,-2.292,-2.2895,-2.297,-2.3007,-2.3095,-2.3083,-2.307,-2.3095,-2.3095,-2.3095,-2.3095,-2.3095,-2.3095,-2.3095,-2.3095,-2.3095,-2.3095,-2.3095,-2.3095,-2.3095,-2.3095,-2.3045,-2.3058,-2.3045,-2.3083,-2.3095,-2.3095,-2.3108,-2.3168,-2.33,-2.336,-2.3288,-2.3348,-2.3526,-2.3586,-2.3658,-2.3802,-2.392,-2.4008,-2.4008,-2.3979,-2.3979,-2.4008,-2.4037,-2.3813,-2.3605,-2.3732,-2.3658,-2.3609,-2.3524,-2.3383,-2.3392,-2.3616,-2.3467,-2.314,-2.317,-2.3382,-2.325,-2.6487,-2.6487,-2.6487,-2.6487,-2.6487,-2.6487,-2.6499,-2.6575,-2.6977,-2.7178,-2.7205,-2.7607,-2.7795,-2.7908,-2.7908,-2.7645,-2.7306,-2.7115,-2.6876,-2.6562,-2.6487,-2.6487,-2.6487,-2.6487,-2.6487,-2.6487,-2.6487,-2.6487,-2.6487,-2.6487,-2.6487,-2.6461,-2.6361,-2.6298,-2.6135,-2.5799,-2.5611,-2.5569,-2.5322,-2.4883,-2.4462,-2.4311,-2.4023,-2.3627,-2.3321,-2.3283,-2.3271,-2.3208,-2.3095,-2.3095,-2.3095,-2.3095,-2.3095,-2.3095,-2.3095,-2.3095,-2.3095,-2.3095,-2.3095,-2.3095,-2.3095,-2.3095,-2.3095,-2.3095,-2.3095,-2.3095,-2.3095,-2.3095,-2.3095,-2.3095,-2.3095,-2.3158,-2.3133,-2.312,-2.3208,-2.3221,-2.3208,-2.3246,-2.3233,-2.3233,-2.3183,-2.3095,-2.3095,-2.3108,-2.3138,-2.321,-2.33,-2.339,-2.3378,-2.3437,-2.3569,-2.3599,-2.3586,-2.373,-2.3861,-2.4008,-2.4067,-2.4037,-2.4037,-2.4008,-2.4037,-2.3949,-2.392,-2.3949,-2.3936,-2.3855,-2.3839,-2.3832,-2.3789,-2.3747,-2.3658,-2.3599,-2.3569,-2.3539,-2.3463,-2.6487,-2.6487,-2.6487,-2.6487,-2.6487,-2.6487,-2.6663,-2.6939,-2.7168,-2.7457,-2.772,-2.7996,-2.8285,-2.8361,-2.8197,-2.7795,-2.7467,-2.7316,-2.7002,-2.66,-2.6487,-2.6487,-2.6487,-2.6487,-2.6487,-2.6487,-2.6487,-2.6487,-2.6487,-2.6487,-2.6487,-2.6487,-2.6487,-2.6487,-2.6449,-2.6235,-2.6059,-2.6072,-2.5749,-2.536,-2.485,-2.4833,-2.4399,-2.4098,-2.3684,-2.359,-2.3496,-2.3195,-2.3108,-2.3095,-2.3095,-2.3095,-2.312,-2.3133,-2.312,-2.312,-2.3108,-2.3095,-2.3095,-2.3095,-2.3095,-2.3095,-2.3095,-2.3095,-2.3095,-2.3095,-2.3158,-2.3133,-2.3108,-2.3095,-2.3108,-2.3371,-2.3521,-2.3597,-2.3747,-2.391,-2.3948,-2.3935,-2.3785,-2.3547,-2.3346,-2.3233,-2.3095,-2.3138,-2.3138,-2.3241,-2.3356,-2.3466,-2.3534,-2.3692,-2.3902,-2.3863,-2.3889,-2.3986,-2.4127,-2.4226,-2.4266,-2.4213,-2.4275,-2.4262,-2.4142,-2.4135,-2.4027,-2.3949,-2.3979,-2.3966,-2.3949,-2.3861,-2.3848,-2.3835,-2.3789,-2.373,-2.37,-2.3671,-2.3552,-2.6487,-2.6487,-2.6487,-2.6487,-2.6487,-2.6487,-2.6801,-2.7266,-2.7419,-2.7783,-2.8247,-2.8436,-2.8737,-2.8913,-2.8662,-2.8185,-2.7645,-2.767,-2.7366,-2.6813,-2.67,-2.665,-2.6499,-2.6487,-2.6487,-2.6487,-2.6487,-2.6487,-2.6487,-2.6487,-2.6487,-2.6487,-2.6487,-2.6487,-2.6461,-2.6424,-2.6147,-2.5971,-2.5749,-2.5498,-2.5096,-2.485,-2.48,-2.4788,-2.4393,-2.4155,-2.4104,-2.381,-2.3597,-2.3572,-2.3521,-2.3434,-2.3333,-2.3384,-2.3384,-2.3283,-2.3183,-2.3108,-2.3095,-2.3095,-2.3095,-2.3095,-2.3095,-2.3158,-2.3371,-2.3496,-2.3534,-2.3434,-2.3484,-2.3547,-2.3672,-2.3916,-2.4104,-2.4217,-2.4506,-2.4763,-2.4662,-2.4562,-2.4431,-2.4117,-2.3659,-2.3384,-2.3283,-2.3439,-2.3545,-2.3745,-2.3874,-2.4113,-2.4187,-2.4264,-2.4368,-2.4266,-2.4275,-2.4335,-2.4446,-2.4559,-2.4575,-2.453,-2.4666,-2.4793,-2.4584,-2.4385,-2.4307,-2.4252,-2.392,-2.392,-2.3891,-2.3916,-2.3891,-2.3878,-2.3878,-2.3848,-2.3802,-2.37,-2.3569,-2.6487,-2.6487,-2.6487,-2.6487,-2.6487,-2.6487,-2.6801,-2.7306,-2.777,-2.8286,-2.8762,-2.9315,-2.9541,-2.9566,-2.9566,-2.9202,-2.8775,-2.8499,-2.8009,-2.7228,-2.7115,-2.6914,-2.6575,-2.6487,-2.6549,-2.6549,-2.6524,-2.6487,-2.6487,-2.6487,-2.6487,-2.6487,-2.6487,-2.6487,-2.6487,-2.6487,-2.6461,-2.6386,-2.6361,-2.6063,-2.5548,-2.5101,-2.4971,-2.4813,-2.475,-2.465,-2.46,-2.4437,-2.4424,-2.4462,-2.4525,-2.4356,-2.4092,-2.4349,-2.4249,-2.3916,-2.3477,-2.3108,-2.3221,-2.3296,-2.3308,-2.3333,-2.3258,-2.3439,-2.3803,-2.4243,-2.4412,-2.46,-2.4525,-2.4437,-2.4387,-2.4632,-2.4675,-2.477,-2.4921,-2.4996,-2.4958,-2.5259,-2.5084,-2.482,-2.4424,-2.3847,-2.3496,-2.3728,-2.396,-2.4204,-2.445,-2.4633,-2.4747,-2.4745,-2.4818,-2.4741,-2.472,-2.4766,-2.4793,-2.4922,-2.4944,-2.4866,-2.5075,-2.5274,-2.5075,-2.4879,-2.4832,-2.4697,-2.4352,-2.4153,-2.43,-2.4274,-2.4024,-2.392,-2.3878,-2.3891,-2.3891,-2.376,-2.3611,-2.6487,-2.6487,-2.6487,-2.6487,-2.6487,-2.6487,-2.6813,-2.7366,-2.7858,-2.8411,-2.8938,-2.9541,-2.9779,-2.9779,-2.9779,-2.9465,-2.9026,-2.8913,-2.8323,-2.7519,-2.7354,-2.7203,-2.6939,-2.6675,-2.6587,-2.6851,-2.6663,-2.6487,-2.6487,-2.6512,-2.6487,-2.6487,-2.6487,-2.6487,-2.6487,-2.6487,-2.6487,-2.6474,-2.6461,-2.6373,-2.6135,-2.585,-2.5573,-2.5252,-2.5272,-2.5121,-2.4901,-2.48,-2.48,-2.48,-2.48,-2.47,-2.4569,-2.4637,-2.465,-2.4519,-2.4236,-2.4098,-2.4098,-2.4048,-2.3998,-2.4036,-2.4036,-2.4224,-2.4481,-2.4695,-2.487,-2.4775,-2.4788,-2.4825,-2.4926,-2.5109,-2.5209,-2.531,-2.5448,-2.5586,-2.5624,-2.5711,-2.5749,-2.5485,-2.5197,-2.4682,-2.4268,-2.4393,-2.4544,-2.4595,-2.474,-2.4854,-2.4918,-2.49,-2.5014,-2.5166,-2.5191,-2.5215,-2.5213,-2.5301,-2.5421,-2.5392,-2.548,-2.5613,-2.5569,-2.5452,-2.5392,-2.5353,-2.5192,-2.5049,-2.4892,-2.4524,-2.4196,-2.4024,-2.3907,-2.405,-2.4179,-2.3837,-2.3705,-2.6487,-2.6487,-2.6487,-2.6487,-2.6487,-2.6487,-2.6813,-2.7354,-2.7871,-2.8423,-2.8925,-2.9515,-2.9779,-2.9779,-2.9767,-2.9578,-2.9189,-2.9101,-2.8561,-2.7971,-2.767,-2.7645,-2.7444,-2.7153,-2.7178,-2.7469,-2.7002,-2.6801,-2.6738,-2.6713,-2.6688,-2.6499,-2.6487,-2.6487,-2.6487,-2.6487,-2.6487,-2.6487,-2.6487,-2.6461,-2.6436,-2.6436,-2.6185,-2.5937,-2.5774,-2.5636,-2.5297,-2.5272,-2.5297,-2.531,-2.5347,-2.5297,-2.5064,-2.5247,-2.5222,-2.5146,-2.5071,-2.5234,-2.5096,-2.4971,-2.4883,-2.4858,-2.4983,-2.4958,-2.5021,-2.5096,-2.5247,-2.5372,-2.536,-2.5322,-2.531,-2.5649,-2.5749,-2.5937,-2.616,-2.6361,-2.6461,-2.6298,-2.6197,-2.6034,-2.5787,-2.5674,-2.536,-2.5272,-2.5209,-2.5071,-2.5084,-2.5172,-2.525,-2.529,-2.5476,-2.5753,-2.5896,-2.5839,-2.5634,-2.5691,-2.5819,-2.5972,-2.6017,-2.6166,-2.6251,-2.6089,-2.592,-2.5894,-2.5899,-2.5626,-2.5314,-2.4827,-2.442,-2.4615,-2.4732,-2.4546,-2.4464,-2.4133,-2.4116,-2.6487,-2.6487,-2.6487,-2.6487,-2.6487,-2.6487,-2.6813,-2.7278,-2.7833,-2.8349,-2.8938,-2.9503,-2.9779,-2.9779,-2.9779,-2.9754,-2.9691,-2.9729,-2.9214,-2.8838,-2.8725,-2.8411,-2.8109,-2.7921,-2.7896,-2.7946,-2.7507,-2.7291,-2.7266,-2.7266,-2.6964,-2.6587,-2.6675,-2.6562,-2.6487,-2.6487,-2.6487,-2.6487,-2.6487,-2.6487,-2.6512,-2.6537,-2.6487,-2.6449,-2.6411,-2.6411,-2.6361,-2.6235,-2.6172,-2.6172,-2.6135,-2.5984,-2.5686,-2.5887,-2.5896,-2.5711,-2.5887,-2.6025,-2.5996,-2.5473,-2.4971,-2.4996,-2.5234,-2.5561,-2.5573,-2.6084,-2.6298,-2.6197,-2.6059,-2.616,-2.6235,-2.6399,-2.6285,-2.6311,-2.6373,-2.6424,-2.6487,-2.6474,-2.6399,-2.6424,-2.6311,-2.6135,-2.6084,-2.5887,-2.5762,-2.5624,-2.5737,-2.5837,-2.6017,-2.6097,-2.6211,-2.6401,-2.6654,-2.6534,-2.6065,-2.6145,-2.6452,-2.6596,-2.6661,-2.6902,-2.7157,-2.6922,-2.6479,-2.6433,-2.6413,-2.6074,-2.5853,-2.5704,-2.5613,-2.5613,-2.5535,-2.5205,-2.5109,-2.4991,-2.5099,-2.6487,-2.6487,-2.6487,-2.6487,-2.6487,-2.6487,-2.6612,-2.6876,-2.7369,-2.8122,-2.8976,-2.9503,-2.9779,-2.9779,-2.9779,-2.9779,-2.9779,-2.9779,-2.9428,-2.9089,-2.8825,-2.8762,-2.8512,-2.8386,-2.8211,-2.8423,-2.8072,-2.7783,-2.7783,-2.7783,-2.772,-2.7444,-2.7165,-2.6763,-2.6625,-2.6562,-2.6512,-2.6487,-2.6487,-2.6487,-2.6562,-2.6839,-2.6839,-2.6524,-2.6901,-2.6763,-2.6549,-2.6487,-2.6487,-2.6499,-2.6499,-2.6323,-2.6172,-2.6399,-2.6336,-2.6147,-2.6386,-2.6461,-2.6487,-2.6038,-2.5896,-2.5883,-2.6059,-2.6135,-2.6097,-2.6386,-2.6474,-2.6474,-2.6487,-2.6487,-2.6474,-2.6474,-2.6449,-2.6474,-2.6487,-2.6487,-2.6487,-2.6487,-2.6487,-2.6461,-2.6461,-2.6399,-2.6411,-2.6424,-2.6311,-2.6223,-2.6373,-2.6487,-2.6521,-2.6589,-2.6589,-2.6658,-2.6841,-2.6943,-2.6518,-2.6755,-2.709,-2.7118,-2.7133,-2.7245,-2.7403,-2.7451,-2.7104,-2.7059,-2.6981,-2.6811,-2.6713,-2.6824,-2.6654,-2.6218,-2.5931,-2.5652,-2.566,-2.5784,-2.5894,-2.6487,-2.6487,-2.6487,-2.6487,-2.6487,-2.6487,-2.66,-2.6826,-2.7318,-2.8147,-2.9189,-2.9628,-2.9779,-2.9779,-2.9779,-2.9779,-2.9779,-2.9754,-2.9541,-2.9352,-2.9201,-2.9151,-2.9051,-2.8938,-2.8913,-2.9001,-2.8662,-2.8348,-2.8335,-2.8348,-2.8172,-2.7996,-2.7896,-2.7519,-2.7115,-2.6801,-2.6675,-2.6524,-2.6487,-2.6487,-2.6562,-2.6788,-2.6914,-2.6612,-2.6989,-2.7115,-2.6889,-2.6813,-2.6801,-2.6725,-2.6637,-2.6499,-2.6474,-2.6487,-2.6487,-2.6487,-2.6487,-2.6487,-2.6487,-2.6487,-2.6487,-2.6361,-2.6386,-2.6449,-2.6487,-2.6487,-2.6487,-2.6487,-2.6487,-2.6487,-2.6487,-2.6487,-2.6487,-2.6487,-2.6487,-2.6487,-2.6487,-2.6487,-2.6487,-2.6487,-2.6487,-2.6487,-2.6487,-2.6487,-2.6449,-2.6373,-2.6424,-2.6487,-2.6521,-2.6589,-2.6611,-2.6692,-2.6829,-2.6875,-2.6897,-2.6939,-2.6947,-2.7027,-2.7069,-2.7116,-2.7235,-2.7369,-2.7469,-2.7246,-2.7254,-2.743,-2.7398,-2.7216,-2.6902,-2.6537,-2.6374,-2.6348,-2.6446,-2.659,-2.6498,-2.6487,-2.6487,-2.6487,-2.6487,-2.6487,-2.6487,-2.6776,-2.7266,-2.7846,-2.8649,-2.9541,-2.9741,-2.9779,-2.9779,-2.9779,-2.9779,-2.9779,-2.9779,-2.9716,-2.9666,-2.9603,-2.9691,-2.9679,-2.9578,-2.9453,-2.9553,-2.9239,-2.8888,-2.8875,-2.8875,-2.8624,-2.8524,-2.8599,-2.8448,-2.8034,-2.7519,-2.704,-2.6612,-2.6612,-2.6575,-2.6625,-2.6713,-2.6688,-2.665,-2.7027,-2.7216,-2.7014,-2.6964,-2.6952,-2.6939,-2.665,-2.6549,-2.6625,-2.6537,-2.6537,-2.6587,-2.6524,-2.6499,-2.6487,-2.6487,-2.6487,-2.6487,-2.6487,-2.6487,-2.6487,-2.6487,-2.6487,-2.6487,-2.6487,-2.6487,-2.6487,-2.6487,-2.6487,-2.6487,-2.6487,-2.6487,-2.6487,-2.6487,-2.6487,-2.6487,-2.6487,-2.6487,-2.6487,-2.6487,-2.6487,-2.6474,-2.6474,-2.6487,-2.6521,-2.6589,-2.6645,-2.6726,-2.6829,-2.6875,-2.6909,-2.6829,-2.6816,-2.6909,-2.7045,-2.7167,-2.7235,-2.7335,-2.7369,-2.7335,-2.7403,-2.7503,-2.7503,-2.7464,-2.7177,-2.6968,-2.7177,-2.7229,-2.7346,-2.7294,-2.7065,-2.6487,-2.6487,-2.6487,-2.6487,-2.6487,-2.6487,-2.6813,-2.7394,-2.821,-2.8838,-2.9214,-2.9578,-2.9779,-2.9779,-2.9779,-2.9779,-2.9779,-2.9779,-2.9779,-2.9779,-2.9779,-2.9779,-2.9779,-2.9779,-2.9779,-2.9741,-2.9541,-2.9465,-2.9503,-2.944,-2.9428,-2.9352,-2.9202,-2.8938,-2.831,-2.7871,-2.7682,-2.7519,-2.7268,-2.7052,-2.704,-2.7014,-2.6876,-2.66,-2.7077,-2.7216,-2.6927,-2.6927,-2.6927,-2.6901,-2.6587,-2.6637,-2.6763,-2.6738,-2.6663,-2.6776,-2.6776,-2.6487,-2.6487,-2.6487,-2.6487,-2.6487,-2.6487,-2.6487,-2.6487,-2.6487,-2.6487,-2.6487,-2.6487,-2.6487,-2.6487,-2.6487,-2.6487,-2.6487,-2.6487,-2.6487,-2.6487,-2.6487,-2.6487,-2.6487,-2.6487,-2.6487,-2.6487,-2.6487,-2.6487,-2.6487,-2.6487,-2.6487,-2.6487,-2.6589,-2.6692,-2.676,-2.6829,-2.6909,-2.6909,-2.6897,-2.6964,-2.71,-2.7235,-2.7369,-2.7403,-2.7335,-2.7369,-2.7403,-2.7436,-2.7503,-2.7503,-2.7503,-2.7503,-2.7477,-2.7503,-2.7503,-2.7451,-2.7438,-2.7385,-2.6487,-2.6487,-2.6487,-2.6487,-2.6487,-2.6487,-2.6901,-2.7632,-2.8524,-2.8988,-2.9289,-2.9654,-2.9779,-2.9779,-2.9779,-2.9779,-2.9779,-2.9779,-2.9779,-2.9779,-2.9779,-2.9779,-2.9779,-2.9779,-2.9779,-2.9779,-2.9779,-2.9767,-2.9729,-2.9767,-2.9729,-2.9691,-2.9767,-2.939,-2.8837,-2.8586,-2.8247,-2.8021,-2.767,-2.7557,-2.7557,-2.7494,-2.7293,-2.7128,-2.7216,-2.7392,-2.6977,-2.6776,-2.6763,-2.6713,-2.6675,-2.6688,-2.6813,-2.6813,-2.67,-2.6788,-2.6751,-2.6499,-2.6487,-2.6487,-2.6487,-2.6487,-2.6487,-2.6487,-2.6487,-2.6487,-2.6487,-2.6487,-2.6499,-2.6512,-2.6524,-2.6524,-2.6587,-2.6587,-2.6587,-2.66,-2.6549,-2.6549,-2.6537,-2.6537,-2.6487,-2.6487,-2.6487,-2.6487,-2.6487,-2.6487,-2.6487,-2.6487,-2.6487,-2.6589,-2.6658,-2.6692,-2.676,-2.6829,-2.6943,-2.7011,-2.7113,-2.7281,-2.7369,-2.7436,-2.7335,-2.7248,-2.7335,-2.7456,-2.7456,-2.749,-2.7503,-2.7503,-2.7503,-2.7503,-2.7503,-2.7503,-2.7503,-2.7503,-2.7503,-2.6487,-2.6487,-2.6487,-2.6487,-2.6487,-2.6487,-2.7077,-2.8072,-2.8674,-2.9176,-2.9716,-2.9704,-2.9779,-2.9779,-2.9779,-2.9779,-2.9779,-2.9779,-2.9779,-2.9779,-2.9779,-2.9779,-2.9779,-2.9779,-2.9779,-2.9779,-2.9779,-2.9779,-2.9779,-2.9779,-2.9779,-2.9779,-2.9779,-2.9628,-2.9415,-2.9151,-2.8775,-2.8524,-2.8247,-2.8147,-2.8134,-2.8021,-2.772,-2.7532,-2.757,-2.7532,-2.7256,-2.7067,-2.7102,-2.6977,-2.6776,-2.6625,-2.6549,-2.6524,-2.6512,-2.6499,-2.6512,-2.6499,-2.6512,-2.6512,-2.6637,-2.6688,-2.67,-2.6587,-2.6487,-2.6487,-2.6487,-2.6549,-2.66,-2.66,-2.66,-2.67,-2.6788,-2.6788,-2.6776,-2.6738,-2.6663,-2.6637,-2.6625,-2.6587,-2.6512,-2.6487,-2.6487,-2.6487,-2.6487,-2.6487,-2.6487,-2.6487,-2.6487,-2.6487,-2.6555,-2.6568,-2.6671,-2.6773,-2.6875,-2.6977,-2.7146,-2.7268,-2.7248,-2.7281,-2.7214,-2.7248,-2.7369,-2.7423,-2.7456,-2.749,-2.7503,-2.7503,-2.7503,-2.7503,-2.7503,-2.7503,-2.7503,-2.7503,-2.7503,-2.6487,-2.6487,-2.6487,-2.6487,-2.6487,-2.6487,-2.6914,-2.7595,-2.8449,-2.9026,-2.9189,-2.9616,-2.9741,-2.9779,-2.9779,-2.9779,-2.9779,-2.9779,-2.9779,-2.9779,-2.9779,-2.9779,-2.9779,-2.9779,-2.9779,-2.9779,-2.9779,-2.9779,-2.9779,-2.9779,-2.9779,-2.9779,-2.9779,-2.9779,-2.9729,-2.9628,-2.9402,-2.9164,-2.885,-2.8737,-2.8549,-2.8411,-2.8122,-2.7996,-2.7745,-2.762,-2.7406,-2.7065,-2.6952,-2.6763,-2.6625,-2.6612,-2.7077,-2.6738,-2.6487,-2.6487,-2.6487,-2.6499,-2.6549,-2.6864,-2.709,-2.7143,-2.7331,-2.709,-2.6801,-2.66,-2.6612,-2.6776,-2.6952,-2.7052,-2.7165,-2.7205,-2.7293,-2.7344,-2.7354,-2.7291,-2.7241,-2.7241,-2.7165,-2.6713,-2.6637,-2.6562,-2.6549,-2.6487,-2.6487,-2.6487,-2.6487,-2.6487,-2.6487,-2.6487,-2.6487,-2.6499,-2.6568,-2.6658,-2.6807,-2.6909,-2.7066,-2.7235,-2.7235,-2.7281,-2.7335,-2.7369,-2.7436,-2.7469,-2.7456,-2.749,-2.7503,-2.7503,-2.7503,-2.7503,-2.7503,-2.7503,-2.7503,-2.7503,-2.7503,-2.6487,-2.6487,-2.6487,-2.6487,-2.6487,-2.6487,-2.6801,-2.7356,-2.8009,-2.8436,-2.895,-2.9289,-2.9578,-2.9779,-2.9779,-2.9779,-2.9779,-2.9779,-2.9779,-2.9779,-2.9779,-2.9779,-2.9779,-2.9779,-2.9779,-2.9779,-2.9779,-2.9779,-2.9779,-2.9779,-2.9779,-2.9779,-2.9779,-2.9779,-2.9767,-2.9741,-2.9754,-2.9616,-2.9453,-2.9315,-2.9101,-2.8888,-2.8725,-2.8386,-2.8034,-2.7846,-2.7595,-2.7216,-2.7153,-2.714,-2.714,-2.7266,-2.7582,-2.7281,-2.7143,-2.7193,-2.7193,-2.7218,-2.7304,-2.7444,-2.757,-2.7695,-2.7921,-2.7695,-2.7469,-2.7281,-2.7291,-2.7341,-2.7469,-2.762,-2.7745,-2.7871,-2.7971,-2.8072,-2.7996,-2.7934,-2.7934,-2.7934,-2.7532,-2.7002,-2.6788,-2.67,-2.6625,-2.6562,-2.6487,-2.6487,-2.6487,-2.6487,-2.6487,-2.6487,-2.6487,-2.6487,-2.6521,-2.6555,-2.6692,-2.6794,-2.693,-2.7134,-2.7268,-2.7302,-2.7436,-2.7469,-2.7469,-2.7469,-2.7503,-2.7503,-2.7503,-2.7503,-2.7503,-2.7503,-2.7503,-2.7503,-2.7503,-2.7503,-2.7503,-2.6487,-2.6487,-2.6487,-2.6487,-2.6487,-2.6487,-2.6763,-2.7241,-2.7331,-2.7883,-2.8675,-2.8875,-2.9214,-2.9566,-2.9716,-2.9779,-2.9779,-2.9779,-2.9779,-2.9779,-2.9779,-2.9779,-2.9779,-2.9779,-2.9779,-2.9779,-2.9779,-2.9779,-2.9779,-2.9779,-2.9779,-2.9779,-2.9779,-2.9779,-2.9779,-2.9779,-2.9779,-2.9741,-2.9716,-2.9641,-2.9691,-2.9654,-2.9553,-2.9051,-2.88,-2.8649,-2.8273,-2.8109,-2.8109,-2.8084,-2.8059,-2.8009,-2.7996,-2.7984,-2.7971,-2.7971,-2.7858,-2.7846,-2.7871,-2.8047,-2.8134,-2.8185,-2.821,-2.8335,-2.8298,-2.7871,-2.7733,-2.7795,-2.7946,-2.8122,-2.826,-2.8499,-2.8662,-2.8699,-2.8662,-2.8499,-2.8348,-2.826,-2.7934,-2.7494,-2.7381,-2.7268,-2.7092,-2.708,-2.7153,-2.6851,-2.665,-2.6663,-2.6612,-2.6612,-2.6549,-2.6537,-2.6487,-2.6521,-2.6589,-2.6726,-2.6794,-2.6964,-2.7146,-2.7281,-2.7335,-2.7436,-2.7503,-2.7503,-2.7503,-2.7503,-2.7503,-2.7503,-2.7503,-2.7503,-2.7503,-2.7503,-2.7503,-2.7503,-2.7503,-2.6487,-2.6487,-2.6487,-2.6487,-2.6487,-2.6487,-2.6562,-2.6725,-2.7153,-2.767,-2.8285,-2.8687,-2.8963,-2.9202,-2.9578,-2.9716,-2.9779,-2.9779,-2.9779,-2.9779,-2.9779,-2.9779,-2.9779,-2.9779,-2.9779,-2.9779,-2.9779,-2.9779,-2.9779,-2.9779,-2.9779,-2.9779,-2.9779,-2.9779,-2.9779,-2.9779,-2.9779,-2.9779,-2.9779,-2.9779,-2.9779,-2.9779,-2.9666,-2.9428,-2.9264,-2.895,-2.8637,-2.836,-2.8222,-2.8109,-2.8109,-2.8097,-2.8109,-2.8134,-2.8134,-2.8122,-2.8247,-2.8285,-2.8373,-2.8561,-2.8712,-2.89,-2.9026,-2.9264,-2.9139,-2.8499,-2.821,-2.8298,-2.8423,-2.8612,-2.8812,-2.9076,-2.9277,-2.9289,-2.9277,-2.9013,-2.8762,-2.8549,-2.8323,-2.816,-2.8059,-2.7883,-2.7695,-2.7632,-2.7708,-2.7532,-2.7231,-2.7092,-2.6989,-2.6927,-2.6725,-2.6663,-2.6512,-2.6521,-2.6589,-2.6624,-2.6692,-2.6794,-2.6943,-2.7113,-2.7281,-2.7369,-2.7469,-2.7503,-2.7503,-2.7503,-2.7503,-2.7503,-2.7503,-2.7503,-2.7503,-2.7503,-2.7503,-2.7503,-2.7503,-2.6487,-2.6487,-2.6487,-2.6487,-2.6487,-2.6487,-2.6625,-2.6901,-2.719,-2.7595,-2.8084,-2.8436,-2.865,-2.8838,-2.9277,-2.9641,-2.9741,-2.9779,-2.9779,-2.9779,-2.9779,-2.9779,-2.9779,-2.9779,-2.9779,-2.9779,-2.9779,-2.9779,-2.9779,-2.9779,-2.9779,-2.9779,-2.9779,-2.9779,-2.9779,-2.9779,-2.9779,-2.9779,-2.9779,-2.9779,-2.9779,-2.9779,-2.9779,-2.9641,-2.9515,-2.9289,-2.9239,-2.8988,-2.8938,-2.8875,-2.8925,-2.8925,-2.895,-2.8963,-2.89,-2.89,-2.8925,-2.885,-2.8925,-2.9051,-2.9264,-2.9415,-2.9503,-2.9616,-2.9641,-2.9089,-2.9051,-2.9126,-2.9151,-2.9315,-2.9327,-2.9528,-2.9566,-2.9578,-2.9578,-2.9453,-2.934,-2.9227,-2.8913,-2.8612,-2.8473,-2.8298,-2.8097,-2.7896,-2.7946,-2.7934,-2.7682,-2.7657,-2.7507,-2.7316,-2.709,-2.6901,-2.6813,-2.6587,-2.6521,-2.6555,-2.6589,-2.6658,-2.6773,-2.6977,-2.7167,-2.7302,-2.7403,-2.7469,-2.7469,-2.7503,-2.7503,-2.7503,-2.7503,-2.7503,-2.7503,-2.7503,-2.7503,-2.7503,-2.7503,-2.6487,-2.6487,-2.6487,-2.6487,-2.6487,-2.6487,-2.6738,-2.7153,-2.7331,-2.7607,-2.7946,-2.8072,-2.8423,-2.8737,-2.8925,-2.9365,-2.9641,-2.9754,-2.9779,-2.9779,-2.9779,-2.9779,-2.9779,-2.9779,-2.9779,-2.9779,-2.9779,-2.9779,-2.9779,-2.9779,-2.9779,-2.9779,-2.9779,-2.9779,-2.9779,-2.9779,-2.9779,-2.9779,-2.9779,-2.9779,-2.9779,-2.9779,-2.9779,-2.9779,-2.9779,-2.9779,-2.9779,-2.9779,-2.9767,-2.9704,-2.9591,-2.9566,-2.9566,-2.9528,-2.9566,-2.9541,-2.9515,-2.9553,-2.9641,-2.9603,-2.9691,-2.9754,-2.9779,-2.9779,-2.9779,-2.9767,-2.9716,-2.9716,-2.9741,-2.9754,-2.9754,-2.9767,-2.9779,-2.9779,-2.9779,-2.9779,-2.9754,-2.9729,-2.9402,-2.9051,-2.8925,-2.875,-2.8599,-2.8373,-2.831,-2.8285,-2.8222,-2.8222,-2.8134,-2.7846,-2.7595,-2.7429,-2.7291,-2.7027,-2.6612,-2.6596,-2.6622,-2.6555,-2.6671,-2.6909,-2.71,-2.7235,-2.7335,-2.7436,-2.7469,-2.7542,-2.7516,-2.7503,-2.7503,-2.7516,-2.7503,-2.7503,-2.7503,-2.7503,-2.7503,-2.6487,-2.6487,-2.6487,-2.6487,-2.6487,-2.6487,-2.6562,-2.6801,-2.757,-2.7795,-2.7682,-2.7984,-2.8411,-2.8888,-2.8888,-2.9239,-2.9716,-2.9779,-2.9779,-2.9779,-2.9779,-2.9779,-2.9779,-2.9779,-2.9779,-2.9779,-2.9779,-2.9779,-2.9779,-2.9779,-2.9779,-2.9779,-2.9779,-2.9779,-2.9779,-2.9779,-2.9779,-2.9779,-2.9779,-2.9779,-2.9779,-2.9779,-2.9779,-2.9779,-2.9779,-2.9779,-2.9779,-2.9779,-2.9779,-2.9779,-2.9779,-2.9779,-2.9779,-2.9779,-2.9779,-2.9779,-2.9779,-2.9779,-2.9779,-2.9779,-2.9779,-2.9779,-2.9779,-2.9779,-2.9779,-2.9779,-2.9754,-2.9754,-2.9767,-2.9767,-2.9779,-2.9779,-2.9779,-2.9779,-2.9779,-2.9779,-2.9767,-2.9767,-2.9628,-2.9528,-2.9478,-2.9415,-2.9377,-2.9252,-2.9252,-2.9139,-2.8863,-2.885,-2.875,-2.8448,-2.8147,-2.7959,-2.7783,-2.7216,-2.6713,-2.6751,-2.6751,-2.6612,-2.6656,-2.707,-2.7276,-2.7193,-2.7294,-2.7741,-2.7691,-2.7659,-2.7607,-2.7673,-2.7529,-2.7542,-2.7516,-2.7503,-2.7503,-2.7594,-2.7686]},{"header":{"parameterUnit":"m.s-1","parameterCategory":1,"la1":31.0,"la2":29.5877,"lo1":-88.7671,"lo2":-86.6584,"dy":0.0162,"dx":0.0185,"nx":115,"ny":88,"refTime":"2026-03-02T12:00:00:Z","depth":0,"parameterNumber":3,"parameterNumberName":"V-component_of_WINDS"},"data":[0.0,0.0,0.0,0.0,0.0,0.0,0.0,0.0,0.0,0.0,0.0,0.0,0.0,0.0,0.0,0.0,0.0,0.0,0.0,0.0,0.0,0.0,0.0,0.0,0.0,0.0,0.0,0.0,0.0,0.0,0.0,0.0,0.0,0.0,0.0,0.0,0.0,0.0,0.0,0.0,0.0,0.0,0.0,0.0,0.0,0.0,0.0,0.0,0.0,0.0,0.0,0.0,0.0,0.0,0.0,0.0,0.0,0.0,0.0,0.0,0.0,0.0,0.0,0.0,0.0,0.0,0.0,0.0,0.0,0.0,0.0,0.0,0.0,0.0,0.0,0.0,0.0,0.0,0.0,0.0,0.0,0.0,0.0,0.0,0.0,0.0,0.0,0.0,0.0,0.0,0.0,0.0,0.0,0.0,0.0,0.0,0.0,0.0,0.0,0.0,0.0,0.0,0.0,0.0,0.0,0.0,0.0,0.0,0.0,0.0,0.0,0.0,0.0,0.0,0.0,0.0,0.0,0.0,0.0,0.0,0.0,0.0,0.0,0.0,0.0,0.0,0.0,0.0,0.0,0.0,0.0,0.0,0.0,0.0,0.0,0.0,0.0,0.0,0.0,0.0,0.0,0.0,0.0,0.0,0.0,0.0,0.0,0.0,0.0,0.0,0.0,0.0,0.0,0.0,0.0,0.0,0.0,0.0,0.0,0.0,0.0,0.0,0.0,0.0,0.0,0.0,0.0,0.0,0.0,0.0,0.0,0.0,0.0,0.0,0.0,0.0,0.0,0.0,0.0,0.0,0.0,0.0,0.0,0.0,0.0,0.0,0.0,0.0,0.0,0.0,0.0,0.0,0.0,0.0,0.0,0.0,0.0,0.0,0.0,0.0,0.0,0.0,0.0,0.0,0.0,0.0,0.0,0.0,0.0,0.0,0.0,0.0,0.0,0.0,0.0,0.0,0.0,0.0,0.0,0.0,0.0,0.0,0.0,0.0,0.0,0.0,0.0,0.0,0.0,0.0,0.0,0.0,0.0,0.0,0.0,0.0,0.0,0.0,0.0,0.0,0.0,0.0,0.0,0.0,0.0,0.0,0.0,0.0,0.0,0.0,0.0,0.0,0.0,0.0,0.0,0.0,0.0,0.0,0.0,0.0,0.0,0.0,0.0,0.0,0.0,0.0,0.0,0.0,0.0,0.0,0.0,0.0,0.0,0.0,0.0,0.0,0.0,0.0,0.0,0.0,0.0,0.0,0.0,0.0,0.0,0.0,0.0,0.0,0.0,0.0,0.0,0.0,0.0,0.0,0.0,0.0,0.0,0.0,0.0,0.0,0.0,0.0,0.0,0.0,0.0,0.0,0.0,0.0,0.0,0.0,0.0,0.0,0.0,0.0,0.0,0.0,0.0,0.0,0.0,0.0,0.0,0.0,0.0,0.0,0.0,0.0,0.0,0.0,0.0,0.0,0.0,0.0,0.0,0.0,0.0,0.0,0.0,0.0,0.0,0.0,0.0,0.0,0.0,0.0,0.0,0.0,0.0,0.0,0.0,0.0,0.0,0.0,0.0,0.0,0.0,0.0,0.0,0.0,0.0,0.0,0.0,0.0,0.0,0.0,0.0,0.0,0.0,0.0,0.0,0.0,0.0,0.0,0.0,0.0,0.0,0.0,0.0,0.0,0.0,0.0,0.0,0.0,0.0,0.0,0.0,0.0,0.0,0.0,0.0,0.0,0.0,0.0,0.0,0.0,0.0,0.0,0.0,0.0,0.0,0.0,0.0,0.0,0.0,0.0,0.0,0.0,0.0,0.0,0.0,0.0,0.0,0.0,0.0,0.0,0.0,0.0,0.0,0.0,0.0,0.0,0.0,0.0,0.0,0.0,0.0,0.0,0.0,0.0,0.0,0.0,0.0,0.0,0.0,0.0,0.0,0.0,0.0,0.0,0.0,0.0,0.0,0.0,0.0,0.0,0.0,0.0,0.0,0.0,0.0,0.0,0.0,0.0,0.0,0.0,0.0,0.0,0.0,0.0,0.0,0.0,0.0,0.0,0.0,0.0,0.0,0.0,0.0,0.0,0.0,0.0,0.0,0.0,0.0,0.0,0.0,0.0,0.0,0.0,0.0,0.0,0.0,0.0,0.0,0.0,0.0,0.0,0.0,0.0,0.0,0.0,0.0,0.0,0.0,0.0,0.0,0.0,0.0,0.0,0.0,0.0,0.0,0.0,0.0,0.0,0.0,0.0,0.0,0.0,0.0,0.0,0.0,0.0,0.0,0.0,0.0,0.0,0.0,0.0,0.0,0.0,0.0,0.0,0.0,0.0,0.0,0.0,0.0,0.0,0.0,0.0,0.0,0.0,0.0,0.0,0.0,0.0,0.0,0.0,0.0,0.0,0.0,0.0,0.0,0.0,0.0,0.0,0.0,0.0,0.0,0.0,0.0,0.0,0.0,0.0,0.0,0.0,0.0,0.0,0.0,0.0,0.0,0.0,0.0,0.0,0.0,0.0,0.0,0.0,0.0,0.0,0.0,0.0,0.0,0.0,0.0,0.0,0.0,0.0,0.0,0.0,0.0,0.0,0.0,0.0,0.0,0.0,0.0,0.0,0.0,0.0,0.0,0.0,0.0,0.0,0.0,0.0,0.0,0.0,0.0,0.0,0.0,0.0,0.0,0.0,0.0,0.0,0.0,0.0,0.0,0.0,0.0,0.0,0.0,0.0,0.0,0.0,0.0,0.0,0.0,0.0,0.0,0.0,0.0,0.0,0.0,0.0,0.0,0.0,0.0,0.0,0.0,0.0,0.0,0.0,0.0,0.0,0.0,0.0,0.0,0.0,0.0,0.0,0.0,0.0,0.0,0.0,0.0,0.0,0.0,0.0,0.0,0.0,0.0,0.0,0.0,0.0,0.0,0.0,0.0,0.0,0.0,0.0,0.0,0.0,0.0,0.0,0.0,0.0,0.0,0.0,0.0,0.0,0.0,0.0,0.0,0.0,0.0,0.0,0.0,0.0,0.0,0.0,0.0,0.0,0.0,0.0,0.0,0.0,0.0,0.0,0.0,0.0,0.0,0.0,0.0,0.0,0.0,0.0,0.0,0.0,0.0,0.0,0.0,0.0,0.0,0.0,0.0,0.0,0.0,0.0,0.0,0.0,0.0,0.0,0.0,0.0,0.0,0.0,0.0,0.0,0.0,0.0,0.0,0.0,0.0,0.0,0.0,0.0,0.0,0.0,0.0,0.0,0.0,0.0,0.0,0.0,0.0,0.0,0.0,0.0,0.0,0.0,0.0,0.0,0.0,0.0,0.0,0.0,0.0,0.0,0.0,0.0,0.0,0.0,0.0,0.0,0.0,0.0,0.0,0.0,0.0,0.0,0.0,0.0,0.0,0.0,0.0,0.0,0.0,0.0,0.0,0.0,0.0,0.0,0.0,0.0,0.0,0.0,0.0,0.0,0.0,0.0,0.0,0.0,0.0,0.0,0.0,0.0,0.0,0.0,0.0,0.0,0.0,0.0,0.0,0.0,0.0,0.0,0.0,0.0,0.0,0.0,0.0,0.0,0.0,0.0,0.0,0.0,0.0,0.0,0.0,0.0,0.0,0.0,0.0,0.0,0.0,0.0,0.0,0.0,0.0,0.0,0.0,0.0,0.0,0.0,0.0,0.0,0.0,0.0,0.0,0.0,0.0,0.0,0.0,0.0,0.0,0.0,0.0,0.0,0.0,0.0,0.0,0.0,0.0,0.0,0.0,0.0,0.0,0.0,0.0,0.0,0.0,0.0,0.0,0.0,0.0,0.0,0.0,0.0,0.0,0.0,0.0,0.0,0.0,0.0,0.0,0.0,0.0,0.0,0.0,0.0,0.0,0.0,0.0,0.0,0.0,0.0,0.0,0.0,0.0,0.0,0.0,0.0,0.0,0.0,0.0,0.0,0.0,0.0,0.0,0.0,0.0,0.0,0.0,0.0,0.0,0.0,0.0,0.0,0.0,0.0,0.0,0.0,0.0,0.0,0.0,0.0,0.0,0.0,0.0,0.0,0.0,0.0,0.0,0.0,0.0,0.0,0.0,0.0,0.0,0.0,0.0,0.0,0.0,0.0,0.0,0.0,0.0,0.0,0.0,0.0,0.0,0.0,0.0,0.0,0.0,0.0,0.0,0.0,0.0,0.0,0.0,0.0,0.0,0.0,0.0,0.0,0.0,0.0,0.0,0.0,0.0,0.0,0.0,0.0,0.0,0.0,0.0,0.0,0.0,0.0,0.0,0.0,0.0,0.0,0.6352,0.0,0.0,0.0,0.0,0.0,0.0,0.0,0.0,0.0,0.0,0.0,0.0,0.0,0.0,0.0,0.0,0.0,0.0,0.0,0.0,0.0,0.0,0.0,0.0,0.0,0.0,0.0,0.0,0.0,0.0,0.0,0.0,0.0,0.0,0.0,0.0,0.0,0.0,0.0,0.0,0.0,0.0,0.0,0.0,0.0,0.0,0.0,0.0,0.0,0.0,0.0,0.0,0.0,0.0,0.0,0.0,0.0,0.0,0.0,0.0,0.0,0.0,0.0,0.0,0.0,0.0,0.0,0.0,0.0,0.0,0.0,0.0,0.0,0.0,0.0,0.0,0.0,0.0,0.0,0.0,0.0,0.0,0.0,0.0,0.0,0.0,0.0,0.0,0.0,0.0,0.0,0.0,0.0,0.0,0.0,0.0,0.0,0.0,0.0,0.0,0.0,0.0,0.0,0.0,0.0,0.0,0.0,0.0,0.0,0.0,0.7713,0.7242,0.721,0.6964,0.6444,0.0,0.0,0.0,0.0,0.0,0.0,0.0,0.0,0.0,0.0,0.0,0.0,0.0,0.0,0.0,0.0,0.0,0.0,0.0,0.0,0.0,0.0,0.0,0.0,0.0,0.0,0.0,0.0,0.0,0.0,0.0,0.0,0.0,0.0,0.0,0.0,0.0,0.0,0.0,0.0,0.0,0.0,0.0,0.0,0.0,0.0,0.0,0.0,0.0,0.0,0.0,0.0,0.0,0.0,0.0,0.0,0.0,0.0,0.0,0.0,0.0,0.0,0.0,0.0,0.0,0.0,0.0,0.0,0.0,0.0,0.0,0.0,0.0,0.0,0.0,0.0,0.0,0.0,0.0,0.0,0.0,0.0,0.0,0.0,0.0,0.0,0.0,0.0,0.0,0.0,0.0,0.0,0.0,0.0,0.0,0.0,0.0,0.0,0.0,0.0,0.0,0.0,0.0,0.0,0.0,0.0,0.0,0.0,0.0,0.0,0.0,0.0,0.7473,0.7348,0.7108,0.0,0.0,0.0,0.0,0.0,0.0,0.0,0.0,0.0,0.0,0.0,0.0,0.0,0.0,0.0,0.0,0.0,0.0,0.0,0.0,0.0,0.0,0.0,0.0,0.0,0.0,0.0,0.0,0.0,0.0,0.0,0.0,0.0,0.0,0.0,0.0,0.0,0.0,0.0,0.0,0.0,0.0,0.0,0.0,0.0,0.0,0.0,0.0,0.0,0.0,0.0,0.0,0.0,0.0,0.0,0.0,0.0,0.0,0.0,0.0,0.0,0.0,0.0,0.0,0.0,0.0,0.0,0.0,0.0,0.0,0.0,0.0,0.0,0.0,0.0,0.0,0.0,0.0,0.0,0.0,0.0,0.0,0.0,0.0,0.0,0.0,0.0,0.0,0.0,0.0,0.0,0.0,0.0,0.0,0.0,0.0,0.0,0.0,0.0,0.0,0.0,0.0,0.0,0.0,0.0,0.0,0.0,0.0,0.0,0.0,0.696,0.7989,0.8037,0.0,0.8734,0.0,0.0,0.0,0.0,0.0,0.0,0.0,0.0,0.0,0.0,0.0,0.0,0.0,0.0,0.0,0.0,0.0,0.0,0.0,0.0,0.0,0.0,0.0,0.0,0.0,0.0,0.0,0.0,0.0,0.0,0.0,0.0,0.0,0.0,0.0,0.0,0.0,0.0,0.0,0.0,0.0,0.0,0.0,0.0,0.0,0.0,0.0,0.0,0.0,0.0,0.0,0.0,0.0,0.0,0.0,0.0,0.0,0.0,0.0,0.0,0.0,0.0,0.0,0.0,0.0,0.0,0.0,0.0,0.0,0.0,0.0,0.0,0.0,0.0,0.0,0.0,0.0,0.0,0.0,0.0,0.0,0.0,0.0,0.0,0.0,0.0,0.0,0.0,0.0,0.0,0.0,0.0,0.0,0.0,0.0,0.0,0.0,0.0,0.0,0.0,0.0,0.0,0.0,0.0,0.0,0.0,0.0,0.0,0.0,0.0,0.0,0.8221,0.8176,0.8424,0.0,0.0,0.0,0.0,0.0,0.0,0.0,0.0,0.0,0.0,0.0,0.0,0.0,0.0,0.0,0.0,0.0,0.0,0.0,0.0,0.0,0.0,0.0,0.0,0.0,0.0,0.0,0.0,0.0,0.0,0.0,0.0,0.0,0.0,0.0,0.0,0.0,0.0,0.0,0.0,0.0,0.0,0.0,0.0,0.0,0.0,0.0,0.0,0.0,0.0,0.0,0.0,0.0,0.0,0.0,0.0,0.0,0.0,0.0,0.0,0.0,0.0,0.0,0.0,0.0,0.0,0.0,0.0,0.0,0.0,0.0,0.0,0.0,0.0,0.0,0.0,0.0,0.0,0.0,0.0,0.0,0.0,0.0,0.0,0.0,0.0,0.0,0.0,0.0,0.0,0.0,0.0,0.0,0.0,0.0,0.0,0.0,0.0,0.0,0.0,0.0,0.0,0.0,0.0,0.0,0.0,0.0,0.0,0.0,0.0,0.7926,0.0,0.8703,0.8704,0.8717,0.8806,0.0,0.0,0.0,0.0,0.0,0.0,0.0,0.0,0.0,0.0,0.0,0.0,0.0,0.0,0.0,0.0,0.0,0.0,0.0,0.0,0.0,0.0,0.0,0.0,0.0,0.0,0.0,0.0,0.0,0.0,0.0,0.0,0.0,0.0,0.0,0.0,0.0,0.0,0.0,0.0,0.0,0.0,0.0,0.0,0.0,0.0,0.0,0.0,0.0,0.0,0.0,0.0,0.0,0.0,0.0,0.0,0.0,0.0,0.0,0.0,0.0,0.0,0.0,0.0,0.0,0.0,0.0,0.0,0.0,0.0,0.0,0.0,0.0,0.0,0.0,0.0,0.0,0.0,0.0,0.0,0.0,0.0,0.0,0.0,0.0,0.0,0.0,0.0,0.0,0.0,0.0,0.0,0.0,0.0,0.0,0.0,0.0,0.0,0.0,0.0,0.0,0.0,0.0,0.0,0.0,0.0,0.0,0.0,0.0,0.8649,0.8662,0.9754,0.983,0.9366,0.0,0.0,0.0,0.0,0.0,0.0,0.0,0.0,0.0,0.0,0.0,0.0,0.0,0.0,0.0,0.0,0.0,0.0,0.0,0.0,0.0,0.0,0.0,0.0,0.0,0.0,0.0,0.0,0.0,0.0,0.0,0.0,0.0,0.0,0.0,0.0,0.0,0.0,0.0,0.0,0.0,0.0,0.0,0.0,0.0,0.0,0.0,0.0,0.0,0.0,0.0,0.0,0.0,0.0,0.0,0.0,0.0,0.0,0.0,0.0,0.0,0.0,0.0,0.0,0.0,0.0,0.0,0.0,0.0,0.0,0.0,0.0,0.0,0.0,0.0,0.0,0.0,0.0,0.0,0.0,0.0,0.0,0.0,0.0,0.0,0.0,0.0,0.0,0.0,0.0,0.0,0.0,0.0,0.0,0.0,0.0,0.0,0.0,0.0,0.0,0.0,0.0,0.0,0.0,0.0,0.0,0.0,0.0,0.0,0.7803,0.8057,0.8918,1.0318,0.9416,0.8863,0.0,0.0,0.0,0.0,0.0,0.0,0.0,0.0,0.0,0.0,0.0,0.0,0.0,0.0,0.0,0.0,0.0,0.0,0.0,0.0,0.0,0.0,0.0,0.0,0.0,0.0,0.0,0.0,0.0,0.0,0.0,0.0,0.0,0.0,0.0,0.0,0.0,0.0,0.0,0.0,0.0,0.0,0.0,0.0,0.0,0.0,0.0,0.0,0.0,0.0,0.0,0.0,0.0,0.0,0.0,0.0,0.0,0.0,0.0,0.0,0.0,0.0,0.0,0.0,0.0,0.0,0.0,0.0,0.0,0.0,0.0,0.0,0.0,0.0,0.0,0.0,0.0,0.0,0.0,0.0,0.0,0.0,0.0,0.0,0.0,0.0,0.0,0.0,0.0,0.0,0.0,0.0,0.0,0.0,0.0,0.0,0.0,0.0,0.0,0.0,0.0,0.0,0.0,0.0,0.0,0.0,0.0,0.0,0.0,0.7448,0.0,0.9441,0.0,0.9127,0.8474,0.0,0.0,0.0,0.0,0.0,0.0,0.0,0.0,0.0,0.0,0.0,0.0,0.0,0.0,0.0,0.0,0.0,0.0,0.0,0.0,0.0,0.0,0.0,0.0,0.0,0.0,0.0,0.0,0.0,0.0,0.0,0.0,0.0,0.0,0.0,0.0,0.0,0.0,0.0,0.0,0.0,0.0,0.0,0.0,0.0,0.0,0.0,0.0,0.0,0.0,0.0,0.0,0.0,0.0,0.0,0.0,0.0,0.0,0.0,0.0,0.0,0.0,0.0,0.0,0.0,0.0,0.0,0.0,0.0,0.0,0.0,0.0,0.0,0.0,0.0,0.0,0.0,0.0,0.0,0.0,0.0,0.0,0.0,0.0,0.0,0.0,0.0,0.0,0.0,0.0,0.0,0.0,0.0,0.0,0.0,0.0,0.0,0.0,0.0,0.0,0.0,0.0,0.0,0.0,0.0,0.0,0.0,0.0,0.7974,0.9025,1.0082,1.0158,0.9188,0.9099,0.8331,0.0,0.0,0.0,0.0,0.0,0.0,0.0,0.0,0.0,0.0,0.0,0.0,0.0,0.0,0.0,0.0,0.0,0.0,0.0,0.0,0.0,0.0,0.0,0.0,0.0,0.0,0.0,0.0,0.0,0.0,0.0,0.0,0.0,0.0,0.0,0.0,0.0,0.0,0.0,0.0,0.0,0.0,0.0,0.0,0.0,0.0,0.0,0.0,0.0,0.0,0.0,0.0,0.0,0.0,0.0,0.0,0.0,0.0,0.0,0.0,0.0,0.0,0.0,0.0,0.0,0.0,0.0,0.0,0.0,0.0,0.0,0.0,0.0,0.0,0.0,0.0,0.0,0.0,0.0,0.0,0.0,0.0,0.0,0.0,0.0,0.0,0.0,0.0,0.0,0.0,0.0,0.0,0.0,0.0,0.0,0.0,0.0,0.0,0.0,0.0,0.0,0.0,0.0,0.0,0.0,0.0,0.0,0.0,0.0,0.8261,0.9519,1.0226,1.0226,0.8927,0.8347,0.0,0.0,0.0,0.0,0.0,0.0,0.0,0.0,0.0,0.0,0.0,0.0,0.0,0.0,0.0,0.0,0.0,0.0,0.0,0.0,0.0,0.0,0.0,0.0,0.0,0.0,0.0,0.0,0.0,0.0,0.0,0.0,0.0,0.0,0.0,0.0,0.0,0.0,0.0,0.0,0.0,0.0,0.0,0.0,0.0,0.0,0.0,0.0,0.0,0.0,0.0,0.0,0.0,0.0,0.0,0.0,0.0,0.0,0.0,0.0,0.0,0.0,0.0,0.0,0.0,0.0,0.0,0.0,0.0,0.0,0.0,0.0,0.0,0.0,0.0,0.0,0.0,0.0,0.0,0.0,0.0,0.0,0.0,0.0,0.0,0.0,0.0,0.0,0.0,0.0,0.0,0.0,0.0,0.0,0.0,0.0,0.0,0.0,0.0,0.0,0.0,0.0,0.0,0.0,0.0,0.0,0.0,0.0,0.0,0.8841,1.0183,1.0772,1.0473,0.9143,0.859,0.888,0.0,0.0,0.0,0.0,0.0,0.0,0.0,0.0,0.0,0.0,0.0,0.0,0.0,0.0,0.0,0.0,0.0,0.0,0.0,0.0,0.0,0.0,0.0,0.0,0.0,0.0,0.0,0.0,0.0,0.0,0.0,0.0,0.0,0.0,0.0,0.0,0.0,0.0,0.0,0.0,0.0,0.0,0.0,0.0,0.0,0.0,0.0,0.0,0.0,0.0,0.0,0.0,0.0,0.0,0.0,0.0,0.0,0.0,0.0,0.0,0.0,0.0,0.0,0.0,0.0,0.0,0.0,0.0,0.0,0.0,0.0,0.0,0.0,0.0,0.0,0.0,0.0,0.0,0.0,0.0,0.0,0.0,0.0,0.0,0.0,0.0,0.0,0.0,0.0,0.0,0.0,0.0,0.0,0.0,0.0,0.0,0.0,0.0,0.0,0.0,0.0,0.0,0.0,0.0,0.0,0.0,0.0,0.0,1.0335,1.1739,1.1705,1.0137,0.9729,0.9039,0.0,0.0,0.0,0.0,0.0,0.0,0.0,0.0,0.0,0.0,0.0,0.0,0.0,0.0,0.0,0.0,0.0,0.0,0.0,0.0,0.0,0.0,0.0,0.0,0.0,0.0,0.0,0.0,0.0,0.0,0.0,0.0,0.0,0.0,0.0,0.0,0.0,0.0,0.0,0.0,0.0,0.0,0.0,0.0,0.0,0.0,0.0,0.0,0.0,0.0,0.0,0.0,0.0,0.0,0.0,0.0,0.0,0.0,0.0,0.0,0.0,0.0,0.0,0.0,0.0,0.0,0.0,0.0,0.0,0.0,0.0,0.0,0.0,0.0,0.0,0.0,0.0,0.0,0.0,0.0,0.0,0.0,0.0,0.0,0.0,0.0,0.0,0.0,0.0,0.0,0.0,0.0,0.0,0.0,0.0,0.0,0.0,0.0,0.0,0.0,0.0,0.0,0.0,0.0,0.0,0.0,0.0,0.0,0.0,1.0909,1.1897,1.2215,1.1739,1.0672,0.9879,0.0,0.0,0.0,0.0,0.0,0.0,0.0,0.0,0.0,0.0,0.0,0.0,0.0,0.0,0.0,0.0,0.0,0.0,0.0,0.0,0.0,0.0,0.0,0.0,0.0,0.0,0.0,0.0,0.0,0.0,0.0,0.0,0.0,0.0,0.0,0.0,0.0,0.0,0.0,0.0,0.0,0.0,0.0,0.0,0.0,0.0,0.0,0.0,0.0,0.0,0.0,0.0,0.0,0.0,0.0,0.0,0.0,0.0,0.0,0.0,0.0,0.0,0.0,0.0,0.0,0.0,0.0,0.0,0.0,0.0,0.0,0.0,0.0,0.0,0.0,0.0,0.0,0.0,0.0,0.0,0.0,0.0,0.0,0.0,0.0,0.0,0.0,0.0,0.0,0.0,0.0,0.0,0.0,0.0,0.0,0.0,0.0,0.0,0.0,0.0,0.0,0.0,0.0,0.0,0.0,0.0,0.0,0.0,1.0616,1.1618,1.1877,1.2042,1.2068,1.1651,1.1016,0.0,0.0,0.0,0.0,0.0,0.0,0.0,0.0,0.0,0.0,0.0,0.0,0.0,0.0,0.0,0.0,0.0,0.0,0.0,0.0,0.0,0.0,0.0,0.0,0.0,0.0,0.0,0.0,0.0,0.0,0.0,0.0,0.0,0.0,0.0,0.0,0.0,0.0,0.0,0.0,0.0,0.0,0.0,0.0,0.0,0.0,0.0,0.0,0.0,0.0,0.0,0.0,0.0,0.0,0.0,0.0,0.0,0.0,0.0,0.0,0.0,0.0,0.0,0.0,0.0,0.0,0.0,0.0,0.0,0.0,0.0,0.0,0.0,0.0,0.0,0.0,0.0,0.0,0.0,0.0,0.0,0.0,0.0,0.0,0.0,0.0,0.0,0.0,0.0,0.0,0.0,0.0,0.0,0.0,0.0,0.0,0.0,0.0,0.0,0.0,0.0,0.0,0.0,0.0,0.0,0.0,0.0,0.0,1.095,1.2267,1.1855,1.1584,1.1622,1.2479,1.2112,0.0,0.0,0.0,0.0,0.0,0.0,0.0,0.0,0.0,0.0,0.0,0.0,0.0,0.0,0.0,0.0,0.0,0.0,0.0,0.0,0.0,0.0,0.0,0.0,0.0,0.0,0.0,0.0,0.0,0.0,0.0,0.0,0.0,0.0,0.0,0.0,0.0,0.0,0.0,0.0,0.0,0.0,0.0,0.0,0.0,0.0,0.0,0.0,0.0,0.0,0.0,0.0,0.0,0.0,0.0,0.0,0.0,0.0,0.0,0.0,0.0,0.0,0.0,0.0,0.0,0.0,0.0,0.0,0.0,0.0,0.0,0.0,0.0,0.0,0.0,0.0,0.0,0.0,0.0,0.0,0.0,0.0,0.0,0.0,0.0,0.0,0.0,0.0,0.0,0.0,0.0,0.0,0.0,0.0,0.0,0.0,0.0,0.0,0.0,0.0,0.0,0.0,0.0,0.0,0.0,0.0,0.0,0.0,1.0767,1.1746,1.2068,1.201,1.1619,1.2209,1.1827,0.0,0.0,0.0,0.0,0.0,0.0,0.0,0.0,0.0,0.0,0.0,0.0,0.0,0.0,0.0,0.0,0.0,0.0,0.0,0.0,0.0,0.0,0.0,0.0,0.0,0.0,0.0,0.0,0.0,0.0,0.0,0.0,0.0,0.0,0.0,0.0,0.0,0.0,0.0,0.0,0.0,0.0,0.0,0.0,0.0,0.0,0.0,0.0,0.6206,0.0,0.0,0.0,0.0,0.0,0.0,0.0,0.0,0.0,0.0,0.0,0.0,0.0,0.0,0.0,0.0,0.0,0.0,0.0,0.0,0.0,0.0,0.0,0.0,0.0,0.0,0.0,0.0,0.0,0.0,0.0,0.0,0.0,0.0,0.0,0.0,0.0,0.0,0.0,0.0,0.0,0.0,0.0,0.0,0.0,0.0,0.0,0.0,0.0,0.0,0.0,0.0,0.0,0.0,0.0,0.0,0.0,0.0,0.0,1.1511,1.196,1.1957,1.1858,1.1645,1.2135,1.1945,0.0,0.0,0.0,0.0,0.0,0.0,0.0,0.0,0.0,0.0,0.0,0.0,0.0,0.0,0.0,0.0,0.0,0.0,0.0,0.0,0.0,0.0,0.0,0.0,0.0,0.0,0.0,0.0,0.0,0.0,0.0,0.0,0.0,0.0,0.0,0.0,0.0,0.0,0.0,0.0,0.0,0.0,0.0,0.0,0.0,0.0,0.0,0.0,0.0,0.0,0.0,0.0,0.0,0.0,0.0,0.0,0.0,0.0,0.0,0.0,0.0,0.0,0.0,0.0,0.0,0.0,0.0,0.0,0.0,0.0,0.0,0.0,0.0,0.0,0.0,0.0,0.0,0.0,0.0,0.0,0.0,0.0,0.0,0.0,0.0,0.0,0.0,0.0,0.0,0.0,0.0,0.0,0.0,0.0,0.0,0.0,0.0,0.0,0.0,0.0,0.0,0.0,0.0,0.0,0.0,0.0,0.0,1.1658,1.2291,1.226,1.1879,1.1659,1.163,1.2305,1.2317,1.1541,0.0,0.0,0.0,0.0,0.0,0.0,0.0,0.0,0.0,0.0,0.0,0.0,0.0,0.0,0.0,0.0,0.0,0.0,0.0,0.0,0.0,0.0,0.0,0.0,0.0,0.0,0.0,0.0,0.0,0.0,0.0,0.0,0.0,0.0,0.0,0.0,0.0,0.0,0.7576,0.8564,0.0,0.0,0.0,0.0,0.0,0.0,0.0,0.0,0.6816,0.0,0.0,0.0,0.0,0.0,0.0,0.0,0.0,0.0,0.0,0.0,0.0,0.0,0.0,0.0,0.0,0.0,0.0,0.0,0.0,0.0,0.0,0.0,0.0,0.0,0.0,0.0,0.0,0.0,0.0,0.0,0.0,0.0,0.0,0.0,0.0,0.0,0.0,0.0,0.0,0.0,0.0,0.0,0.0,0.0,0.0,0.0,0.0,0.0,0.0,0.0,0.0,0.0,0.0,0.0,0.0,1.111,1.1525,1.1773,1.1811,1.2223,1.2179,1.173,1.2855,1.2908,1.1652,0.0,0.0,0.0,0.0,0.0,0.0,0.0,0.0,0.0,0.0,0.0,0.0,0.0,0.0,0.0,0.0,0.0,0.0,0.0,0.0,0.0,0.0,0.0,0.0,0.0,0.0,0.0,0.0,0.0,0.0,0.0,0.0,0.0,0.0,0.0,0.0,0.0,0.0,0.0,1.0349,1.1343,0.0,0.0,0.0,0.0,0.0,0.0,0.0,0.0,0.6355,0.0,0.0,0.0,0.0,0.0,0.0,0.0,0.0,0.0,0.0,0.0,0.0,0.0,0.0,0.0,0.0,0.0,0.0,0.0,0.0,0.0,0.0,0.0,0.0,0.0,0.0,0.0,0.0,0.0,0.0,0.0,0.0,0.0,0.0,0.0,0.0,0.0,0.0,0.0,0.0,0.0,0.0,0.0,0.0,0.0,0.0,0.0,0.0,0.0,0.0,0.0,0.0,0.0,0.0,0.0,1.093,1.1706,1.1973,1.1663,1.1925,1.1962,1.1733,1.2327,1.2337,0.0,0.0,0.0,0.0,0.0,0.0,0.0,0.0,0.0,0.0,0.0,0.0,0.0,0.0,0.0,0.0,0.0,0.0,0.0,0.0,0.0,0.0,0.0,0.0,0.0,0.0,0.0,0.0,0.0,0.0,0.0,0.0,0.0,0.0,0.0,0.0,0.0,0.0,0.0,0.0,1.0185,1.0842,1.0546,0.0,0.0,0.0,0.0,0.0,0.0,0.8049,0.7294,0.0,0.0,0.0,0.0,0.0,0.0,0.0,0.0,0.0,0.0,0.0,0.0,0.0,0.0,0.0,0.0,0.0,0.0,0.0,0.0,0.0,0.0,0.0,0.0,0.0,0.0,0.0,0.0,0.0,0.0,0.0,0.0,0.0,0.0,0.0,0.0,0.0,0.0,0.0,0.0,0.0,0.0,0.0,0.0,0.0,0.0,0.0,0.0,0.0,0.0,0.0,0.0,0.0,0.0,0.0,1.0593,1.1788,1.2161,1.1678,1.1648,1.167,1.1714,1.1993,1.1996,0.0,0.0,0.0,0.0,0.0,0.0,0.0,0.0,0.0,0.0,0.0,0.0,0.0,0.0,0.0,0.0,0.0,0.0,0.0,0.0,0.0,0.0,0.0,0.0,0.0,0.0,0.0,0.0,0.0,0.0,0.0,0.0,0.0,0.0,0.0,0.0,0.0,0.0,0.0,0.0,0.0,1.0456,1.0672,1.0286,0.0,0.0,0.0,0.0,0.9962,0.9415,0.0,0.0,0.0,0.0,0.0,0.0,0.0,0.0,0.0,0.0,0.0,0.0,0.0,0.0,0.0,0.0,0.0,0.0,0.0,0.0,0.0,0.0,0.0,0.0,0.0,0.0,0.0,0.0,0.0,0.0,0.0,0.0,0.0,0.0,0.0,0.0,0.0,0.0,0.0,0.0,0.0,0.0,0.0,0.0,0.0,0.0,0.0,0.0,0.0,0.0,0.0,0.0,0.0,0.0,0.0,0.0,1.0428,1.1332,1.1803,1.1783,1.1779,1.1768,1.1809,1.2933,1.2981,0.0,0.0,0.0,0.0,0.0,0.0,0.0,0.0,0.0,0.0,0.0,0.0,0.0,0.0,0.0,0.0,0.0,0.0,0.0,0.0,0.0,0.0,0.0,0.0,0.0,0.0,0.0,0.0,0.0,0.0,0.0,0.0,0.0,0.0,0.0,0.0,0.0,0.0,0.0,0.0,0.0,1.2565,1.1518,1.1329,1.1271,0.0,0.0,1.0589,1.1198,1.0712,0.0,0.0,0.0,0.0,0.0,0.0,0.0,0.0,0.0,0.0,0.0,0.0,0.0,0.0,0.0,0.0,0.0,0.0,0.0,0.0,0.0,0.0,0.0,0.0,0.0,0.0,0.0,0.0,0.0,0.0,0.0,0.0,0.0,0.0,0.0,0.0,0.0,0.0,0.0,0.0,0.0,0.0,0.0,0.0,0.0,0.0,0.0,0.0,0.0,0.0,0.0,0.0,0.0,0.0,0.0,1.0132,1.1101,1.1544,1.1768,1.1816,1.1816,1.1816,1.1816,1.2718,1.2766,0.0,0.0,0.0,0.0,0.0,0.0,0.0,0.0,0.0,0.0,0.0,0.0,0.0,0.0,0.0,0.0,0.0,0.0,0.0,0.0,0.0,0.0,0.0,0.0,0.0,0.0,0.0,0.0,0.0,0.0,0.0,0.0,0.0,0.0,0.0,0.0,0.0,0.0,0.0,0.0,0.0,0.0,1.2889,1.2187,0.0,0.0,0.0,1.1803,1.2478,0.0,0.0,0.0,0.0,0.0,0.0,0.0,0.0,0.0,0.0,0.0,0.0,0.0,0.0,0.0,0.0,0.0,0.0,0.0,0.0,0.0,0.0,0.0,0.0,0.0,0.0,0.0,0.0,0.0,0.0,0.0,0.0,0.0,0.0,0.0,0.0,0.0,0.0,0.0,0.0,0.0,0.0,0.0,0.0,0.0,0.0,0.0,0.0,0.0,0.0,0.0,0.0,0.0,0.0,0.0,0.0,0.0,1.1673,1.1757,1.1816,1.1816,1.1816,1.1816,1.1816,1.2445,0.0,0.0,0.0,0.0,0.0,0.0,0.0,0.0,0.0,0.0,0.0,0.0,0.0,0.0,0.0,0.0,0.0,0.0,0.0,0.0,0.0,0.0,0.0,0.0,0.0,0.0,0.0,0.6648,0.0,0.0,0.0,0.0,0.0,0.0,0.0,0.0,0.0,0.0,0.0,0.0,0.0,0.0,1.0984,1.3471,1.2819,1.2516,0.0,0.0,1.317,1.3506,1.2609,1.1619,0.0,0.0,0.0,0.0,0.0,0.0,0.0,0.0,0.0,0.0,0.0,0.0,0.0,0.0,0.0,0.0,0.0,0.0,0.0,0.0,0.0,0.0,0.0,0.0,0.0,0.0,0.0,0.0,0.0,0.0,0.0,0.0,0.0,0.0,0.0,0.0,0.0,0.0,0.0,0.0,0.0,0.0,0.0,0.0,0.0,0.0,0.0,0.0,0.0,0.0,0.0,0.0,0.0,0.0,0.0,1.1644,1.1768,1.1816,1.1816,1.1816,1.1816,1.1805,1.2471,1.2475,0.0,0.0,0.0,0.0,0.0,0.0,0.0,0.0,0.0,0.0,0.0,0.0,0.0,0.0,0.0,0.0,0.0,0.0,0.0,0.0,0.0,0.0,0.0,0.0,0.0,0.0,0.0,0.0,0.0,0.0,0.0,0.0,0.0,0.0,0.0,0.0,0.0,0.0,0.0,0.0,0.0,1.1652,1.2412,1.3171,1.3456,0.0,0.0,1.4621,1.4046,1.3316,1.255,1.1824,0.0,0.0,0.0,0.0,0.0,0.0,0.0,0.0,0.0,0.0,0.0,0.0,0.0,0.0,0.0,0.0,0.0,0.0,0.0,0.0,0.0,0.0,0.0,0.0,0.0,0.0,0.0,0.0,0.0,0.0,0.0,0.0,0.0,0.0,0.0,0.0,0.0,0.0,0.0,0.0,0.0,0.0,0.0,0.0,0.0,0.0,0.0,0.0,0.0,0.0,0.0,0.0,0.0,1.045,1.1753,1.1768,1.1816,1.1816,1.1816,1.1816,1.1816,1.2044,1.207,0.0,0.0,0.0,0.0,0.0,0.0,0.0,0.0,0.0,0.0,0.0,0.0,0.0,0.0,0.0,0.0,0.0,0.0,0.0,0.0,0.0,0.0,0.0,0.0,0.0,0.0,0.0,0.0,0.5891,0.5577,0.5292,0.0,0.0,0.0,0.0,0.0,0.0,0.0,0.0,0.0,0.0,1.2086,1.349,1.3251,0.0,0.0,1.3521,1.3585,1.409,1.3434,1.2683,1.2255,1.1892,0.0,0.0,0.0,0.0,0.0,0.0,0.0,0.0,0.0,0.0,0.0,0.0,0.0,0.0,0.0,0.0,0.0,0.0,0.0,0.0,0.0,0.0,0.0,0.0,0.0,0.0,0.0,0.0,0.0,0.0,0.0,0.0,0.0,0.0,0.0,0.0,0.0,0.0,0.0,0.0,0.0,0.0,0.0,0.0,0.0,0.0,0.0,0.0,0.0,0.0,0.0,0.0,1.0469,1.1775,1.1816,1.1816,1.1816,1.1816,1.1816,1.1816,1.1816,1.1816,0.0,0.0,0.0,0.0,0.0,0.0,0.0,0.0,0.0,0.0,0.0,0.0,0.0,0.0,0.0,0.0,0.0,0.0,0.0,0.0,0.0,0.0,0.0,0.0,0.0,0.0,0.0,0.0,0.6804,0.6324,0.506,0.0,0.0,0.0,0.0,0.0,0.0,0.0,0.0,0.0,0.0,1.222,1.3925,1.3572,1.3366,1.4001,1.3894,1.3931,1.4391,1.3938,1.3367,1.294,0.0,0.0,0.0,0.0,0.0,0.0,0.0,0.0,0.0,0.0,0.0,0.0,0.0,0.0,0.0,0.0,0.0,0.0,0.0,0.0,0.0,0.0,0.0,0.0,0.0,0.0,0.0,0.0,0.0,0.0,1.1555,0.0,0.0,0.0,0.0,0.0,0.0,0.0,0.0,0.0,0.0,0.0,0.0,0.0,0.0,0.0,0.0,0.0,0.0,0.0,0.0,0.0,0.0,1.0518,1.1786,1.1846,1.1831,1.182,1.1816,1.1805,1.1816,1.1801,1.1775,1.1771,0.0,0.0,0.0,0.0,0.0,0.0,0.0,0.0,0.0,0.0,0.0,0.0,0.0,0.0,0.0,0.0,0.0,0.0,0.0,0.0,0.0,0.0,0.0,0.0,0.0,0.0,0.8567,0.7667,0.6386,0.0,0.0,0.0,0.0,0.0,0.0,0.0,0.0,0.0,0.0,1.202,1.2094,1.3396,1.4226,1.4425,1.3771,1.5408,1.632,1.5098,1.5045,1.4881,0.0,0.0,0.0,0.0,0.0,0.0,0.0,0.0,0.0,0.0,0.0,0.0,0.0,0.0,0.0,0.0,0.0,0.0,0.0,0.0,0.0,0.0,0.0,0.0,0.0,0.0,0.0,1.3959,1.3124,0.0,0.0,0.0,0.0,0.0,0.0,0.0,0.0,0.0,0.0,0.0,1.3471,1.4139,0.0,0.0,0.0,0.0,0.0,0.0,0.0,0.0,0.0,0.0,0.0,0.0,1.0743,1.2381,1.2471,1.246,1.246,1.2486,1.225,1.1805,1.1375,1.0957,1.0548,0.0,0.0,0.0,0.0,0.0,0.0,0.0,0.0,0.0,0.0,0.0,0.0,0.0,0.0,0.0,0.0,0.0,0.0,0.0,0.0,0.0,0.0,0.0,0.0,0.0,0.7481,0.0,0.0,0.0,0.0,0.0,0.0,0.0,0.0,0.0,0.0,0.0,1.3186,1.4495,1.4466,1.4644,1.5506,1.5074,1.4637,0.0,0.0,0.0,0.0,0.0,0.0,0.0,0.0,0.0,0.0,0.0,0.0,0.0,0.0,1.6215,1.3571,1.2289,1.1562,1.133,0.0,0.0,0.0,0.0,0.0,0.0,0.0,0.0,0.0,0.0,0.0,0.0,0.0,0.0,1.5425,0.0,1.4588,0.0,0.0,0.0,0.0,0.0,0.0,0.0,0.0,1.4739,1.5157,1.5172,1.5605,1.547,0.0,1.4842,1.4167,0.0,0.0,0.0,0.0,0.0,0.0,0.0,0.0,1.1187,1.3044,1.2909,1.2921,1.3133,1.3148,1.2822,1.2164,1.1495,1.0852,1.0234,1.0004,0.9908,0.0,0.0,0.0,0.0,0.0,0.0,0.0,0.0,0.0,0.0,0.0,0.0,0.0,0.0,0.0,0.0,0.0,0.0,0.0,0.0,0.0,0.0,0.0,0.8649,0.0,0.0,0.0,0.0,0.0,0.0,0.0,0.0,0.0,1.1014,1.2424,1.3889,1.5204,1.5272,1.5541,1.6531,0.0,0.0,0.0,0.0,0.0,0.0,0.0,1.708,1.7103,1.6865,1.6473,1.5891,1.6789,1.7454,1.707,0.0,0.0,1.5254,1.401,1.334,1.334,1.3118,1.3102,1.3662,1.3967,1.4315,0.0,0.0,0.0,0.0,0.0,0.0,0.0,0.0,1.6023,1.6308,0.0,1.6114,0.0,0.0,0.0,0.0,0.0,1.5771,0.0,0.0,1.7086,1.7699,1.7669,1.7654,1.7354,1.6831,1.7953,1.7266,1.4797,1.2272,0.0,0.0,0.0,0.0,0.0,0.0,1.1843,1.3737,1.3223,1.3181,1.381,1.3827,1.3496,1.2816,1.216,1.1521,1.0887,1.1386,1.1191,1.0024,0.986,0.0,0.0,0.0,0.0,0.0,0.0,0.0,0.0,0.0,0.0,0.0,0.0,0.0,0.0,0.0,0.0,0.0,0.0,0.0,0.0,1.0019,0.0,0.0,0.0,0.0,0.0,0.0,0.0,0.0,0.0,0.0,1.207,1.2624,1.3457,1.4809,0.0,0.0,0.0,0.0,1.6857,1.7468,1.84,1.8682,1.7767,1.7762,1.7531,1.657,0.0,0.0,1.6035,1.7815,1.8764,1.734,1.7847,1.8597,1.8859,1.7529,1.6632,1.6604,1.5828,1.5508,1.5803,1.6091,1.6536,2.0318,0.0,0.0,0.0,0.0,1.9091,1.9301,1.9316,1.9301,1.8835,1.8087,1.7445,0.0,0.0,0.0,0.0,0.0,0.0,1.713,1.7834,1.7758,1.7699,1.7699,1.7699,1.7609,1.7428,1.7803,1.7339,1.6159,1.5397,1.374,1.1326,0.0,0.0,0.0,0.0,1.3466,1.4423,1.4332,1.4318,1.4498,1.4526,1.3972,1.2831,1.2609,1.219,1.155,1.1241,1.1151,1.1211,0.9938,0.0,0.0,0.0,0.0,0.0,0.0,0.0,0.0,0.0,0.0,0.0,0.0,0.0,0.0,0.0,0.0,0.0,0.0,0.0,0.8747,0.9227,0.9584,0.0,0.0,0.0,0.0,0.0,0.0,0.0,0.0,0.0,1.3942,1.5572,1.7026,0.0,0.0,1.7767,1.8685,1.801,1.7792,1.8919,0.0,0.0,0.0,1.9348,1.9101,1.9367,1.8607,1.8058,1.8454,1.8268,1.8042,1.8041,1.7906,1.7814,1.786,1.7182,1.6567,1.6453,1.5878,1.5757,1.6731,1.6764,1.6671,2.2742,2.1575,2.0831,2.0501,2.0531,2.0932,2.1111,2.1096,2.1111,2.0782,2.0262,1.9585,1.8852,1.8105,1.7581,0.0,0.0,0.0,1.873,1.9477,1.9089,1.8894,1.8864,1.861,1.8358,1.8117,1.8373,1.8012,1.7115,1.7637,1.6488,1.3857,0.0,0.0,1.3448,1.3929,1.4541,1.514,1.4946,1.4931,1.517,1.4931,1.4421,1.3628,1.3086,1.2621,1.222,1.1805,1.167,1.1775,1.0942,1.0283,0.0,0.0,0.0,0.0,0.0,0.0,0.0,0.0,0.0,0.0,0.0,0.5296,0.0,0.0,0.0,0.0,0.7376,0.8992,1.0322,1.0697,0.0,0.0,0.0,0.0,0.0,0.0,0.0,1.4034,1.4781,1.5344,1.5769,1.747,1.8453,1.7945,1.7986,1.8386,1.9184,0.0,1.8822,1.9762,2.005,2.0305,2.0674,2.0119,1.9742,2.0054,1.9494,1.9101,1.9452,1.8853,1.8501,1.877,1.8605,1.8336,1.8336,1.7955,1.7541,1.7287,1.6878,1.7006,1.812,1.7988,1.7818,2.4649,2.4545,2.2757,2.1939,2.1769,2.1829,2.1849,2.1769,2.1789,2.2134,2.2643,2.2014,2.1695,2.1625,2.0427,0.0,1.9061,2.024,2.0778,2.0838,2.0812,2.0778,2.0752,2.0094,1.945,1.8864,1.942,1.9061,1.7968,1.9091,1.8792,1.7054,1.6473,1.6098,1.5844,1.5305,1.5305,1.5844,1.5275,1.523,1.5769,1.5185,1.4841,1.4692,1.3523,1.2864,1.2816,1.2789,1.2519,1.1939,1.2415,1.1916,1.0168,0.0,0.0,0.0,0.0,0.0,0.0,0.0,0.0,0.0,0.0,0.0,0.0,0.0,0.0,0.0,0.9522,0.0,1.2621,1.3331,0.0,0.0,0.0,1.2699,1.2239,1.3184,1.4154,1.4871,0.0,0.0,1.7327,0.0,1.8311,1.6218,1.6802,1.7761,1.8663,1.9286,1.9781,2.0121,2.0434,2.0682,2.0749,2.021,1.9666,1.9346,1.9392,1.9544,1.9684,1.9584,1.9584,1.968,1.9634,1.9551,1.9568,1.9465,1.9402,1.877,1.8588,1.8741,1.932,1.9435,1.9386,2.4903,2.5307,2.4866,2.3819,2.2508,2.2951,2.2897,2.2478,2.2463,2.2553,2.2658,2.2014,2.1695,2.1699,2.1365,2.143,2.1744,2.1545,2.1724,2.2194,2.1695,2.147,2.1425,2.0782,2.0393,2.0195,1.9869,1.9525,1.9258,1.9543,1.972,1.9746,1.9597,1.8523,1.6592,1.6846,1.6832,1.6488,1.6323,1.6099,1.5814,1.5634,1.508,1.4051,1.3735,1.3328,1.2819,1.2789,1.2741,1.2549,1.2235,1.182,1.1371,1.0288,0.0,0.0,0.0,0.0,0.0,0.0,0.0,0.0,0.0,0.861,0.7271,0.0,0.9764,0.0,1.1666,1.2265,1.2059,1.2628,0.0,0.0,1.4079,1.4081,1.5367,1.4963,1.5007,1.6129,1.6593,1.703,1.7542,1.7858,1.7856,1.7341,1.852,1.9489,1.9494,1.9363,1.9521,2.004,1.9892,1.9886,2.0603,2.0194,1.9623,1.9197,1.9214,1.9488,2.0298,1.9975,1.978,2.0257,1.9945,1.9634,1.9634,1.9584,1.9796,2.0042,1.973,1.9386,1.9568,1.9617,1.9601,2.5262,2.5585,2.5277,2.4373,2.3182,2.4103,2.4298,2.3969,2.367,2.355,2.3505,2.2832,2.2383,2.2149,2.2149,2.2358,2.2658,2.2298,2.2473,2.3041,2.2463,2.2164,2.2119,2.1455,2.1156,2.1126,2.0468,2.0139,2.0124,1.9842,1.9869,2.0243,1.9974,1.9223,1.8117,1.87,1.87,1.8042,1.7444,1.6697,1.5844,1.5814,1.5574,1.5114,1.4827,1.4648,1.4543,1.4287,1.4,1.37,1.3343,1.2879,1.2269,1.1576,1.0932,0.0,0.0,0.0,0.0,0.0,0.0,0.0,0.0,0.0,0.0,0.0,1.1281,0.0,1.3032,1.3451,1.3934,1.432,1.4887,1.5709,1.5381,1.5426,1.6219,1.5934,1.6039,1.7025,1.7145,1.7279,1.7654,1.7968,1.8147,1.8147,1.9343,1.9963,1.9421,1.9343,1.9606,2.0097,1.9885,1.9946,2.0894,2.0797,2.0564,2.0355,2.0285,2.0521,2.1073,2.0853,2.0737,2.1052,2.0868,2.0558,2.0574,2.0588,2.0737,2.0969,2.087,2.0607,2.0591,2.0572,2.0574,2.5794,2.5809,2.5217,2.4657,2.4193,2.5375,2.5674,2.53,2.4724,2.453,2.4575,2.3984,2.3475,2.3077,2.2987,2.2942,2.2942,2.2853,2.3107,2.355,2.3062,2.2823,2.2793,2.2128,2.1849,2.1799,2.1156,2.0808,2.0812,2.0154,1.9869,1.9914,1.9301,1.9286,1.9929,2.0524,2.0468,1.9693,1.8461,1.725,1.6098,1.6128,1.6338,1.6651,1.6189,1.6159,1.6651,1.6189,1.5649,1.5081,1.505,1.4406,1.3029,1.3011,1.2415,0.0,1.1007,0.0,0.0,0.0,0.0,0.0,0.0,0.0,0.0,1.158,1.2822,1.3735,1.4096,1.4933,1.6428,1.6726,1.6652,1.6248,1.6562,1.6652,1.6248,1.6562,1.7055,1.7637,1.7699,1.7713,1.7863,1.8341,1.87,1.8854,1.9548,1.98,1.9118,1.9386,1.9861,2.0104,2.0154,2.0248,2.0845,2.1276,2.1476,2.1568,2.1531,2.1753,2.1731,2.1748,2.1764,2.1764,2.1715,2.1715,2.1781,2.1748,2.1748,2.1731,2.1681,2.1665,2.1681,2.1665,2.1781,2.6746,2.7186,2.7091,2.6971,2.6866,2.7121,2.5997,2.3969,2.3827,2.4103,2.459,2.447,2.4634,2.4986,2.4485,2.4231,2.4201,2.367,2.3511,2.3595,2.3475,2.343,2.3385,2.2787,2.2508,2.2463,2.1849,2.15,2.15,2.0842,2.0797,2.1291,2.0643,2.0662,2.1291,0.0,0.0,0.0,1.8927,1.8132,1.74,1.7864,1.7684,1.6741,1.6592,0.0,1.6681,1.6592,1.6488,1.6353,1.6338,0.0,0.0,0.0,0.0,0.0,0.0,0.0,0.0,0.0,0.0,0.0,1.4107,1.3418,1.2426,1.441,1.5247,1.4006,1.5711,1.6682,1.6054,1.6906,1.7699,1.8089,1.7758,1.7669,1.8059,1.7773,1.7579,1.7684,1.7713,1.7923,1.8448,1.8627,1.8912,1.9393,1.9671,1.9719,1.9528,1.9801,2.0015,1.9854,1.9836,1.9854,1.9962,2.0345,2.0812,2.0926,2.123,2.1495,2.1736,2.1781,2.1781,2.1781,2.1781,2.1781,2.1781,2.1781,2.1781,2.1781,2.1781,2.1781,2.1781,2.1781,2.1781,2.6806,0.0,2.7106,2.6926,0.0,2.6986,2.6162,2.4612,2.4926,2.5091,2.5083,2.5083,2.5277,2.5561,2.5232,2.5083,2.5053,2.4395,2.4096,2.4066,2.3759,2.3595,2.3595,2.3266,2.3152,2.3137,2.2488,2.2209,2.2143,2.1515,2.1181,2.1201,2.0872,2.0707,2.0707,2.0726,2.0363,1.9708,1.9361,1.8702,1.7758,1.7697,1.7697,1.7652,0.0,0.0,0.0,0.0,0.0,0.0,0.0,0.0,0.0,0.0,0.0,1.4305,1.4544,1.4588,1.4287,1.3972,1.4092,1.4766,1.5125,1.514,1.4752,1.5666,1.6114,1.58,1.695,1.7444,1.6847,1.7341,1.7832,1.8147,1.7908,1.7968,1.8538,1.8386,1.8326,1.8627,1.867,1.8837,1.9136,1.9196,1.9301,1.9648,1.9723,1.9723,1.9708,1.9836,1.9856,1.9729,1.9856,2.003,2.0239,2.0513,2.0861,2.123,2.1449,2.1602,2.1751,2.1781,2.1781,2.1781,2.1781,2.1781,2.1781,2.1781,2.1781,2.1781,2.1781,2.1781,2.1781,2.1781,2.1781,2.6767,2.6791,2.6776,2.6437,2.5989,2.6527,2.6467,2.5989,0.0,0.0,0.0,2.5779,2.5815,2.5944,2.5839,2.5719,2.5546,2.4918,2.4605,2.4575,2.3902,2.367,2.3774,2.3655,2.3595,2.3565,2.3092,2.2853,2.2838,2.2209,2.1605,2.1077,2.0927,2.0543,1.9932,1.9854,1.9809,1.9723,1.9809,1.9286,1.8087,1.7623,1.7893,1.8867,1.7697,1.7594,1.8642,1.7518,1.6876,1.6876,1.6398,1.6038,1.5844,1.6383,1.6592,1.6398,1.6592,1.6488,1.5994,1.5559,1.5081,1.4515,1.5634,1.6473,1.6861,1.6428,1.6578,1.7624,1.7803,1.7893,1.7861,1.7997,1.8057,1.8042,1.8057,1.8296,1.8807,1.8882,1.9076,1.9603,1.9648,1.9708,1.9678,1.9678,1.9768,1.9857,1.9947,1.9947,1.9992,1.9906,1.9726,1.9726,1.9874,2.0189,2.0529,2.0795,2.1214,2.1323,2.1493,2.1616,2.1632,2.1631,2.1616,2.1555,2.1663,2.1693,2.1691,2.1736,2.1781,2.1781,2.1781,2.1781,2.1781,2.1781,2.1781,2.745,2.7465,2.7465,2.7405,2.733,2.742,2.739,2.7225,2.6213,2.6019,2.6452,2.6452,2.6791,2.7285,2.6707,2.6138,2.5585,2.4918,2.4605,0.0,2.3902,2.3909,2.441,2.3857,2.3595,2.3595,2.352,2.3475,2.34,2.2853,2.2508,2.2358,2.1829,2.1216,2.0617,2.0554,2.0273,1.9738,2.0273,2.0183,1.9468,1.9866,1.9926,1.9558,1.8807,1.8491,1.8672,1.7953,1.7579,1.7548,1.7474,1.6937,1.5918,1.6398,1.6204,1.5231,1.6114,1.6651,1.6607,1.7026,1.7234,1.722,1.7848,1.8104,1.7624,1.7473,1.7519,1.7728,1.8237,1.8553,1.8612,1.9031,1.9331,1.9361,1.9408,1.945,1.951,1.951,1.9558,1.9693,1.9723,1.9723,1.9723,1.9738,1.9977,2.0393,2.0528,2.0752,2.0991,2.0408,1.9783,1.9723,1.9744,1.9782,2.0071,2.017,2.0492,2.0413,2.0795,2.1039,2.1086,2.1055,2.1039,2.0974,2.1198,2.134,2.1371,2.1617,2.1706,2.1736,2.1768,2.1751,2.1766,2.1781,2.1781,2.7585,2.7585,2.7585,2.7585,2.7585,2.7585,2.7585,2.754,2.6956,2.6866,2.7136,2.7151,2.7315,2.7555,2.7285,2.6986,2.6647,2.5989,2.5704,2.5591,2.4605,2.4507,2.4993,2.4066,2.3804,2.4081,2.3774,2.3595,2.3565,2.3317,2.3011,2.2673,2.2024,2.153,2.1261,2.1246,2.0917,2.0273,2.0198,2.0004,1.969,1.963,1.9645,1.9678,1.8702,1.8358,1.8687,1.8057,1.7699,1.7699,1.7699,1.7429,1.6892,1.7429,1.7534,1.6982,1.7459,1.7788,1.7772,1.7712,1.7863,1.8207,1.8523,1.8912,1.9298,1.8672,1.8403,1.8762,1.9076,1.9258,1.9241,1.9528,1.9723,1.9723,1.9723,1.9723,1.9723,1.9723,1.9723,1.9723,1.9723,1.9723,1.9723,2.0004,2.0318,2.0692,2.0976,2.138,2.168,2.1216,2.0767,2.0801,2.0782,2.07,2.0549,2.062,2.08,2.099,2.0883,2.0967,2.1157,2.1078,2.0857,2.081,2.0957,2.1006,2.1023,2.1135,2.1308,2.1494,2.1541,2.157,2.1721,2.1781,2.1781,2.7585,2.76,2.7779,2.7824,2.7824,2.766,2.7585,2.7585,2.7585,2.7585,2.7585,2.7585,2.7585,2.7585,2.7585,2.751,2.7315,2.6851,2.6602,2.6482,2.5352,2.5187,2.5659,2.4597,2.4253,2.4515,2.4051,2.3759,2.361,2.3595,2.337,2.2897,2.2368,2.2054,2.1939,2.1904,2.159,2.0912,2.0408,1.9989,1.9693,1.9181,1.9181,1.9573,1.8568,1.8162,1.8625,1.8057,1.7699,1.7699,1.7699,1.7699,1.7728,1.8192,1.8478,1.8493,1.8627,1.8777,1.8882,1.8463,1.8446,1.9074,1.9151,1.966,2.0643,1.9989,1.9585,2.0049,2.0154,2.0172,2.0202,2.0187,2.0157,2.0157,2.0139,2.0213,2.0172,2.0157,2.0142,2.0157,2.0172,2.0168,2.0243,2.0602,2.0987,2.1261,2.1724,2.2099,2.2128,2.2149,2.2128,2.2054,2.1904,2.1549,2.1325,2.1304,2.1363,2.1641,2.1317,2.1284,2.1486,2.1272,2.1073,2.107,2.1127,2.1116,2.0976,2.1171,2.1259,2.1311,2.1327,2.1488,2.162,2.1829,2.1856,2.7615,2.769,2.8263,2.8502,2.8442,2.7899,2.7645,2.7645,2.76,2.7585,2.7675,2.76,2.763,2.7585,2.7585,2.7285,2.6791,2.6656,2.6617,2.6542,2.5869,2.5869,2.6393,2.5734,2.5113,2.4709,2.456,2.4201,2.3684,2.361,2.3565,2.352,2.3445,2.3116,2.2673,2.2613,2.2283,2.162,2.1545,2.0932,1.9798,1.963,1.9615,1.9675,1.9001,1.8625,1.8732,1.8057,1.7713,1.7699,1.7743,1.7728,1.7743,1.7772,1.7818,1.7861,1.8386,1.8942,1.954,1.9558,1.9794,2.0419,2.0498,2.0812,2.1515,2.147,2.1425,2.15,2.1515,2.1395,2.15,2.144,2.1385,2.134,2.1385,2.15,2.141,2.15,2.1515,2.1515,2.137,2.15,2.138,2.15,2.1829,2.2358,2.2832,2.3191,2.3206,2.3221,2.3236,2.3131,2.2517,2.1779,2.157,2.159,2.1673,2.1619,2.1594,2.1631,2.1704,2.1715,2.1607,2.1455,2.1744,2.1701,2.1546,2.1771,2.1984,2.1395,2.1415,2.1674,2.152,2.1907,2.2214,2.8783,2.8813,2.9082,2.919,2.9131,2.8888,2.8783,2.8783,2.8757,2.8783,2.8798,2.8783,2.8349,2.76,2.7585,2.7435,2.721,2.7195,2.7195,2.7136,2.6522,2.6551,2.7031,2.6078,2.563,2.5749,2.5382,2.4844,2.4216,2.3804,2.3595,2.3595,2.3595,2.346,2.3236,2.3221,2.2927,2.2313,2.2298,2.1834,2.1011,2.0872,2.0711,2.0318,2.0034,1.9675,1.9316,1.9016,1.8882,1.8882,1.8882,1.8867,1.8882,1.8897,1.8882,1.8927,1.9507,2.0183,2.0827,2.0891,2.0991,2.1291,2.1291,2.156,2.2224,2.2298,2.2433,2.2682,2.2143,2.1695,2.171,2.1695,2.1695,2.1695,2.1695,2.171,2.1695,2.171,2.1695,2.1695,2.1695,2.171,2.1774,2.2059,2.2538,2.3107,2.3475,2.358,2.3595,2.3595,2.3595,2.355,2.3116,2.2697,2.2306,2.2258,2.2258,2.2142,2.1839,2.1655,2.2153,2.1829,2.16,2.172,2.1908,2.1935,2.1553,2.1744,2.193,2.1626,2.2177,2.2658,2.257,2.2948,2.3161,2.9621,2.9621,2.9621,2.9684,2.9846,2.9681,2.9621,2.9621,2.9621,2.9621,2.9621,2.9621,2.9082,2.8244,2.8154,2.8139,2.8124,2.7959,2.7869,2.7794,2.7171,2.7151,2.7465,2.6632,2.6303,2.6467,2.6093,2.545,2.4664,2.4358,2.3969,2.3684,2.3789,2.3789,2.361,2.3595,2.3385,2.2987,2.2942,2.2703,2.2263,2.2203,2.1814,2.1062,2.0957,2.0752,2.0292,2.0228,2.0247,2.0262,2.0243,2.0247,2.0243,2.0262,2.0262,2.0292,2.0692,2.1171,2.1665,2.1695,2.1784,2.1954,2.1984,2.2233,2.2793,2.2957,2.3152,2.3437,2.2757,2.2263,2.2218,2.2218,2.2218,2.2218,2.2218,2.2218,2.2248,2.2239,2.2263,2.2218,2.2338,2.2218,2.2293,2.2658,2.3137,2.3496,2.358,2.3595,2.3595,2.3595,2.3595,2.3595,2.358,2.3379,2.2963,2.2873,2.2894,2.2778,2.2387,2.2384,2.2826,2.236,2.2111,2.2577,2.2308,2.2134,2.2119,2.2104,2.2164,2.238,2.2795,2.3199,2.3007,2.3562,2.3866,2.9621,2.9651,2.9621,3.0011,3.0417,2.9879,2.9651,2.9729,2.9681,2.9651,2.9684,2.9669,2.9592,2.949,2.9517,2.9502,2.937,2.8816,2.8547,2.8487,2.7844,2.757,2.7585,2.7525,2.7195,2.6707,2.6602,2.5929,2.4784,2.5173,2.4866,2.3729,2.4268,2.4231,2.3699,2.364,2.3595,2.3505,2.3505,2.3505,2.3475,2.346,2.2862,2.1829,2.1665,2.1605,2.153,2.1575,2.1595,2.1575,2.1515,2.1545,2.158,2.1545,2.1515,2.1575,2.162,2.1665,2.1754,2.1799,2.2044,2.2538,2.2658,2.2897,2.3385,2.346,2.3505,2.3595,2.346,2.337,2.337,2.3281,2.334,2.337,2.343,2.3415,2.3445,2.331,2.349,2.343,2.334,2.3295,2.3415,2.3535,2.3505,2.358,2.3595,2.3595,2.3595,2.3595,2.3595,2.3595,2.3573,2.3515,2.3311,2.3258,2.3302,2.3199,2.3109,2.3256,2.3447,2.352,2.3424,2.3379,2.3251,2.3071,2.2882,2.2853,2.2957,2.3028,2.2899,2.3082,2.3356,2.3557,2.3882,3.0821,3.0836,3.0808,3.0943,3.1092,3.0911,3.0793,3.0821,3.0836,3.0808,3.0808,3.0821,3.0808,3.0808,3.0793,3.0357,2.9636,2.9352,2.9262,2.9146,2.8573,2.8233,2.8199,2.7824,2.751,2.7285,2.724,2.6767,2.5944,2.5719,2.5143,2.45,2.4903,2.4702,2.3864,2.4022,2.4036,2.364,2.3595,2.3595,2.3595,2.3595,2.3355,2.2936,2.2553,2.2149,2.171,2.1695,2.1695,2.1695,2.1695,2.1695,2.1695,2.1695,2.1909,2.2283,2.2343,2.2503,2.2847,2.2906,2.3011,2.3221,2.3266,2.3325,2.355,2.3595,2.3595,2.3595,2.3595,2.3595,2.3595,2.3595,2.3595,2.3595,2.3595,2.3595,2.3595,2.3595,2.3595,2.3595,2.3595,2.3595,2.3595,2.3595,2.3595,2.3595,2.3595,2.3595,2.3595,2.3595,2.3595,2.3595,2.3595,2.3566,2.3451,2.3451,2.3473,2.3407,2.3355,2.3282,2.337,2.3436,2.3362,2.3397,2.353,2.3528,2.317,2.3206,2.3385,2.3377,2.3282,2.3396,2.3765,2.3983,2.427,3.1496,3.1496,3.1496,3.1496,3.1496,3.1496,3.1496,3.1496,3.1496,3.1496,3.1496,3.1496,3.1496,3.1496,3.1496,3.1077,3.0238,2.9983,2.9879,2.9819,2.922,2.8801,2.8547,2.8139,2.7794,2.763,2.7585,2.7255,2.6671,2.6363,2.5794,2.4993,2.56,2.527,2.4216,2.4395,2.4261,2.3759,2.3804,2.3827,2.367,2.3819,2.3804,2.358,2.3191,2.2808,2.2308,2.2308,2.2308,2.2308,2.2328,2.2308,2.2323,2.2323,2.2503,2.2942,2.3002,2.3167,2.352,2.3595,2.3595,2.3595,2.3595,2.3595,2.3595,2.3595,2.3595,2.3595,2.3595,2.3595,2.3595,2.3595,2.3595,2.3595,2.3595,2.3595,2.3595,2.3595,2.3595,2.3595,2.3595,2.3595,2.3595,2.3595,2.3595,2.3595,2.3595,2.3595,2.3595,2.3588,2.3566,2.3545,2.3523,2.3494,2.3385,2.3341,2.3444,2.34,2.3378,2.3312,2.329,2.3334,2.3378,2.3444,2.3494,2.3523,2.3545,2.3573,2.3595,2.3616,2.3627,2.3667,2.403,2.4384,2.4516,3.1496,3.1496,3.1496,3.1496,3.1496,3.1496,3.1496,3.1496,3.1496,3.1496,3.1496,3.1496,3.1496,3.1496,3.1496,3.1451,3.1241,3.0733,3.0522,3.0447,2.9879,2.928,2.8786,2.8667,2.8263,2.7735,2.7645,2.7285,2.6737,2.7121,2.6767,2.5929,2.6273,2.5944,2.4619,2.4709,2.438,2.3954,2.4231,2.4216,2.3759,2.4126,2.4126,2.367,2.355,2.3505,2.349,2.349,2.3445,2.346,2.3475,2.3565,2.3445,2.3445,2.3535,2.3505,2.355,2.358,2.358,2.3595,2.3595,2.3595,2.3595,2.3595,2.3595,2.3595,2.3595,2.3595,2.3595,2.3595,2.3595,2.3595,2.3595,2.3595,2.3595,2.3595,2.3595,2.3595,2.3595,2.3595,2.3595,2.3595,2.3595,2.3595,2.3595,2.3595,2.3595,2.3595,2.3595,2.3581,2.3516,2.3473,2.3451,2.3444,2.3297,2.3209,2.3334,2.34,2.3378,2.3334,2.3312,2.3356,2.3378,2.3444,2.3429,2.3458,2.3545,2.3566,2.3588,2.3631,2.3717,2.3788,2.3979,2.4209,2.4395,3.1496,3.1496,3.1496,3.1496,3.1496,3.1496,3.1496,3.1496,3.1496,3.1496,3.1496,3.1496,3.1496,3.1496,3.1496,3.1496,3.1481,3.1271,3.1182,3.1062,3.0522,3.0103,2.9834,2.946,2.8948,2.8368,2.8278,2.7944,2.742,2.7495,2.7121,2.6557,2.6971,2.6557,2.5405,2.5704,2.5465,2.444,2.45,2.4276,2.367,2.3819,2.3819,2.3625,2.3595,2.3595,2.3595,2.3595,2.3595,2.3595,2.3595,2.3595,2.361,2.3595,2.3595,2.3595,2.3595,2.3595,2.361,2.3595,2.3595,2.3595,2.3595,2.3595,2.3595,2.3595,2.3595,2.3595,2.3595,2.3595,2.3595,2.3595,2.367,2.361,2.3595,2.3595,2.3595,2.3595,2.3595,2.3595,2.3595,2.3595,2.3595,2.3595,2.361,2.3655,2.364,2.364,2.3655,2.3716,2.3566,2.3545,2.3494,2.3533,2.3474,2.3496,2.3599,2.3489,2.3378,2.3282,2.329,2.3356,2.3378,2.34,2.3407,2.3451,2.3516,2.3581,2.3566,2.3588,2.3638,2.3702,2.3767,2.3915,2.4069,3.1496,3.1496,3.1496,3.1496,3.1496,3.1496,3.1496,3.1496,3.1496,3.1496,3.1496,3.1496,3.1496,3.1496,3.1496,3.1496,3.1496,3.1496,3.1496,3.1451,3.1107,3.0761,3.0462,2.9864,2.9262,2.8712,2.8592,2.8248,2.7615,2.757,2.739,2.7136,2.7405,2.7061,2.6093,2.6333,2.6033,2.5128,2.5202,2.5008,2.4537,2.4582,2.4582,2.4403,2.4343,2.4223,2.4007,2.3984,2.3849,2.3655,2.3595,2.3699,2.3924,2.3999,2.4073,2.4253,2.4118,2.3977,2.3954,2.3759,2.3595,2.3595,2.3595,2.3595,2.3595,2.3595,2.3595,2.3595,2.3827,2.3984,2.4014,2.4253,2.4328,2.4358,2.3879,2.364,2.3595,2.3595,2.3595,2.3595,2.3595,2.3595,2.3595,2.3595,2.3729,2.3879,2.3984,2.4163,2.4216,2.4343,2.4246,2.4201,2.4304,2.4169,2.3807,2.3806,2.3878,2.365,2.337,2.3267,2.3194,2.329,2.3356,2.34,2.3422,2.3451,2.3516,2.356,2.3566,2.3588,2.3595,2.3638,2.3681,2.3659,2.3788,3.1496,3.1496,3.1496,3.1496,3.1496,3.1496,3.1496,3.1496,3.1496,3.1496,3.1496,3.1496,3.1496,3.1496,3.1496,3.1496,3.1496,3.1496,3.1496,3.1496,3.1391,3.1137,3.0642,3.0163,2.9594,2.8966,2.8846,2.8442,2.7959,2.7809,2.7645,2.7675,2.7585,2.7315,2.6791,2.6647,2.6378,2.5839,2.6198,2.6123,2.5531,2.6033,2.6093,2.551,2.545,2.5173,2.4739,2.4649,2.4306,2.3714,2.3595,2.3849,2.4365,2.4545,2.4664,2.5076,2.4814,2.4485,2.435,2.3909,2.367,2.3759,2.3774,2.3699,2.3879,2.3984,2.3969,2.3984,2.435,2.4649,2.4754,2.5068,2.5405,2.5367,2.4448,2.3819,2.361,2.364,2.3752,2.3759,2.3684,2.3744,2.3909,2.3894,2.4126,2.4455,2.4627,2.4866,2.5111,2.5116,2.523,2.513,2.4914,2.4681,2.4282,2.4262,2.4341,2.418,2.3864,2.3706,2.3383,2.3378,2.3312,2.3356,2.3504,2.354,2.3509,2.3553,2.3566,2.3573,2.3595,2.3595,2.361,2.361,2.3804,3.1496,3.1496,3.1496,3.1496,3.1496,3.1496,3.1496,3.1496,3.1496,3.1496,3.1496,3.1496,3.1496,3.1496,3.1496,3.1496,3.1496,3.1496,3.1496,3.1496,3.1496,3.1421,3.1256,3.1062,3.0599,3.0013,2.9864,2.9654,2.9082,2.8558,2.8364,2.8308,2.7869,2.7555,2.7345,2.7315,2.6986,2.6422,2.6467,2.6318,2.5809,2.5824,2.5794,2.5644,2.5659,2.5531,2.5337,2.5322,2.4754,2.3699,2.3595,2.3655,2.3999,2.4022,2.4216,2.4388,2.4163,2.3939,2.3924,2.3774,2.3864,2.4276,2.4335,2.4567,2.5061,2.5061,2.5076,2.5106,2.5262,2.5337,2.5375,2.554,2.5644,2.551,2.4896,2.4201,2.3879,2.4022,2.4335,2.438,2.4747,2.4911,2.4941,2.4971,2.5076,2.5247,2.529,2.5333,2.5661,2.5649,2.5642,2.5309,2.5075,2.496,2.4829,2.4791,2.4767,2.4679,2.4562,2.4467,2.4022,2.365,2.3467,2.3319,2.3703,2.3822,2.3644,2.3554,2.3575,2.3894,2.3834,2.3924,2.3729,2.3684,2.4059,3.1496,3.1496,3.1496,3.1496,3.1496,3.1496,3.1496,3.1496,3.1496,3.1496,3.1496,3.1496,3.1496,3.1496,3.1496,3.1496,3.1496,3.1496,3.1496,3.1496,3.1496,3.1481,3.1481,3.1496,3.1137,3.0552,3.0507,3.0161,2.9621,2.9175,2.9067,2.8891,2.8338,2.8034,2.8004,2.7705,2.7435,2.7091,2.7031,2.6821,2.6467,2.6422,2.6437,2.6437,2.6422,2.6348,2.6063,2.5764,2.5187,2.4612,2.4462,2.4552,2.4837,2.4852,2.4971,2.5219,2.5031,2.4881,2.4792,2.4627,2.4627,2.4933,2.5023,2.5187,2.548,2.56,2.56,2.557,2.5839,2.5989,2.6063,2.6243,2.6273,2.6063,2.5674,2.5143,2.4507,2.4807,2.4993,2.5113,2.5322,2.5615,2.5615,2.563,2.5779,2.5905,2.5971,2.6126,2.634,2.6159,2.6046,2.5845,2.5791,2.581,2.5712,2.5641,2.5515,2.5388,2.5271,2.5204,2.4793,2.4252,2.4114,2.4004,2.4102,2.4133,2.4074,2.4156,2.4515,2.4664,2.444,2.4388,2.4358,2.4163,2.4507,3.1496,3.1496,3.1496,3.1496,3.1496,3.1496,3.1496,3.1496,3.1496,3.1496,3.1496,3.1496,3.1496,3.1496,3.1496,3.1496,3.1496,3.1496,3.1496,3.1496,3.1496,3.1496,3.1496,3.1496,3.1212,3.0748,3.0627,3.0387,3.0043,2.9804,2.9669,2.952,2.9011,2.8727,2.8577,2.8109,2.7794,2.7854,2.7764,2.769,2.76,2.757,2.7495,2.733,2.7345,2.7151,2.6701,2.6243,2.5839,2.5809,2.5689,2.5734,2.6273,2.6393,2.6572,2.6776,2.6333,2.6138,2.6288,2.5644,2.5561,2.5651,2.5719,2.5779,2.5929,2.6048,2.6033,2.6063,2.6378,2.6632,2.6776,2.721,2.718,2.6806,2.6647,2.6378,2.5974,2.5764,2.5719,2.5749,2.5764,2.5824,2.5809,2.5854,2.6048,2.6617,2.6658,2.6743,2.6897,2.6852,2.6811,2.6823,2.6809,2.6864,2.6692,2.651,2.6334,2.6188,2.6039,2.59,2.559,2.5213,2.5066,2.4958,2.4649,2.4681,2.4885,2.5112,2.5363,2.529,2.4969,2.5224,2.5442,2.5136,2.5211,3.1496,3.1496,3.1496,3.1496,3.1496,3.1496,3.1496,3.1496,3.1496,3.1496,3.1496,3.1496,3.1511,3.1525,3.1525,3.1496,3.154,3.1525,3.1496,3.1496,3.1496,3.1496,3.1496,3.1496,3.1406,3.1241,3.1271,3.1182,3.0957,3.0522,3.0313,3.0223,2.9729,2.9397,2.928,2.8742,2.8652,2.8963,2.8637,2.8308,2.8248,2.8233,2.8038,2.772,2.7615,2.754,2.7435,2.7255,2.718,2.6941,2.6273,2.5869,2.6004,2.5989,2.6123,2.6228,2.6108,2.5914,2.5839,2.5869,2.5869,2.6333,2.6408,2.6626,2.7136,2.7091,2.7106,2.718,2.7315,2.7315,2.733,2.7465,2.748,2.7345,2.7315,2.7285,2.7121,2.6662,2.6408,2.6467,2.6806,2.7151,2.7121,2.7031,2.7126,2.7335,2.733,2.7329,2.7338,2.7397,2.7295,2.7192,2.7111,2.7023,2.6905,2.6773,2.67,2.6612,2.6557,2.6476,2.617,2.5833,2.5584,2.5267,2.4936,2.5165,2.5634,2.5457,2.5607,2.5536,2.5577,2.5765,2.5917,2.5792,2.5937,3.1496,3.1496,3.1496,3.1496,3.1496,3.1496,3.1496,3.1496,3.1496,3.1496,3.1496,3.1496,3.1675,3.1914,3.1675,3.1645,3.1824,3.1615,3.1496,3.1496,3.1496,3.1496,3.1496,3.1496,3.1496,3.1496,3.1481,3.1496,3.1376,3.1167,3.0972,3.0898,3.0342,3.0043,2.9924,2.937,2.9056,2.8966,2.8801,2.8472,2.8199,2.8113,2.8248,2.7989,2.7809,2.7705,2.8008,2.7735,2.7615,2.742,2.6926,2.6527,2.6527,2.6527,2.6527,2.6527,2.6527,2.6527,2.6542,2.6542,2.6707,2.7016,2.7061,2.7255,2.751,2.7585,2.7585,2.7585,2.757,2.7585,2.7585,2.7585,2.7585,2.7585,2.7585,2.7585,2.754,2.727,2.7076,2.7121,2.733,2.748,2.7585,2.7585,2.7585,2.7455,2.7369,2.7352,2.7403,2.7423,2.7269,2.7181,2.7119,2.7052,2.6948,2.6881,2.6893,2.6834,2.6805,2.6753,2.6593,2.6272,2.593,2.5766,2.5725,2.6054,2.6375,2.6139,2.6022,2.6288,2.6421,2.6367,2.6386,2.653,2.6747,3.1496,3.1496,3.1496,3.1496,3.1496,3.1496,3.1496,3.1511,3.1615,3.1735,3.1705,3.172,3.2243,3.2452,3.2138,3.2153,3.2198,3.1989,3.1735,3.1525,3.1496,3.1496,3.1496,3.1496,3.1496,3.1496,3.1496,3.1496,3.1496,3.1496,3.1361,3.1376,3.0957,3.0702,3.0537,3.0043,2.9669,2.946,2.9235,2.8771,2.8274,2.8139,2.8304,2.8053,2.7899,2.7809,2.8053,2.7869,2.7585,2.7585,2.7585,2.7585,2.7585,2.7585,2.7585,2.754,2.742,2.7375,2.7345,2.7435,2.748,2.7585,2.757,2.7555,2.7585,2.7585,2.7585,2.7585,2.7585,2.7585,2.7585,2.7585,2.7585,2.7585,2.7585,2.7585,2.7585,2.7585,2.7525,2.754,2.7525,2.757,2.7585,2.7585,2.76,2.7549,2.7463,2.7412,2.7448,2.7397,2.7244,2.7192,2.7155,2.7081,2.6977,2.6899,2.6899,2.6925,2.6925,2.6899,2.6873,2.668,2.6447,2.6648,2.674,2.6861,2.6883,2.6722,2.6791,2.7167,2.7115,2.6855,2.7009,2.7316,2.7403,3.1496,3.1496,3.1496,3.1496,3.1496,3.1496,3.1511,3.16,3.2079,3.2318,3.2422,3.2901,3.3125,3.326,3.326,3.2946,3.2542,3.2243,3.1959,3.1585,3.1496,3.1496,3.1496,3.1496,3.1496,3.1496,3.1496,3.1496,3.1496,3.1496,3.1496,3.1466,3.1346,3.1271,3.1077,3.0746,3.0522,3.0404,3.0178,2.9654,2.9217,2.9037,2.8693,2.8158,2.7854,2.7809,2.7794,2.772,2.7585,2.7585,2.7585,2.7585,2.7585,2.7585,2.7585,2.7585,2.7585,2.7585,2.7585,2.7585,2.7585,2.7585,2.7585,2.7585,2.7585,2.7585,2.7585,2.7585,2.7585,2.7585,2.7585,2.766,2.763,2.7615,2.772,2.7735,2.772,2.7764,2.775,2.775,2.769,2.7585,2.7585,2.76,2.7575,2.7539,2.7463,2.7386,2.7372,2.7321,2.7233,2.7207,2.7192,2.7119,2.7029,2.6899,2.6846,2.6873,2.6873,2.6899,2.6873,2.6951,2.6977,2.6951,2.6937,2.6904,2.6945,2.7055,2.7067,2.7078,2.7155,2.7207,2.7233,2.7258,2.735,3.1496,3.1496,3.1496,3.1496,3.1496,3.1496,3.1705,3.2034,3.2377,3.2721,3.3036,3.3365,3.3709,3.3874,3.3604,3.3125,3.2662,3.2482,3.2108,3.163,3.1496,3.1496,3.1496,3.1496,3.1496,3.1496,3.1496,3.1496,3.1496,3.1496,3.1496,3.1496,3.1496,3.1496,3.1451,3.1197,3.0987,3.1002,3.0687,3.0223,2.9681,2.9594,2.9142,2.8783,2.8289,2.8113,2.8064,2.7705,2.76,2.7585,2.7585,2.7585,2.7615,2.763,2.7615,2.7615,2.76,2.7585,2.7585,2.7585,2.7585,2.7585,2.7585,2.7585,2.7585,2.7585,2.766,2.763,2.76,2.7585,2.76,2.7914,2.8094,2.8184,2.8364,2.8558,2.8603,2.8588,2.8408,2.8124,2.7884,2.775,2.7585,2.7575,2.7575,2.7514,2.7467,2.7476,2.7494,2.7436,2.7435,2.7391,2.7421,2.7231,2.7211,2.7202,2.7009,2.6951,2.7079,2.7065,2.6989,2.71,2.7039,2.6951,2.6925,2.691,2.6951,2.7029,2.7015,2.7,2.7067,2.7119,2.7144,2.717,2.7273,3.1496,3.1496,3.1496,3.1496,3.1496,3.1496,3.1869,3.2422,3.2677,3.311,3.3664,3.3888,3.4247,3.4457,3.4158,3.3589,3.2946,3.2976,3.2542,3.1884,3.175,3.169,3.1511,3.1496,3.1496,3.1496,3.1496,3.1496,3.1496,3.1496,3.1496,3.1496,3.1496,3.1496,3.1466,3.1421,3.1092,3.0883,3.0687,3.0387,2.9909,2.9681,2.9621,2.9606,2.9071,2.8786,2.8727,2.8438,2.8184,2.8154,2.8094,2.7989,2.7869,2.7929,2.7929,2.7809,2.769,2.76,2.7585,2.7585,2.7585,2.7585,2.7585,2.766,2.7914,2.8064,2.8109,2.7989,2.8049,2.8124,2.8274,2.8502,2.8727,2.8861,2.9205,2.9577,2.9457,2.9337,2.9116,2.8742,2.8259,2.7929,2.7809,2.7934,2.7998,2.811,2.8077,2.8233,2.8195,2.7974,2.7909,2.7792,2.768,2.7445,2.745,2.7637,2.7414,2.7244,2.7515,2.7717,2.7484,2.7321,2.7234,2.7231,2.6977,2.6977,2.7003,2.7033,2.7003,2.6989,2.6989,2.7015,2.7081,2.7144,2.7233,3.1496,3.1496,3.1496,3.1496,3.1496,3.1496,3.1869,3.2542,3.3095,3.3785,3.4354,3.4936,3.5205,3.5235,3.5235,3.4801,3.4369,3.4039,3.338,3.2378,3.2243,3.2004,3.16,3.1496,3.157,3.157,3.154,3.1496,3.1496,3.1496,3.1496,3.1496,3.1496,3.1496,3.1496,3.1496,3.1466,3.1376,3.1346,3.1061,3.0447,2.9981,2.9759,2.9636,2.9562,2.9442,2.9382,2.9187,2.9172,2.9217,2.9292,2.9026,2.8712,2.9082,2.8963,2.8502,2.7979,2.76,2.7735,2.7824,2.7839,2.7869,2.7779,2.7934,2.8368,2.8891,2.9157,2.9382,2.9292,2.9187,2.9127,2.9355,2.9472,2.952,2.9699,2.9789,2.9744,3.0103,2.9894,2.9579,2.9172,2.8483,2.8064,2.8278,2.8491,2.8591,2.869,2.8842,2.8847,2.8591,2.8424,2.8336,2.825,2.8054,2.79,2.8046,2.7948,2.7677,2.791,2.8256,2.8094,2.7875,2.7761,2.7671,2.7404,2.724,2.7345,2.7316,2.7094,2.6977,2.6989,2.7003,2.7003,2.7093,2.7222,3.1496,3.1496,3.1496,3.1496,3.1496,3.1496,3.1884,3.2542,3.32,3.3858,3.4563,3.5205,3.5489,3.5489,3.5489,3.5115,3.4592,3.4533,3.3754,3.2796,3.2527,3.2348,3.2034,3.172,3.1615,3.1929,3.1705,3.1496,3.1496,3.1525,3.1496,3.1496,3.1496,3.1496,3.1496,3.1496,3.1496,3.1481,3.1466,3.1361,3.1077,3.0806,3.0477,3.0161,3.0118,2.9939,2.9741,2.9621,2.9621,2.9621,2.9621,2.9502,2.928,2.9427,2.9442,2.922,2.8948,2.8783,2.8783,2.8723,2.8663,2.8708,2.8708,2.8933,2.9175,2.943,2.9639,2.9592,2.9606,2.9651,2.9771,2.9924,3.0043,3.0163,3.0328,3.0492,3.0537,3.0642,3.0687,3.0372,3.0028,2.9415,2.8921,2.9071,2.925,2.9182,2.9289,2.9423,2.9369,2.9154,2.903,2.895,2.8851,2.8752,2.8624,2.8598,2.8544,2.8387,2.836,2.8634,2.8647,2.8516,2.8387,2.8343,2.8225,2.8065,2.789,2.7538,2.7229,2.7094,2.6963,2.7123,2.727,2.7181,2.727,3.1496,3.1496,3.1496,3.1496,3.1496,3.1496,3.1884,3.2527,3.3215,3.3873,3.4548,3.5175,3.5489,3.5489,3.5474,3.525,3.4786,3.4758,3.4038,3.3335,3.2976,3.2946,3.2706,3.2288,3.2318,3.2736,3.2108,3.1869,3.1795,3.1765,3.1735,3.1511,3.1496,3.1496,3.1496,3.1496,3.1496,3.1496,3.1496,3.1466,3.1436,3.1436,3.1137,3.0911,3.0717,3.0552,3.0148,3.0118,3.0148,3.0163,3.0208,3.0148,2.9936,3.0088,3.0058,2.9968,2.9879,3.0073,2.9909,2.9759,2.9654,2.9624,2.9774,2.9744,2.9819,2.9909,3.0088,3.0238,3.0223,3.0178,3.0163,3.0567,3.0687,3.0911,3.1107,3.1346,3.1466,3.1271,3.1152,3.0957,3.0731,3.0597,3.0223,3.0118,3.0043,2.9879,2.9894,2.9998,2.9958,2.9873,2.9894,2.9888,2.979,2.9659,2.9423,2.9295,2.9183,2.9099,2.9085,2.9188,2.9347,2.923,2.9041,2.9012,2.8954,2.8649,2.8299,2.7817,2.7421,2.764,2.7771,2.7623,2.7591,2.7518,2.7559,3.1496,3.1496,3.1496,3.1496,3.1496,3.1496,3.1884,3.2437,3.317,3.386,3.4563,3.516,3.5489,3.5489,3.5489,3.5459,3.5385,3.5429,3.4816,3.4444,3.4309,3.3858,3.3499,3.3275,3.3245,3.3305,3.2781,3.2452,3.2422,3.2422,3.2064,3.1615,3.172,3.1585,3.1496,3.1496,3.1496,3.1496,3.1496,3.1496,3.1525,3.1555,3.1496,3.1451,3.1406,3.1406,3.1346,3.1197,3.1122,3.1122,3.1077,3.0898,3.0612,3.0851,3.0793,3.0642,3.0851,3.1016,3.0913,3.0357,2.9759,2.9789,3.0073,3.0462,3.0477,3.1017,3.1271,3.1152,3.0987,3.1107,3.1197,3.1391,3.1256,3.1286,3.1361,3.1421,3.1496,3.1481,3.1391,3.1421,3.1286,3.1077,3.1017,3.0851,3.0702,3.0537,3.0672,3.0791,3.0869,3.0827,3.0962,3.098,3.0865,3.0659,3.0316,3.0143,3.0031,2.9929,2.9871,3.0075,3.0293,3.0031,2.9667,2.9551,2.9464,2.9086,2.8839,2.8736,2.8634,2.8634,2.8547,2.8239,2.8194,2.8247,2.8307,3.1496,3.1496,3.1496,3.1496,3.1496,3.1496,3.1645,3.1959,3.2617,3.3514,3.4532,3.516,3.5489,3.5489,3.5489,3.5489,3.5489,3.5489,3.507,3.4666,3.4429,3.4354,3.4054,3.3829,3.3695,3.3873,3.3455,3.311,3.311,3.311,3.3036,3.2706,3.2303,3.1824,3.166,3.1585,3.1525,3.1496,3.1496,3.1496,3.1585,3.1914,3.1914,3.154,3.1989,3.1824,3.157,3.1496,3.1496,3.1511,3.1511,3.1301,3.1122,3.1391,3.1316,3.1092,3.1376,3.1466,3.1496,3.1031,3.0793,3.0778,3.0987,3.1077,3.1032,3.1376,3.1481,3.1481,3.1496,3.1496,3.1481,3.1481,3.1451,3.1481,3.1496,3.1496,3.1496,3.1496,3.1496,3.1466,3.1466,3.1391,3.1406,3.1421,3.1286,3.1182,3.1361,3.1496,3.1467,3.1409,3.1409,3.1351,3.122,3.1132,3.0776,3.0778,3.0822,3.0719,3.0601,3.0659,3.0702,3.0554,3.0235,3.0118,3.0031,2.9842,2.9799,2.9857,2.9668,2.9246,2.8926,2.8678,2.8749,2.8952,2.9012,3.1496,3.1496,3.1496,3.1496,3.1496,3.1496,3.163,3.1899,3.2557,3.3544,3.4786,3.531,3.5489,3.5489,3.5489,3.5489,3.5489,3.5459,3.5205,3.4981,3.4878,3.4818,3.4622,3.4487,3.4457,3.4562,3.4158,3.3784,3.3769,3.3784,3.3574,3.3365,3.3245,3.2796,3.2243,3.1869,3.172,3.154,3.1496,3.1496,3.1585,3.1854,3.2004,3.1645,3.2093,3.2243,3.1974,3.1884,3.1869,3.178,3.1675,3.1511,3.1481,3.1496,3.1496,3.1496,3.1496,3.1496,3.1496,3.1496,3.1496,3.1346,3.1376,3.1451,3.1496,3.1496,3.1496,3.1496,3.1496,3.1496,3.1496,3.1496,3.1496,3.1496,3.1496,3.1496,3.1496,3.1496,3.1496,3.1496,3.1496,3.1496,3.1496,3.1496,3.1451,3.1361,3.1421,3.1496,3.1467,3.1409,3.1365,3.1322,3.1205,3.119,3.1146,3.1058,3.0999,3.0955,3.0866,3.0852,3.0851,3.0732,3.0642,3.0527,3.0468,3.0598,3.0496,3.0292,2.9944,2.9537,2.942,2.9391,2.9566,2.9726,2.9624,3.1496,3.1496,3.1496,3.1496,3.1496,3.1496,3.1839,3.2422,3.3185,3.4143,3.5205,3.5444,3.5489,3.5489,3.5489,3.5489,3.5489,3.5489,3.5415,3.5355,3.528,3.5385,3.537,3.525,3.51,3.522,3.4846,3.4503,3.4488,3.4488,3.4189,3.3993,3.4083,3.3903,3.341,3.2796,3.2153,3.1645,3.1645,3.16,3.166,3.1765,3.1735,3.169,3.2138,3.2363,3.2123,3.2064,3.2049,3.2034,3.169,3.157,3.166,3.1555,3.1555,3.1615,3.154,3.1511,3.1496,3.1496,3.1496,3.1496,3.1496,3.1496,3.1496,3.1496,3.1496,3.1496,3.1496,3.1496,3.1496,3.1496,3.1496,3.1496,3.1496,3.1496,3.1496,3.1496,3.1496,3.1496,3.1496,3.1496,3.1496,3.1496,3.1496,3.1481,3.1481,3.1496,3.1467,3.1409,3.1336,3.1292,3.1205,3.119,3.1161,3.1205,3.119,3.1161,3.1043,3.091,3.0851,3.0762,3.0732,3.0762,3.0702,3.0612,3.0612,3.0569,3.0249,3.0016,3.0249,3.0307,3.0438,3.038,3.0191,3.1496,3.1496,3.1496,3.1496,3.1496,3.1496,3.1884,3.2647,3.3619,3.4444,3.4893,3.525,3.5489,3.5489,3.5489,3.5489,3.5489,3.5489,3.5489,3.5489,3.5489,3.5489,3.5489,3.5489,3.5489,3.5444,3.5205,3.5115,3.516,3.5085,3.507,3.4981,3.4801,3.4487,3.3739,3.3215,3.2991,3.2796,3.2497,3.2168,3.2153,3.2123,3.1959,3.163,3.2198,3.2363,3.2019,3.2019,3.2019,3.1989,3.1615,3.1675,3.1824,3.1795,3.1705,3.1839,3.1839,3.1496,3.1496,3.1496,3.1496,3.1496,3.1496,3.1496,3.1496,3.1496,3.1496,3.1496,3.1496,3.1496,3.1496,3.1496,3.1496,3.1496,3.1496,3.1496,3.1496,3.1496,3.1496,3.1496,3.1496,3.1496,3.1496,3.1496,3.1496,3.1496,3.1496,3.1496,3.1496,3.1409,3.1322,3.1263,3.1205,3.1161,3.1161,3.1146,3.1087,3.0969,3.0851,3.0732,3.0702,3.0762,3.0732,3.0702,3.0672,3.0612,3.0612,3.0612,3.0612,3.0583,3.0612,3.0612,3.0554,3.0539,3.0481,3.1496,3.1496,3.1496,3.1496,3.1496,3.1496,3.1989,3.2931,3.3993,3.4623,3.4906,3.534,3.5489,3.5489,3.5489,3.5489,3.5489,3.5489,3.5489,3.5489,3.5489,3.5489,3.5489,3.5489,3.5489,3.5489,3.5489,3.5474,3.5429,3.5474,3.5429,3.5385,3.5474,3.5026,3.4367,3.4068,3.3664,3.3395,3.2976,3.2841,3.2841,3.2766,3.2527,3.2258,3.2363,3.2572,3.2079,3.1839,3.1824,3.1765,3.172,3.1735,3.1884,3.1884,3.175,3.1854,3.1809,3.1511,3.1496,3.1496,3.1496,3.1496,3.1496,3.1496,3.1496,3.1496,3.1496,3.1496,3.1511,3.1525,3.154,3.154,3.1615,3.1615,3.1615,3.163,3.157,3.157,3.1555,3.1555,3.1496,3.1496,3.1496,3.1496,3.1496,3.1496,3.1496,3.1496,3.1496,3.1409,3.1351,3.1322,3.1263,3.1205,3.1132,3.1073,3.0984,3.0836,3.0732,3.0672,3.0762,3.0866,3.0762,3.0628,3.0628,3.0598,3.0612,3.0612,3.0612,3.0612,3.0612,3.0612,3.0612,3.0612,3.0612,3.1496,3.1496,3.1496,3.1496,3.1496,3.1496,3.2198,3.3455,3.4173,3.4848,3.5415,3.54,3.5489,3.5489,3.5489,3.5489,3.5489,3.5489,3.5489,3.5489,3.5489,3.5489,3.5489,3.5489,3.5489,3.5489,3.5489,3.5489,3.5489,3.5489,3.5489,3.5489,3.5489,3.531,3.5055,3.4741,3.4292,3.3993,3.3664,3.3544,3.3529,3.3395,3.3036,3.2811,3.2856,3.2811,3.2482,3.2258,3.2228,3.2079,3.1839,3.166,3.157,3.154,3.1525,3.1511,3.1525,3.1511,3.1525,3.1525,3.1675,3.1735,3.175,3.1615,3.1496,3.1496,3.1496,3.157,3.163,3.163,3.163,3.175,3.1854,3.1854,3.1839,3.1795,3.1705,3.1675,3.166,3.1615,3.1525,3.1496,3.1496,3.1496,3.1496,3.1496,3.1496,3.1496,3.1496,3.1496,3.1438,3.1453,3.1366,3.1278,3.119,3.1102,3.0955,3.0821,3.0866,3.0836,3.0895,3.0866,3.0732,3.0657,3.0628,3.0598,3.0612,3.0612,3.0612,3.0612,3.0612,3.0612,3.0612,3.0612,3.0612,3.1496,3.1496,3.1496,3.1496,3.1496,3.1496,3.2004,3.2886,3.3979,3.4668,3.4786,3.5295,3.5444,3.5489,3.5489,3.5489,3.5489,3.5489,3.5489,3.5489,3.5489,3.5489,3.5489,3.5489,3.5489,3.5489,3.5489,3.5489,3.5489,3.5489,3.5489,3.5489,3.5489,3.5489,3.5429,3.531,3.504,3.4756,3.4382,3.4247,3.4099,3.3858,3.3514,3.3365,3.3066,3.2916,3.2662,3.2183,3.2049,3.1824,3.166,3.1645,3.2198,3.1795,3.1496,3.1496,3.1496,3.1511,3.157,3.1944,3.2213,3.2347,3.2572,3.2213,3.1869,3.163,3.1645,3.1839,3.2049,3.2168,3.2303,3.2422,3.2527,3.2587,3.2527,3.2452,3.2392,3.2392,3.2303,3.1765,3.1675,3.1585,3.157,3.1496,3.1496,3.1496,3.1496,3.1496,3.1496,3.1496,3.1496,3.1511,3.1453,3.1351,3.1249,3.1161,3.0999,3.0851,3.0851,3.0836,3.0762,3.0732,3.0672,3.0642,3.0628,3.0598,3.0612,3.0612,3.0612,3.0612,3.0612,3.0612,3.0612,3.0612,3.0612,3.1496,3.1496,3.1496,3.1496,3.1496,3.1496,3.1869,3.2602,3.338,3.3964,3.4502,3.4906,3.525,3.5489,3.5489,3.5489,3.5489,3.5489,3.5489,3.5489,3.5489,3.5489,3.5489,3.5489,3.5489,3.5489,3.5489,3.5489,3.5489,3.5489,3.5489,3.5489,3.5489,3.5489,3.5474,3.5444,3.5459,3.5295,3.51,3.4936,3.4681,3.4427,3.4233,3.3829,3.341,3.3185,3.2886,3.2363,3.2288,3.2273,3.2273,3.2422,3.2871,3.2512,3.2347,3.2407,3.2407,3.2437,3.2467,3.2706,3.2856,3.3006,3.3275,3.3006,3.2736,3.2512,3.2452,3.2512,3.2736,3.2916,3.3066,3.3215,3.3335,3.3455,3.3365,3.329,3.329,3.329,3.2811,3.2108,3.1854,3.175,3.166,3.1585,3.1496,3.1496,3.1496,3.1496,3.1496,3.1496,3.1496,3.1496,3.1467,3.1438,3.1322,3.1234,3.1117,3.094,3.0821,3.0791,3.0672,3.0642,3.0642,3.0642,3.0612,3.0612,3.0612,3.0612,3.0612,3.0612,3.0612,3.0612,3.0612,3.0612,3.0612,3.1496,3.1496,3.1496,3.1496,3.1496,3.1496,3.1824,3.2392,3.2572,3.323,3.4249,3.4488,3.4893,3.5235,3.5415,3.5489,3.5489,3.5489,3.5489,3.5489,3.5489,3.5489,3.5489,3.5489,3.5489,3.5489,3.5489,3.5489,3.5489,3.5489,3.5489,3.5489,3.5489,3.5489,3.5489,3.5489,3.5489,3.5444,3.5415,3.5325,3.5385,3.534,3.522,3.4698,3.4399,3.4143,3.3694,3.3499,3.3499,3.3469,3.344,3.338,3.3365,3.335,3.3335,3.3335,3.32,3.3185,3.3215,3.3425,3.3529,3.3589,3.3619,3.3769,3.3724,3.3215,3.3051,3.3125,3.3305,3.3514,3.3679,3.3963,3.4158,3.4203,3.4158,3.3963,3.3784,3.3679,3.329,3.2766,3.2632,3.2497,3.2287,3.2273,3.2288,3.1929,3.169,3.1705,3.1645,3.1645,3.157,3.1555,3.1496,3.1467,3.1409,3.1292,3.1234,3.1087,3.0955,3.0836,3.0762,3.0672,3.0612,3.0612,3.0612,3.0612,3.0612,3.0612,3.0612,3.0612,3.0612,3.0612,3.0612,3.0612,3.0612,3.1496,3.1496,3.1496,3.1496,3.1496,3.1496,3.1585,3.178,3.2288,3.2976,3.3709,3.4264,3.4593,3.4801,3.525,3.5415,3.5489,3.5489,3.5489,3.5489,3.5489,3.5489,3.5489,3.5489,3.5489,3.5489,3.5489,3.5489,3.5489,3.5489,3.5489,3.5489,3.5489,3.5489,3.5489,3.5489,3.5489,3.5489,3.5489,3.5489,3.5489,3.5489,3.5355,3.507,3.4876,3.4578,3.4128,3.3799,3.3634,3.3499,3.3499,3.3484,3.3499,3.3529,3.3529,3.3514,3.3664,3.3709,3.3814,3.4038,3.4218,3.4442,3.4592,3.4876,3.4726,3.3963,3.3619,3.3724,3.3873,3.4098,3.4337,3.4651,3.4891,3.4906,3.4891,3.4577,3.4277,3.4023,3.3754,3.3559,3.344,3.323,3.3006,3.2931,3.3021,3.2811,3.2452,3.2287,3.2093,3.2019,3.178,3.1705,3.1525,3.1467,3.1409,3.138,3.1322,3.1234,3.1132,3.0984,3.0836,3.0732,3.0642,3.0612,3.0612,3.0612,3.0612,3.0612,3.0612,3.0612,3.0612,3.0612,3.0612,3.0612,3.0612,3.1496,3.1496,3.1496,3.1496,3.1496,3.1496,3.166,3.1989,3.2333,3.2886,3.3469,3.3888,3.4219,3.4444,3.4891,3.5325,3.5444,3.5489,3.5489,3.5489,3.5489,3.5489,3.5489,3.5489,3.5489,3.5489,3.5489,3.5489,3.5489,3.5489,3.5489,3.5489,3.5489,3.5489,3.5489,3.5489,3.5489,3.5489,3.5489,3.5489,3.5489,3.5489,3.5489,3.5325,3.5175,3.4906,3.4846,3.4547,3.4487,3.4412,3.4472,3.4472,3.4502,3.4517,3.4442,3.4442,3.4472,3.4382,3.4472,3.4622,3.4876,3.5055,3.516,3.5295,3.5325,3.4666,3.4622,3.4711,3.4741,3.4936,3.4951,3.519,3.5235,3.525,3.525,3.51,3.4966,3.4831,3.4457,3.4098,3.3933,3.3724,3.3484,3.3245,3.3305,3.329,3.2991,3.2961,3.2781,3.2482,3.2213,3.1989,3.1884,3.1615,3.1467,3.1438,3.1409,3.1351,3.1278,3.1102,3.091,3.0791,3.0702,3.0642,3.0642,3.0612,3.0612,3.0612,3.0612,3.0612,3.0612,3.0612,3.0612,3.0612,3.0612,3.1496,3.1496,3.1496,3.1496,3.1496,3.1496,3.1795,3.2288,3.2572,3.2901,3.3305,3.3455,3.3873,3.4324,3.4548,3.4996,3.5325,3.5459,3.5489,3.5489,3.5489,3.5489,3.5489,3.5489,3.5489,3.5489,3.5489,3.5489,3.5489,3.5489,3.5489,3.5489,3.5489,3.5489,3.5489,3.5489,3.5489,3.5489,3.5489,3.5489,3.5489,3.5489,3.5489,3.5489,3.5489,3.5489,3.5489,3.5489,3.5474,3.54,3.5265,3.5235,3.5235,3.519,3.5235,3.5205,3.5175,3.522,3.5325,3.528,3.5385,3.5459,3.5489,3.5489,3.5489,3.5474,3.5415,3.5415,3.5444,3.5459,3.5459,3.5474,3.5489,3.5489,3.5489,3.5489,3.5459,3.5429,3.504,3.4622,3.4472,3.4262,3.4083,3.3814,3.3739,3.3709,3.3634,3.3634,3.3529,3.3185,3.2886,3.2617,3.2452,3.2138,3.1645,3.1556,3.1586,3.1438,3.1366,3.1161,3.0969,3.0851,3.0762,3.0672,3.0642,3.0656,3.0627,3.0612,3.0612,3.0627,3.0612,3.0612,3.0612,3.0612,3.0612,3.1496,3.1496,3.1496,3.1496,3.1496,3.1496,3.1585,3.1869,3.2856,3.3125,3.2991,3.335,3.3858,3.4503,3.4503,3.4846,3.5415,3.5489,3.5489,3.5489,3.5489,3.5489,3.5489,3.5489,3.5489,3.5489,3.5489,3.5489,3.5489,3.5489,3.5489,3.5489,3.5489,3.5489,3.5489,3.5489,3.5489,3.5489,3.5489,3.5489,3.5489,3.5489,3.5489,3.5489,3.5489,3.5489,3.5489,3.5489,3.5489,3.5489,3.5489,3.5489,3.5489,3.5489,3.5489,3.5489,3.5489,3.5489,3.5489,3.5489,3.5489,3.5489,3.5489,3.5489,3.5489,3.5489,3.5459,3.5459,3.5474,3.5474,3.5489,3.5489,3.5489,3.5489,3.5489,3.5489,3.5474,3.5474,3.531,3.519,3.513,3.5055,3.5011,3.4861,3.4861,3.4726,3.4397,3.4382,3.4262,3.3903,3.3544,3.332,3.311,3.2363,3.1765,3.1809,3.1809,3.1645,3.1557,3.1486,3.1308,3.094,3.085,3.1081,3.0889,3.0786,3.0728,3.0801,3.0641,3.0656,3.0627,3.0612,3.0612,3.0714,3.0816]}]]